Wetterdaten: Sonntag, 30.10.2016
Datum Zeit Temp. A. Feuchte A. Luftdruck Regen Wind Richtung Richtung Sonnenschein ET UV Solar Taupunkt Windchill Windben Empfang
30.10.2016 00:00 8,7 C 92 % 1029,9 hPa 0,0 l/m 8,6 km/h (2 Bft) W-SW 246 0 min 0,000 mm 0,0 UV-I 0 W/m 7,5 C 7,1 C 12,9 km/h (3 Bft) 100,00 %
30.10.2016 00:02 8,7 C 92 % 1029,9 hPa 0,0 l/m 7,3 km/h (2 Bft) W-SW 253 0 min 0,000 mm 0,0 UV-I 0 W/m 7,5 C 8,0 C 9,7 km/h (2 Bft) 94,29 %
30.10.2016 00:04 8,7 C 92 % 1029,8 hPa 0,0 l/m 8,2 km/h (2 Bft) W-SW 255 0 min 0,000 mm 0,0 UV-I 0 W/m 7,5 C 7,3 C 11,3 km/h (2 Bft) 98,00 %
30.10.2016 00:06 8,7 C 92 % 1029,8 hPa 0,0 l/m 7,7 km/h (2 Bft) W 267 0 min 0,000 mm 0,0 UV-I 0 W/m 7,5 C 7,7 C 11,3 km/h (2 Bft) 100,00 %
30.10.2016 00:08 8,7 C 92 % 1029,9 hPa 0,0 l/m 7,2 km/h (2 Bft) W-SW 250 0 min 0,000 mm 0,0 UV-I 0 W/m 7,5 C 8,1 C 11,3 km/h (2 Bft) 100,00 %
30.10.2016 00:10 8,7 C 92 % 1029,8 hPa 0,0 l/m 8,3 km/h (2 Bft) W 260 0 min 0,000 mm 0,0 UV-I 0 W/m 7,5 C 7,3 C 11,3 km/h (2 Bft) 100,00 %
30.10.2016 00:12 8,7 C 92 % 1029,9 hPa 0,0 l/m 8,4 km/h (2 Bft) W-SW 246 0 min 0,000 mm 0,0 UV-I 0 W/m 7,5 C 7,2 C 11,3 km/h (2 Bft) 98,15 %
30.10.2016 00:14 8,7 C 92 % 1029,9 hPa 0,0 l/m 8,0 km/h (2 Bft) W 267 0 min 0,000 mm 0,0 UV-I 0 W/m 7,5 C 7,5 C 11,3 km/h (2 Bft) 100,00 %
30.10.2016 00:16 8,7 C 92 % 1029,9 hPa 0,0 l/m 9,9 km/h (2 Bft) W-SW 245 0 min 0,000 mm 0,0 UV-I 0 W/m 7,5 C 6,2 C 12,9 km/h (3 Bft) 100,00 %
30.10.2016 00:18 8,7 C 92 % 1029,9 hPa 0,0 l/m 7,7 km/h (2 Bft) W-SW 246 0 min 0,000 mm 0,0 UV-I 0 W/m 7,5 C 7,7 C 11,3 km/h (2 Bft) 100,00 %
30.10.2016 00:20 8,7 C 92 % 1029,9 hPa 0,0 l/m 7,8 km/h (2 Bft) W-SW 248 0 min 0,000 mm 0,0 UV-I 0 W/m 7,5 C 7,6 C 12,9 km/h (3 Bft) 100,00 %
30.10.2016 00:22 8,7 C 92 % 1029,9 hPa 0,0 l/m 7,9 km/h (2 Bft) W-SW 257 0 min 0,000 mm 0,0 UV-I 0 W/m 7,5 C 7,6 C 12,9 km/h (3 Bft) 100,00 %
30.10.2016 00:24 8,7 C 92 % 1029,9 hPa 0,0 l/m 7,7 km/h (2 Bft) W-SW 252 0 min 0,000 mm 0,0 UV-I 0 W/m 7,5 C 7,7 C 12,9 km/h (3 Bft) 100,00 %
30.10.2016 00:26 8,8 C 92 % 1030,0 hPa 0,0 l/m 9,0 km/h (2 Bft) W 267 0 min 0,000 mm 0,0 UV-I 0 W/m 7,6 C 6,9 C 14,5 km/h (3 Bft) 100,00 %
30.10.2016 00:28 8,8 C 92 % 1030,0 hPa 0,0 l/m 7,1 km/h (2 Bft) W-SW 250 0 min 0,000 mm 0,0 UV-I 0 W/m 7,6 C 8,3 C 12,9 km/h (3 Bft) 100,00 %
30.10.2016 00:30 8,8 C 92 % 1030,0 hPa 0,0 l/m 7,9 km/h (2 Bft) W-SW 248 0 min 0,000 mm 0,0 UV-I 0 W/m 7,6 C 7,7 C 12,9 km/h (3 Bft) 100,00 %
30.10.2016 00:32 8,8 C 92 % 1029,9 hPa 0,0 l/m 6,8 km/h (2 Bft) W-SW 252 0 min 0,000 mm 0,0 UV-I 0 W/m 7,6 C 8,5 C 12,9 km/h (3 Bft) 100,00 %
30.10.2016 00:34 8,8 C 92 % 1029,8 hPa 0,0 l/m 6,8 km/h (2 Bft) W 259 0 min 0,000 mm 0,0 UV-I 0 W/m 7,6 C 8,5 C 12,9 km/h (3 Bft) 100,00 %
30.10.2016 00:36 8,8 C 92 % 1029,8 hPa 0,0 l/m 9,0 km/h (2 Bft) SW 233 0 min 0,000 mm 0,0 UV-I 0 W/m 7,6 C 6,9 C 12,9 km/h (3 Bft) 98,21 %
30.10.2016 00:38 8,8 C 92 % 1029,8 hPa 0,0 l/m 9,0 km/h (2 Bft) S-SW 213 0 min 0,000 mm 0,0 UV-I 0 W/m 7,6 C 6,9 C 12,9 km/h (3 Bft) 100,00 %
30.10.2016 00:40 8,8 C 92 % 1029,8 hPa 0,0 l/m 7,5 km/h (2 Bft) W-SW 245 0 min 0,000 mm 0,0 UV-I 0 W/m 7,6 C 8,0 C 12,9 km/h (3 Bft) 98,11 %
30.10.2016 00:42 8,8 C 92 % 1029,7 hPa 0,0 l/m 7,7 km/h (2 Bft) SW 227 0 min 0,000 mm 0,0 UV-I 0 W/m 7,6 C 7,8 C 12,9 km/h (3 Bft) 100,00 %
30.10.2016 00:44 8,8 C 92 % 1029,7 hPa 0,0 l/m 7,9 km/h (2 Bft) SW 236 0 min 0,000 mm 0,0 UV-I 0 W/m 7,6 C 7,7 C 12,9 km/h (3 Bft) 100,00 %
30.10.2016 00:46 8,8 C 92 % 1029,8 hPa 0,0 l/m 9,3 km/h (2 Bft) SW 226 0 min 0,000 mm 0,0 UV-I 0 W/m 7,6 C 6,7 C 14,5 km/h (3 Bft) 100,00 %
30.10.2016 00:48 8,8 C 92 % 1029,7 hPa 0,0 l/m 9,0 km/h (2 Bft) S-SW 207 0 min 0,000 mm 0,0 UV-I 0 W/m 7,6 C 6,9 C 12,9 km/h (3 Bft) 100,00 %
30.10.2016 00:50 8,8 C 92 % 1029,7 hPa 0,0 l/m 8,6 km/h (2 Bft) W-SW 250 0 min 0,000 mm 0,0 UV-I 0 W/m 7,6 C 7,2 C 14,5 km/h (3 Bft) 100,00 %
30.10.2016 00:52 8,8 C 92 % 1029,7 hPa 0,0 l/m 7,0 km/h (2 Bft) W-SW 250 0 min 0,000 mm 0,0 UV-I 0 W/m 7,6 C 8,3 C 9,7 km/h (2 Bft) 100,00 %
30.10.2016 00:54 8,7 C 92 % 1029,7 hPa 0,0 l/m 8,5 km/h (2 Bft) SW 236 0 min 0,000 mm 0,0 UV-I 0 W/m 7,5 C 7,1 C 14,5 km/h (3 Bft) 97,56 %
30.10.2016 00:56 8,7 C 92 % 1029,7 hPa 0,0 l/m 10,0 km/h (2 Bft) W-SW 252 0 min 0,000 mm 0,0 UV-I 0 W/m 7,5 C 6,2 C 14,5 km/h (3 Bft) 100,00 %
30.10.2016 00:58 8,7 C 92 % 1029,6 hPa 0,0 l/m 11,0 km/h (2 Bft) W-SW 252 0 min 0,000 mm 0,0 UV-I 0 W/m 7,5 C 5,6 C 17,7 km/h (3 Bft) 97,87 %
30.10.2016 01:00 8,7 C 92 % 1029,6 hPa 0,0 l/m 9,2 km/h (2 Bft) W-SW 257 0 min 0,000 mm 0,0 UV-I 0 W/m 7,5 C 6,7 C 14,5 km/h (3 Bft) 98,00 %
30.10.2016 01:01 8,8 C 92 % 1029,5 hPa 0,0 l/m 9,7 km/h (2 Bft) W-SW 244 0 min 0,000 mm 0,0 UV-I 0 W/m 7,6 C 6,5 C 16,1 km/h (3 Bft) 98,00 %
30.10.2016 01:04 8,8 C 92 % 1029,5 hPa 0,0 l/m 7,6 km/h (2 Bft) W 260 0 min 0,000 mm 0,0 UV-I 0 W/m 7,6 C 7,9 C 11,3 km/h (2 Bft) 97,62 %
30.10.2016 01:06 8,7 C 92 % 1029,6 hPa 0,0 l/m 9,8 km/h (2 Bft) W-SW 250 0 min 0,000 mm 0,0 UV-I 0 W/m 7,5 C 6,3 C 12,9 km/h (3 Bft) 96,36 %
30.10.2016 01:08 8,7 C 92 % 1029,6 hPa 0,0 l/m 9,4 km/h (2 Bft) W-SW 254 0 min 0,000 mm 0,0 UV-I 0 W/m 7,5 C 6,5 C 12,9 km/h (3 Bft) 100,00 %
30.10.2016 01:10 8,7 C 92 % 1029,6 hPa 0,0 l/m 8,5 km/h (2 Bft) W 259 0 min 0,000 mm 0,0 UV-I 0 W/m 7,5 C 7,1 C 11,3 km/h (2 Bft) 96,00 %
30.10.2016 01:13 8,7 C 92 % 1029,6 hPa 0,0 l/m 9,7 km/h (2 Bft) W-SW 252 0 min 0,000 mm 0,0 UV-I 0 W/m 7,5 C 6,3 C 16,1 km/h (3 Bft) 97,47 %
30.10.2016 01:14 8,7 C 92 % 1029,6 hPa 0,0 l/m 9,5 km/h (2 Bft) W-SW 253 0 min 0,000 mm 0,0 UV-I 0 W/m 7,5 C 6,5 C 14,5 km/h (3 Bft) 100,00 %
30.10.2016 01:16 8,7 C 92 % 1029,6 hPa 0,0 l/m 8,8 km/h (2 Bft) W 267 0 min 0,000 mm 0,0 UV-I 0 W/m 7,5 C 6,9 C 12,9 km/h (3 Bft) 98,11 %
30.10.2016 01:18 8,7 C 92 % 1029,6 hPa 0,0 l/m 7,8 km/h (2 Bft) S-SW 204 0 min 0,000 mm 0,0 UV-I 0 W/m 7,5 C 7,6 C 12,9 km/h (3 Bft) 97,56 %
30.10.2016 01:20 8,7 C 92 % 1029,6 hPa 0,0 l/m 9,9 km/h (2 Bft) W-SW 252 0 min 0,000 mm 0,0 UV-I 0 W/m 7,5 C 6,2 C 16,1 km/h (3 Bft) 98,11 %
30.10.2016 01:22 8,8 C 92 % 1029,6 hPa 0,0 l/m 8,8 km/h (2 Bft) W 277 0 min 0,000 mm 0,0 UV-I 0 W/m 7,6 C 7,0 C 12,9 km/h (3 Bft) 97,56 %
30.10.2016 01:24 8,7 C 92 % 1029,6 hPa 0,0 l/m 4,7 km/h (1 Bft) W-SW 248 0 min 0,000 mm 0,0 UV-I 0 W/m 7,5 C 8,7 C 6,4 km/h (2 Bft) 96,00 %
30.10.2016 01:26 8,7 C 92 % 1029,6 hPa 0,0 l/m 7,1 km/h (2 Bft) W-SW 251 0 min 0,000 mm 0,0 UV-I 0 W/m 7,5 C 8,2 C 11,3 km/h (2 Bft) 97,87 %
30.10.2016 01:28 8,7 C 92 % 1029,7 hPa 0,0 l/m 7,0 km/h (2 Bft) W-SW 237 0 min 0,000 mm 0,0 UV-I 0 W/m 7,5 C 8,2 C 12,9 km/h (3 Bft) 98,00 %
30.10.2016 01:30 8,7 C 92 % 1029,6 hPa 0,0 l/m 6,4 km/h (2 Bft) SW 234 0 min 0,000 mm 0,0 UV-I 0 W/m 7,5 C 8,7 C 11,3 km/h (2 Bft) 97,37 %
30.10.2016 01:32 8,6 C 92 % 1029,6 hPa 0,0 l/m 5,3 km/h (1 Bft) W-SW 252 0 min 0,000 mm 0,0 UV-I 0 W/m 7,4 C 8,6 C 8,0 km/h (2 Bft) 100,00 %
30.10.2016 01:34 8,6 C 92 % 1029,6 hPa 0,0 l/m 4,7 km/h (1 Bft) W 259 0 min 0,000 mm 0,0 UV-I 0 W/m 7,4 C 8,6 C 6,4 km/h (2 Bft) 100,00 %
30.10.2016 01:36 8,6 C 92 % 1029,6 hPa 0,0 l/m 5,7 km/h (1 Bft) W-SW 243 0 min 0,000 mm 0,0 UV-I 0 W/m 7,4 C 8,6 C 8,0 km/h (2 Bft) 97,37 %
30.10.2016 01:38 8,6 C 92 % 1029,6 hPa 0,0 l/m 6,6 km/h (2 Bft) SW 236 0 min 0,000 mm 0,0 UV-I 0 W/m 7,4 C 8,5 C 8,0 km/h (2 Bft) 98,11 %
30.10.2016 01:40 8,6 C 92 % 1029,6 hPa 0,0 l/m 5,2 km/h (1 Bft) SW 227 0 min 0,000 mm 0,0 UV-I 0 W/m 7,4 C 8,6 C 6,4 km/h (2 Bft) 100,00 %
30.10.2016 01:42 8,6 C 92 % 1029,5 hPa 0,0 l/m 5,3 km/h (1 Bft) W-SW 247 0 min 0,000 mm 0,0 UV-I 0 W/m 7,4 C 8,6 C 8,0 km/h (2 Bft) 100,00 %
30.10.2016 01:44 8,6 C 92 % 1029,6 hPa 0,0 l/m 5,3 km/h (1 Bft) W-SW 257 0 min 0,000 mm 0,0 UV-I 0 W/m 7,4 C 8,6 C 9,7 km/h (2 Bft) 100,00 %
30.10.2016 01:46 8,6 C 92 % 1029,5 hPa 0,0 l/m 5,5 km/h (1 Bft) W 275 0 min 0,000 mm 0,0 UV-I 0 W/m 7,4 C 8,6 C 9,7 km/h (2 Bft) 100,00 %
30.10.2016 01:48 8,6 C 92 % 1029,5 hPa 0,0 l/m 5,1 km/h (1 Bft) W-SW 242 0 min 0,000 mm 0,0 UV-I 0 W/m 7,4 C 8,6 C 8,0 km/h (2 Bft) 100,00 %
30.10.2016 01:50 8,6 C 92 % 1029,5 hPa 0,0 l/m 5,5 km/h (1 Bft) W-SW 238 0 min 0,000 mm 0,0 UV-I 0 W/m 7,4 C 8,6 C 9,7 km/h (2 Bft) 100,00 %
30.10.2016 01:52 8,5 C 92 % 1029,5 hPa 0,0 l/m 6,9 km/h (2 Bft) SW 236 0 min 0,000 mm 0,0 UV-I 0 W/m 7,3 C 8,1 C 12,9 km/h (3 Bft) 98,00 %
30.10.2016 01:54 8,6 C 92 % 1029,5 hPa 0,0 l/m 8,5 km/h (2 Bft) W-SW 244 0 min 0,000 mm 0,0 UV-I 0 W/m 7,4 C 7,0 C 14,5 km/h (3 Bft) 97,37 %
30.10.2016 01:56 8,6 C 92 % 1029,5 hPa 0,0 l/m 5,1 km/h (1 Bft) SW 234 0 min 0,000 mm 0,0 UV-I 0 W/m 7,4 C 8,6 C 8,0 km/h (2 Bft) 98,00 %
30.10.2016 01:58 8,6 C 92 % 1029,4 hPa 0,0 l/m 5,5 km/h (1 Bft) SW 236 0 min 0,000 mm 0,0 UV-I 0 W/m 7,4 C 8,6 C 8,0 km/h (2 Bft) 100,00 %
30.10.2016 02:00 8,6 C 92 % 1029,3 hPa 0,0 l/m 5,4 km/h (1 Bft) SW 235 0 min 0,000 mm 0,0 UV-I 0 W/m 7,4 C 8,6 C 8,0 km/h (2 Bft) 100,00 %
30.10.2016 02:02 8,6 C 92 % 1029,4 hPa 0,0 l/m 7,9 km/h (2 Bft) SW 219 0 min 0,000 mm 0,0 UV-I 0 W/m 7,4 C 7,5 C 14,5 km/h (3 Bft) 100,00 %
30.10.2016 02:04 8,6 C 92 % 1029,3 hPa 0,0 l/m 6,5 km/h (2 Bft) W-SW 257 0 min 0,000 mm 0,0 UV-I 0 W/m 7,4 C 8,5 C 8,0 km/h (2 Bft) 100,00 %
30.10.2016 02:06 8,6 C 92 % 1029,3 hPa 0,0 l/m 6,8 km/h (2 Bft) W-SW 248 0 min 0,000 mm 0,0 UV-I 0 W/m 7,4 C 8,3 C 11,3 km/h (2 Bft) 100,00 %
30.10.2016 02:08 8,6 C 92 % 1029,3 hPa 0,0 l/m 5,7 km/h (1 Bft) SW 232 0 min 0,000 mm 0,0 UV-I 0 W/m 7,4 C 8,6 C 8,0 km/h (2 Bft) 100,00 %
30.10.2016 02:10 8,5 C 92 % 1029,3 hPa 0,0 l/m 6,4 km/h (2 Bft) W-SW 243 0 min 0,000 mm 0,0 UV-I 0 W/m 7,3 C 8,5 C 9,7 km/h (2 Bft) 100,00 %
30.10.2016 02:12 8,5 C 92 % 1029,3 hPa 0,0 l/m 5,4 km/h (1 Bft) SW 214 0 min 0,000 mm 0,0 UV-I 0 W/m 7,3 C 8,5 C 6,4 km/h (2 Bft) 100,00 %
30.10.2016 02:14 8,4 C 92 % 1029,2 hPa 0,0 l/m 5,7 km/h (1 Bft) S-SW 208 0 min 0,000 mm 0,0 UV-I 0 W/m 7,2 C 8,4 C 8,0 km/h (2 Bft) 100,00 %
30.10.2016 02:16 8,4 C 92 % 1029,1 hPa 0,0 l/m 6,4 km/h (2 Bft) W-SW 237 0 min 0,000 mm 0,0 UV-I 0 W/m 7,2 C 8,4 C 9,7 km/h (2 Bft) 100,00 %
30.10.2016 02:18 8,4 C 92 % 1029,2 hPa 0,0 l/m 6,0 km/h (2 Bft) SW 234 0 min 0,000 mm 0,0 UV-I 0 W/m 7,2 C 8,4 C 8,0 km/h (2 Bft) 100,00 %
30.10.2016 02:20 8,4 C 92 % 1029,2 hPa 0,0 l/m 4,1 km/h (1 Bft) SW 229 0 min 0,000 mm 0,0 UV-I 0 W/m 7,2 C 8,4 C 4,8 km/h (1 Bft) 100,00 %
30.10.2016 02:22 8,3 C 92 % 1029,2 hPa 0,0 l/m 5,0 km/h (1 Bft) SW 234 0 min 0,000 mm 0,0 UV-I 0 W/m 7,1 C 8,3 C 6,4 km/h (2 Bft) 100,00 %
30.10.2016 02:24 8,3 C 92 % 1029,3 hPa 0,0 l/m 4,2 km/h (1 Bft) SW 224 0 min 0,000 mm 0,0 UV-I 0 W/m 7,1 C 8,3 C 6,4 km/h (2 Bft) 100,00 %
30.10.2016 02:26 8,3 C 93 % 1029,2 hPa 0,0 l/m 5,5 km/h (1 Bft) SW 227 0 min 0,000 mm 0,0 UV-I 0 W/m 7,2 C 8,3 C 6,4 km/h (2 Bft) 100,00 %
30.10.2016 02:28 8,3 C 93 % 1029,2 hPa 0,0 l/m 4,7 km/h (1 Bft) W-SW 252 0 min 0,000 mm 0,0 UV-I 0 W/m 7,2 C 8,3 C 6,4 km/h (2 Bft) 100,00 %
30.10.2016 02:30 8,2 C 93 % 1029,2 hPa 0,0 l/m 5,1 km/h (1 Bft) W-SW 253 0 min 0,000 mm 0,0 UV-I 0 W/m 7,1 C 8,2 C 6,4 km/h (2 Bft) 100,00 %
30.10.2016 02:32 8,2 C 93 % 1029,2 hPa 0,0 l/m 4,4 km/h (1 Bft) W-SW 253 0 min 0,000 mm 0,0 UV-I 0 W/m 7,1 C 8,2 C 6,4 km/h (2 Bft) 100,00 %
30.10.2016 02:34 8,2 C 93 % 1029,2 hPa 0,0 l/m 4,3 km/h (1 Bft) W-SW 255 0 min 0,000 mm 0,0 UV-I 0 W/m 7,1 C 8,2 C 6,4 km/h (2 Bft) 100,00 %
30.10.2016 02:36 8,1 C 93 % 1029,2 hPa 0,0 l/m 3,6 km/h (1 Bft) SW 227 0 min 0,000 mm 0,0 UV-I 0 W/m 7,0 C 8,1 C 4,8 km/h (1 Bft) 100,00 %
30.10.2016 02:38 8,1 C 93 % 1029,3 hPa 0,0 l/m 4,9 km/h (1 Bft) SW 229 0 min 0,000 mm 0,0 UV-I 0 W/m 7,0 C 8,1 C 8,0 km/h (2 Bft) 97,87 %
30.10.2016 02:40 8,1 C 93 % 1029,3 hPa 0,0 l/m 5,2 km/h (1 Bft) SW 218 0 min 0,000 mm 0,0 UV-I 0 W/m 7,0 C 8,1 C 6,4 km/h (2 Bft) 100,00 %
30.10.2016 02:42 8,1 C 93 % 1029,3 hPa 0,0 l/m 5,6 km/h (1 Bft) SW 229 0 min 0,000 mm 0,0 UV-I 0 W/m 7,0 C 8,1 C 8,0 km/h (2 Bft) 100,00 %
30.10.2016 02:44 8,1 C 93 % 1029,4 hPa 0,0 l/m 5,3 km/h (1 Bft) SW 232 0 min 0,000 mm 0,0 UV-I 0 W/m 7,0 C 8,1 C 8,0 km/h (2 Bft) 100,00 %
30.10.2016 02:46 8,1 C 94 % 1029,4 hPa 0,0 l/m 4,5 km/h (1 Bft) SW 227 0 min 0,000 mm 0,0 UV-I 0 W/m 7,2 C 8,1 C 6,4 km/h (2 Bft) 100,00 %
30.10.2016 02:48 8,1 C 94 % 1029,3 hPa 0,0 l/m 4,6 km/h (1 Bft) W 263 0 min 0,000 mm 0,0 UV-I 0 W/m 7,2 C 8,1 C 6,4 km/h (2 Bft) 100,00 %
30.10.2016 02:50 8,1 C 94 % 1029,4 hPa 0,0 l/m 3,6 km/h (1 Bft) SW 229 0 min 0,000 mm 0,0 UV-I 0 W/m 7,2 C 8,1 C 4,8 km/h (1 Bft) 100,00 %
30.10.2016 02:52 8,1 C 94 % 1029,4 hPa 0,0 l/m 3,9 km/h (1 Bft) W-SW 251 0 min 0,000 mm 0,0 UV-I 0 W/m 7,2 C 8,1 C 6,4 km/h (2 Bft) 100,00 %
30.10.2016 02:54 8,1 C 94 % 1029,4 hPa 0,0 l/m 5,4 km/h (1 Bft) W-SW 257 0 min 0,000 mm 0,0 UV-I 0 W/m 7,2 C 8,1 C 6,4 km/h (2 Bft) 100,00 %
30.10.2016 02:56 8,1 C 94 % 1029,4 hPa 0,0 l/m 4,7 km/h (1 Bft) W-SW 256 0 min 0,000 mm 0,0 UV-I 0 W/m 7,2 C 8,1 C 6,4 km/h (2 Bft) 100,00 %
30.10.2016 02:58 8,1 C 93 % 1029,3 hPa 0,0 l/m 4,3 km/h (1 Bft) W-SW 252 0 min 0,000 mm 0,0 UV-I 0 W/m 7,0 C 8,1 C 6,4 km/h (2 Bft) 100,00 %
30.10.2016 02:00 8,1 C 93 % 1029,3 hPa 0,0 l/m 4,9 km/h (1 Bft) SW 229 0 min 0,000 mm 0,0 UV-I 0 W/m 7,0 C 8,1 C 8,0 km/h (2 Bft) 100,00 %
30.10.2016 02:02 8,1 C 93 % 1029,3 hPa 0,0 l/m 4,9 km/h (1 Bft) W-SW 247 0 min 0,000 mm 0,0 UV-I 0 W/m 7,0 C 8,1 C 6,4 km/h (2 Bft) 98,00 %
30.10.2016 02:04 8,1 C 93 % 1029,3 hPa 0,0 l/m 5,2 km/h (1 Bft) W-SW 248 0 min 0,000 mm 0,0 UV-I 0 W/m 7,0 C 8,1 C 6,4 km/h (2 Bft) 97,87 %
30.10.2016 02:06 8,1 C 93 % 1029,3 hPa 0,0 l/m 5,5 km/h (1 Bft) W-SW 245 0 min 0,000 mm 0,0 UV-I 0 W/m 7,0 C 8,1 C 8,0 km/h (2 Bft) 97,62 %
30.10.2016 02:08 8,1 C 93 % 1029,3 hPa 0,0 l/m 5,0 km/h (1 Bft) W-SW 257 0 min 0,000 mm 0,0 UV-I 0 W/m 7,0 C 8,1 C 8,0 km/h (2 Bft) 96,23 %
30.10.2016 02:10 8,1 C 93 % 1029,3 hPa 0,0 l/m 5,5 km/h (1 Bft) W-SW 250 0 min 0,000 mm 0,0 UV-I 0 W/m 7,0 C 8,1 C 8,0 km/h (2 Bft) 97,37 %
30.10.2016 02:12 8,2 C 92 % 1029,2 hPa 0,0 l/m 4,8 km/h (1 Bft) W-SW 256 0 min 0,000 mm 0,0 UV-I 0 W/m 7,0 C 8,2 C 6,4 km/h (2 Bft) 98,11 %
30.10.2016 02:14 8,1 C 92 % 1029,2 hPa 0,0 l/m 4,7 km/h (1 Bft) W-SW 240 0 min 0,000 mm 0,0 UV-I 0 W/m 6,9 C 8,1 C 6,4 km/h (2 Bft) 97,37 %
30.10.2016 02:16 8,1 C 92 % 1029,2 hPa 0,0 l/m 5,0 km/h (1 Bft) W 260 0 min 0,000 mm 0,0 UV-I 0 W/m 6,9 C 8,1 C 8,0 km/h (2 Bft) 98,11 %
30.10.2016 02:18 8,1 C 92 % 1029,2 hPa 0,0 l/m 4,9 km/h (1 Bft) W-SW 244 0 min 0,000 mm 0,0 UV-I 0 W/m 6,9 C 8,1 C 6,4 km/h (2 Bft) 97,56 %
30.10.2016 02:20 8,1 C 92 % 1029,1 hPa 0,0 l/m 4,0 km/h (1 Bft) W-SW 245 0 min 0,000 mm 0,0 UV-I 0 W/m 6,9 C 8,1 C 8,0 km/h (2 Bft) 98,11 %
30.10.2016 02:22 8,1 C 92 % 1029,2 hPa 0,0 l/m 5,9 km/h (2 Bft) W-SW 252 0 min 0,000 mm 0,0 UV-I 0 W/m 6,9 C 8,1 C 6,4 km/h (2 Bft) 98,00 %
30.10.2016 02:24 8,1 C 92 % 1029,1 hPa 0,0 l/m 5,4 km/h (1 Bft) SW 217 0 min 0,000 mm 0,0 UV-I 0 W/m 6,9 C 8,1 C 6,4 km/h (2 Bft) 97,56 %
30.10.2016 02:26 8,1 C 92 % 1029,2 hPa 0,0 l/m 4,9 km/h (1 Bft) W-SW 251 0 min 0,000 mm 0,0 UV-I 0 W/m 6,9 C 8,1 C 6,4 km/h (2 Bft) 96,23 %
30.10.2016 02:28 8,1 C 92 % 1029,1 hPa 0,0 l/m 6,4 km/h (2 Bft) W-SW 250 0 min 0,000 mm 0,0 UV-I 0 W/m 6,9 C 8,1 C 11,3 km/h (2 Bft) 100,00 %
30.10.2016 02:30 8,1 C 92 % 1029,2 hPa 0,0 l/m 6,3 km/h (2 Bft) SW 232 0 min 0,000 mm 0,0 UV-I 0 W/m 6,9 C 8,1 C 9,7 km/h (2 Bft) 97,56 %
30.10.2016 02:32 8,1 C 92 % 1029,1 hPa 0,0 l/m 6,6 km/h (2 Bft) W-SW 258 0 min 0,000 mm 0,0 UV-I 0 W/m 6,9 C 8,0 C 11,3 km/h (2 Bft) 98,00 %
30.10.2016 02:34 8,1 C 92 % 1029,1 hPa 0,0 l/m 8,0 km/h (2 Bft) W-SW 248 0 min 0,000 mm 0,0 UV-I 0 W/m 6,9 C 6,9 C 12,9 km/h (3 Bft) 97,56 %
30.10.2016 02:36 8,1 C 92 % 1029,1 hPa 0,0 l/m 7,9 km/h (2 Bft) W 265 0 min 0,000 mm 0,0 UV-I 0 W/m 6,9 C 6,9 C 12,9 km/h (3 Bft) 98,00 %
30.10.2016 02:38 8,1 C 91 % 1029,2 hPa 0,0 l/m 6,7 km/h (2 Bft) W 265 0 min 0,000 mm 0,0 UV-I 0 W/m 6,7 C 7,9 C 12,9 km/h (3 Bft) 97,44 %
30.10.2016 02:40 8,1 C 91 % 1029,2 hPa 0,0 l/m 7,8 km/h (2 Bft) W-SW 254 0 min 0,000 mm 0,0 UV-I 0 W/m 6,7 C 7,0 C 14,5 km/h (3 Bft) 97,96 %
30.10.2016 02:42 8,1 C 91 % 1029,2 hPa 0,0 l/m 5,6 km/h (1 Bft) SW 234 0 min 0,000 mm 0,0 UV-I 0 W/m 6,7 C 8,1 C 9,7 km/h (2 Bft) 100,00 %
30.10.2016 02:44 8,1 C 91 % 1029,1 hPa 0,0 l/m 6,6 km/h (2 Bft) W-SW 247 0 min 0,000 mm 0,0 UV-I 0 W/m 6,7 C 8,0 C 11,3 km/h (2 Bft) 98,08 %
30.10.2016 02:46 8,1 C 91 % 1029,2 hPa 0,0 l/m 7,5 km/h (2 Bft) W 267 0 min 0,000 mm 0,0 UV-I 0 W/m 6,7 C 7,2 C 12,9 km/h (3 Bft) 100,00 %
30.10.2016 02:48 8,1 C 91 % 1029,1 hPa 0,0 l/m 9,1 km/h (2 Bft) W-SW 239 0 min 0,000 mm 0,0 UV-I 0 W/m 6,7 C 6,1 C 12,9 km/h (3 Bft) 100,00 %
30.10.2016 02:50 8,1 C 91 % 1029,2 hPa 0,0 l/m 7,8 km/h (2 Bft) W-SW 254 0 min 0,000 mm 0,0 UV-I 0 W/m 6,7 C 7,0 C 11,3 km/h (2 Bft) 100,00 %
30.10.2016 02:52 8,1 C 91 % 1029,1 hPa 0,0 l/m 7,7 km/h (2 Bft) W-SW 252 0 min 0,000 mm 0,0 UV-I 0 W/m 6,7 C 7,1 C 11,3 km/h (2 Bft) 100,00 %
30.10.2016 02:54 8,1 C 90 % 1029,1 hPa 0,0 l/m 6,7 km/h (2 Bft) W-SW 244 0 min 0,000 mm 0,0 UV-I 0 W/m 6,6 C 7,9 C 11,3 km/h (2 Bft) 100,00 %
30.10.2016 02:56 8,0 C 90 % 1029,2 hPa 0,0 l/m 9,4 km/h (2 Bft) W-SW 244 0 min 0,000 mm 0,0 UV-I 0 W/m 6,5 C 5,8 C 12,9 km/h (3 Bft) 100,00 %
30.10.2016 02:58 8,1 C 90 % 1029,2 hPa 0,0 l/m 7,6 km/h (2 Bft) W-SW 256 0 min 0,000 mm 0,0 UV-I 0 W/m 6,6 C 7,2 C 11,3 km/h (2 Bft) 100,00 %
30.10.2016 03:00 8,1 C 90 % 1029,2 hPa 0,0 l/m 5,9 km/h (2 Bft) W-SW 244 0 min 0,000 mm 0,0 UV-I 0 W/m 6,6 C 8,1 C 11,3 km/h (2 Bft) 98,11 %
30.10.2016 03:02 8,0 C 90 % 1029,2 hPa 0,0 l/m 7,7 km/h (2 Bft) W 263 0 min 0,000 mm 0,0 UV-I 0 W/m 6,5 C 7,0 C 14,5 km/h (3 Bft) 100,00 %
30.10.2016 03:04 8,0 C 90 % 1029,3 hPa 0,0 l/m 4,6 km/h (1 Bft) W 259 0 min 0,000 mm 0,0 UV-I 0 W/m 6,5 C 8,0 C 11,3 km/h (2 Bft) 100,00 %
30.10.2016 03:06 8,0 C 90 % 1029,3 hPa 0,0 l/m 3,9 km/h (1 Bft) W-SW 250 0 min 0,000 mm 0,0 UV-I 0 W/m 6,5 C 8,0 C 6,4 km/h (2 Bft) 100,00 %
30.10.2016 03:08 8,0 C 90 % 1029,2 hPa 0,0 l/m 5,2 km/h (1 Bft) W-SW 255 0 min 0,000 mm 0,0 UV-I 0 W/m 6,5 C 8,0 C 11,3 km/h (2 Bft) 100,00 %
30.10.2016 03:10 7,9 C 90 % 1029,2 hPa 0,0 l/m 7,2 km/h (2 Bft) W-SW 251 0 min 0,000 mm 0,0 UV-I 0 W/m 6,4 C 7,3 C 11,3 km/h (2 Bft) 100,00 %
30.10.2016 03:12 7,9 C 90 % 1029,2 hPa 0,0 l/m 4,4 km/h (1 Bft) W 279 0 min 0,000 mm 0,0 UV-I 0 W/m 6,4 C 7,9 C 11,3 km/h (2 Bft) 100,00 %
30.10.2016 03:14 7,9 C 90 % 1029,2 hPa 0,0 l/m 4,6 km/h (1 Bft) W 263 0 min 0,000 mm 0,0 UV-I 0 W/m 6,4 C 7,9 C 6,4 km/h (2 Bft) 100,00 %
30.10.2016 03:16 7,9 C 90 % 1029,2 hPa 0,0 l/m 4,2 km/h (1 Bft) W 273 0 min 0,000 mm 0,0 UV-I 0 W/m 6,4 C 7,9 C 6,4 km/h (2 Bft) 100,00 %
30.10.2016 03:18 7,8 C 91 % 1029,2 hPa 0,0 l/m 3,7 km/h (1 Bft) W 274 0 min 0,000 mm 0,0 UV-I 0 W/m 6,4 C 7,8 C 6,4 km/h (2 Bft) 100,00 %
30.10.2016 03:20 7,8 C 91 % 1029,2 hPa 0,0 l/m 4,4 km/h (1 Bft) W-NW 286 0 min 0,000 mm 0,0 UV-I 0 W/m 6,4 C 7,8 C 6,4 km/h (2 Bft) 100,00 %
30.10.2016 03:22 7,8 C 91 % 1029,2 hPa 0,0 l/m 4,2 km/h (1 Bft) W-SW 254 0 min 0,000 mm 0,0 UV-I 0 W/m 6,4 C 7,8 C 8,0 km/h (2 Bft) 100,00 %
30.10.2016 03:24 7,8 C 91 % 1029,2 hPa 0,0 l/m 3,3 km/h (1 Bft) W 263 0 min 0,000 mm 0,0 UV-I 0 W/m 6,4 C 7,8 C 4,8 km/h (1 Bft) 98,00 %
30.10.2016 03:26 7,8 C 91 % 1029,2 hPa 0,0 l/m 4,4 km/h (1 Bft) W 263 0 min 0,000 mm 0,0 UV-I 0 W/m 6,4 C 7,8 C 4,8 km/h (1 Bft) 100,00 %
30.10.2016 03:28 7,7 C 91 % 1029,2 hPa 0,0 l/m 4,0 km/h (1 Bft) W 279 0 min 0,000 mm 0,0 UV-I 0 W/m 6,3 C 7,7 C 6,4 km/h (2 Bft) 97,87 %
30.10.2016 03:30 7,7 C 91 % 1029,3 hPa 0,0 l/m 5,3 km/h (1 Bft) W 263 0 min 0,000 mm 0,0 UV-I 0 W/m 6,3 C 7,7 C 11,3 km/h (2 Bft) 100,00 %
30.10.2016 03:32 7,7 C 91 % 1029,3 hPa 0,0 l/m 4,6 km/h (1 Bft) W-SW 254 0 min 0,000 mm 0,0 UV-I 0 W/m 6,3 C 7,7 C 6,4 km/h (2 Bft) 100,00 %
30.10.2016 03:34 7,7 C 91 % 1029,3 hPa 0,0 l/m 3,5 km/h (1 Bft) W 278 0 min 0,000 mm 0,0 UV-I 0 W/m 6,3 C 7,7 C 6,4 km/h (2 Bft) 100,00 %
30.10.2016 03:36 7,7 C 91 % 1029,3 hPa 0,0 l/m 5,5 km/h (1 Bft) W 279 0 min 0,000 mm 0,0 UV-I 0 W/m 6,3 C 7,7 C 9,7 km/h (2 Bft) 100,00 %
30.10.2016 03:38 7,7 C 91 % 1029,3 hPa 0,0 l/m 3,3 km/h (1 Bft) W 274 0 min 0,000 mm 0,0 UV-I 0 W/m 6,3 C 7,7 C 6,4 km/h (2 Bft) 100,00 %
30.10.2016 03:40 7,7 C 91 % 1029,2 hPa 0,0 l/m 5,3 km/h (1 Bft) W 262 0 min 0,000 mm 0,0 UV-I 0 W/m 6,3 C 7,7 C 9,7 km/h (2 Bft) 100,00 %
30.10.2016 03:42 7,8 C 91 % 1029,2 hPa 0,0 l/m 6,1 km/h (2 Bft) W-SW 246 0 min 0,000 mm 0,0 UV-I 0 W/m 6,4 C 7,8 C 12,9 km/h (3 Bft) 100,00 %
30.10.2016 03:44 7,8 C 91 % 1029,1 hPa 0,0 l/m 8,9 km/h (2 Bft) SW 229 0 min 0,000 mm 0,0 UV-I 0 W/m 6,4 C 5,9 C 16,1 km/h (3 Bft) 98,11 %
30.10.2016 03:46 7,8 C 91 % 1029,0 hPa 0,0 l/m 7,0 km/h (2 Bft) W 265 0 min 0,000 mm 0,0 UV-I 0 W/m 6,4 C 7,3 C 11,3 km/h (2 Bft) 97,37 %
30.10.2016 03:48 7,8 C 91 % 1029,1 hPa 0,0 l/m 9,4 km/h (2 Bft) W-SW 253 0 min 0,000 mm 0,0 UV-I 0 W/m 6,4 C 5,6 C 17,7 km/h (3 Bft) 100,00 %
30.10.2016 03:50 7,7 C 91 % 1029,1 hPa 0,0 l/m 6,5 km/h (2 Bft) W-SW 250 0 min 0,000 mm 0,0 UV-I 0 W/m 6,3 C 7,6 C 12,9 km/h (3 Bft) 97,37 %
30.10.2016 03:52 7,7 C 91 % 1029,1 hPa 0,0 l/m 5,6 km/h (1 Bft) W 271 0 min 0,000 mm 0,0 UV-I 0 W/m 6,3 C 7,7 C 8,0 km/h (2 Bft) 100,00 %
30.10.2016 03:54 7,7 C 91 % 1029,1 hPa 0,0 l/m 5,8 km/h (2 Bft) W-SW 250 0 min 0,000 mm 0,0 UV-I 0 W/m 6,3 C 7,7 C 9,7 km/h (2 Bft) 100,00 %
30.10.2016 03:56 7,7 C 91 % 1029,0 hPa 0,0 l/m 4,2 km/h (1 Bft) W 261 0 min 0,000 mm 0,0 UV-I 0 W/m 6,3 C 7,7 C 4,8 km/h (1 Bft) 100,00 %
30.10.2016 03:58 7,7 C 91 % 1029,1 hPa 0,0 l/m 3,8 km/h (1 Bft) W 263 0 min 0,000 mm 0,0 UV-I 0 W/m 6,3 C 7,7 C 6,4 km/h (2 Bft) 100,00 %
30.10.2016 04:00 7,7 C 91 % 1029,0 hPa 0,0 l/m 4,9 km/h (1 Bft) W 260 0 min 0,000 mm 0,0 UV-I 0 W/m 6,3 C 7,7 C 6,4 km/h (2 Bft) 100,00 %
30.10.2016 04:02 7,7 C 92 % 1029,1 hPa 0,0 l/m 3,8 km/h (1 Bft) W-SW 256 0 min 0,000 mm 0,0 UV-I 0 W/m 6,5 C 7,7 C 9,7 km/h (2 Bft) 100,00 %
30.10.2016 04:04 7,7 C 92 % 1029,1 hPa 0,0 l/m 5,9 km/h (2 Bft) W 261 0 min 0,000 mm 0,0 UV-I 0 W/m 6,5 C 7,7 C 9,7 km/h (2 Bft) 100,00 %
30.10.2016 04:06 7,7 C 92 % 1029,0 hPa 0,0 l/m 6,0 km/h (2 Bft) W-SW 244 0 min 0,000 mm 0,0 UV-I 0 W/m 6,5 C 7,7 C 11,3 km/h (2 Bft) 98,00 %
30.10.2016 04:08 7,7 C 92 % 1029,0 hPa 0,0 l/m 5,1 km/h (1 Bft) W-SW 249 0 min 0,000 mm 0,0 UV-I 0 W/m 6,5 C 7,7 C 8,0 km/h (2 Bft) 100,00 %
30.10.2016 04:10 7,6 C 92 % 1029,0 hPa 0,0 l/m 6,1 km/h (2 Bft) W-SW 258 0 min 0,000 mm 0,0 UV-I 0 W/m 6,4 C 7,6 C 8,0 km/h (2 Bft) 91,49 %
30.10.2016 04:12 7,6 C 92 % 1029,1 hPa 0,0 l/m 5,0 km/h (1 Bft) W 261 0 min 0,000 mm 0,0 UV-I 0 W/m 6,4 C 7,6 C 6,4 km/h (2 Bft) 97,56 %
30.10.2016 04:14 7,6 C 92 % 1029,1 hPa 0,0 l/m 4,6 km/h (1 Bft) W-SW 256 0 min 0,000 mm 0,0 UV-I 0 W/m 6,4 C 7,6 C 6,4 km/h (2 Bft) 97,56 %
30.10.2016 04:16 7,6 C 92 % 1029,2 hPa 0,0 l/m 3,7 km/h (1 Bft) W-SW 256 0 min 0,000 mm 0,0 UV-I 0 W/m 6,4 C 7,6 C 4,8 km/h (1 Bft) 95,38 %
30.10.2016 04:18 7,6 C 92 % 1029,2 hPa 0,0 l/m 4,6 km/h (1 Bft) W-SW 253 0 min 0,000 mm 0,0 UV-I 0 W/m 6,4 C 7,6 C 6,4 km/h (2 Bft) 97,37 %
30.10.2016 04:20 7,6 C 92 % 1029,2 hPa 0,0 l/m 4,3 km/h (1 Bft) W-SW 258 0 min 0,000 mm 0,0 UV-I 0 W/m 6,4 C 7,6 C 6,4 km/h (2 Bft) 98,11 %
30.10.2016 04:22 7,6 C 92 % 1029,1 hPa 0,0 l/m 6,3 km/h (2 Bft) W-SW 252 0 min 0,000 mm 0,0 UV-I 0 W/m 6,4 C 7,6 C 11,3 km/h (2 Bft) 97,87 %
30.10.2016 04:24 7,6 C 92 % 1029,1 hPa 0,0 l/m 5,3 km/h (1 Bft) W-SW 257 0 min 0,000 mm 0,0 UV-I 0 W/m 6,4 C 7,6 C 6,4 km/h (2 Bft) 97,73 %
30.10.2016 04:26 7,6 C 92 % 1029,1 hPa 0,0 l/m 3,5 km/h (1 Bft) W 259 0 min 0,000 mm 0,0 UV-I 0 W/m 6,4 C 7,6 C 6,4 km/h (2 Bft) 96,00 %
30.10.2016 04:28 7,6 C 92 % 1029,1 hPa 0,0 l/m 5,2 km/h (1 Bft) W-SW 252 0 min 0,000 mm 0,0 UV-I 0 W/m 6,4 C 7,6 C 8,0 km/h (2 Bft) 97,73 %
30.10.2016 04:30 7,6 C 92 % 1029,1 hPa 0,0 l/m 5,4 km/h (1 Bft) W 271 0 min 0,000 mm 0,0 UV-I 0 W/m 6,4 C 7,6 C 9,7 km/h (2 Bft) 97,56 %
30.10.2016 04:32 7,6 C 92 % 1029,1 hPa 0,0 l/m 4,4 km/h (1 Bft) W-NW 296 0 min 0,000 mm 0,0 UV-I 0 W/m 6,4 C 7,6 C 6,4 km/h (2 Bft) 98,00 %
30.10.2016 04:34 7,6 C 92 % 1029,0 hPa 0,0 l/m 6,5 km/h (2 Bft) W 267 0 min 0,000 mm 0,0 UV-I 0 W/m 6,4 C 7,5 C 12,9 km/h (3 Bft) 97,87 %
30.10.2016 04:36 7,6 C 92 % 1029,0 hPa 0,0 l/m 5,3 km/h (1 Bft) W 276 0 min 0,000 mm 0,0 UV-I 0 W/m 6,4 C 7,6 C 9,7 km/h (2 Bft) 98,00 %
30.10.2016 04:38 7,5 C 92 % 1028,9 hPa 0,0 l/m 7,0 km/h (2 Bft) W-SW 256 0 min 0,000 mm 0,0 UV-I 0 W/m 6,3 C 7,0 C 11,3 km/h (2 Bft) 96,30 %
30.10.2016 04:40 7,5 C 92 % 1029,0 hPa 0,0 l/m 6,9 km/h (2 Bft) W-SW 247 0 min 0,000 mm 0,0 UV-I 0 W/m 6,3 C 7,1 C 11,3 km/h (2 Bft) 98,39 %
30.10.2016 04:42 7,5 C 92 % 1028,9 hPa 0,0 l/m 8,1 km/h (2 Bft) W-SW 239 0 min 0,000 mm 0,0 UV-I 0 W/m 6,3 C 6,2 C 11,3 km/h (2 Bft) 97,56 %
30.10.2016 04:44 7,5 C 92 % 1028,9 hPa 0,0 l/m 6,3 km/h (2 Bft) W 266 0 min 0,000 mm 0,0 UV-I 0 W/m 6,3 C 7,5 C 9,7 km/h (2 Bft) 98,21 %
30.10.2016 04:46 7,5 C 92 % 1028,9 hPa 0,0 l/m 8,1 km/h (2 Bft) W-SW 256 0 min 0,000 mm 0,0 UV-I 0 W/m 6,3 C 6,2 C 14,5 km/h (3 Bft) 100,00 %
30.10.2016 04:48 7,5 C 92 % 1029,0 hPa 0,0 l/m 8,0 km/h (2 Bft) W 266 0 min 0,000 mm 0,0 UV-I 0 W/m 6,3 C 6,2 C 11,3 km/h (2 Bft) 97,44 %
30.10.2016 04:50 7,5 C 92 % 1029,0 hPa 0,0 l/m 10,2 km/h (2 Bft) W-SW 238 0 min 0,000 mm 0,0 UV-I 0 W/m 6,3 C 4,7 C 16,1 km/h (3 Bft) 100,00 %
30.10.2016 04:52 7,5 C 92 % 1029,0 hPa 0,0 l/m 8,0 km/h (2 Bft) W 266 0 min 0,000 mm 0,0 UV-I 0 W/m 6,3 C 6,2 C 11,3 km/h (2 Bft) 100,00 %
30.10.2016 04:54 7,5 C 92 % 1029,0 hPa 0,0 l/m 9,5 km/h (2 Bft) W-SW 253 0 min 0,000 mm 0,0 UV-I 0 W/m 6,3 C 5,2 C 14,5 km/h (3 Bft) 96,23 %
30.10.2016 04:56 7,5 C 92 % 1029,1 hPa 0,0 l/m 6,2 km/h (2 Bft) W 261 0 min 0,000 mm 0,0 UV-I 0 W/m 6,3 C 7,5 C 11,3 km/h (2 Bft) 100,00 %
30.10.2016 04:58 7,5 C 92 % 1029,0 hPa 0,0 l/m 8,6 km/h (2 Bft) W 265 0 min 0,000 mm 0,0 UV-I 0 W/m 6,3 C 5,8 C 12,9 km/h (3 Bft) 100,00 %
30.10.2016 05:00 7,5 C 92 % 1029,1 hPa 0,0 l/m 5,0 km/h (1 Bft) W 269 0 min 0,000 mm 0,0 UV-I 0 W/m 6,3 C 7,5 C 9,7 km/h (2 Bft) 100,00 %
30.10.2016 05:02 7,5 C 92 % 1029,0 hPa 0,0 l/m 4,1 km/h (1 Bft) W 266 0 min 0,000 mm 0,0 UV-I 0 W/m 6,3 C 7,5 C 9,7 km/h (2 Bft) 100,00 %
30.10.2016 05:04 7,5 C 92 % 1029,0 hPa 0,0 l/m 3,6 km/h (1 Bft) W 271 0 min 0,000 mm 0,0 UV-I 0 W/m 6,3 C 7,5 C 6,4 km/h (2 Bft) 100,00 %
30.10.2016 05:06 7,5 C 92 % 1029,0 hPa 0,0 l/m 5,3 km/h (1 Bft) W-SW 248 0 min 0,000 mm 0,0 UV-I 0 W/m 6,3 C 7,5 C 9,7 km/h (2 Bft) 100,00 %
30.10.2016 05:08 7,5 C 92 % 1029,0 hPa 0,0 l/m 4,2 km/h (1 Bft) W 269 0 min 0,000 mm 0,0 UV-I 0 W/m 6,3 C 7,5 C 6,4 km/h (2 Bft) 97,87 %
30.10.2016 05:10 7,4 C 92 % 1029,0 hPa 0,0 l/m 3,4 km/h (1 Bft) W 269 0 min 0,000 mm 0,0 UV-I 0 W/m 6,2 C 7,4 C 4,8 km/h (1 Bft) 97,87 %
30.10.2016 05:12 7,4 C 92 % 1029,0 hPa 0,0 l/m 4,2 km/h (1 Bft) W-SW 250 0 min 0,000 mm 0,0 UV-I 0 W/m 6,2 C 7,4 C 6,4 km/h (2 Bft) 100,00 %
30.10.2016 05:14 7,4 C 92 % 1029,0 hPa 0,0 l/m 5,0 km/h (1 Bft) W 279 0 min 0,000 mm 0,0 UV-I 0 W/m 6,2 C 7,4 C 9,7 km/h (2 Bft) 98,31 %
30.10.2016 05:16 7,4 C 92 % 1029,0 hPa 0,0 l/m 3,2 km/h (1 Bft) W 279 0 min 0,000 mm 0,0 UV-I 0 W/m 6,2 C 7,4 C 4,8 km/h (1 Bft) 100,00 %
30.10.2016 05:18 7,4 C 92 % 1029,0 hPa 0,0 l/m 3,8 km/h (1 Bft) W-SW 257 0 min 0,000 mm 0,0 UV-I 0 W/m 6,2 C 7,4 C 8,0 km/h (2 Bft) 100,00 %
30.10.2016 05:20 7,4 C 92 % 1029,1 hPa 0,0 l/m 2,8 km/h (1 Bft) W 267 0 min 0,000 mm 0,0 UV-I 0 W/m 6,2 C 7,4 C 4,8 km/h (1 Bft) 100,00 %
30.10.2016 05:22 7,4 C 92 % 1029,1 hPa 0,0 l/m 3,4 km/h (1 Bft) W-SW 255 0 min 0,000 mm 0,0 UV-I 0 W/m 6,2 C 7,4 C 4,8 km/h (1 Bft) 100,00 %
30.10.2016 05:24 7,4 C 92 % 1029,1 hPa 0,0 l/m 4,0 km/h (1 Bft) W-SW 254 0 min 0,000 mm 0,0 UV-I 0 W/m 6,2 C 7,4 C 4,8 km/h (1 Bft) 98,00 %
30.10.2016 05:26 7,3 C 92 % 1029,1 hPa 0,0 l/m 4,9 km/h (1 Bft) W-NW 290 0 min 0,000 mm 0,0 UV-I 0 W/m 6,1 C 7,3 C 6,4 km/h (2 Bft) 100,00 %
30.10.2016 05:28 7,3 C 92 % 1029,0 hPa 0,0 l/m 7,3 km/h (2 Bft) W-SW 242 0 min 0,000 mm 0,0 UV-I 0 W/m 6,1 C 6,6 C 11,3 km/h (2 Bft) 100,00 %
30.10.2016 05:30 7,4 C 92 % 1029,0 hPa 0,0 l/m 5,8 km/h (2 Bft) W-SW 240 0 min 0,000 mm 0,0 UV-I 0 W/m 6,2 C 7,4 C 11,3 km/h (2 Bft) 100,00 %
30.10.2016 05:32 7,4 C 91 % 1029,0 hPa 0,0 l/m 5,2 km/h (1 Bft) W 259 0 min 0,000 mm 0,0 UV-I 0 W/m 6,0 C 7,4 C 9,7 km/h (2 Bft) 100,00 %
30.10.2016 05:34 7,4 C 91 % 1029,0 hPa 0,0 l/m 5,6 km/h (1 Bft) W-SW 257 0 min 0,000 mm 0,0 UV-I 0 W/m 6,0 C 7,4 C 11,3 km/h (2 Bft) 97,87 %
30.10.2016 05:36 7,4 C 91 % 1029,0 hPa 0,0 l/m 2,8 km/h (1 Bft) W-SW 256 0 min 0,000 mm 0,0 UV-I 0 W/m 6,0 C 7,4 C 4,8 km/h (1 Bft) 100,00 %
30.10.2016 05:38 7,4 C 91 % 1029,1 hPa 0,0 l/m 3,5 km/h (1 Bft) W 275 0 min 0,000 mm 0,0 UV-I 0 W/m 6,0 C 7,4 C 6,4 km/h (2 Bft) 95,12 %
30.10.2016 05:40 7,4 C 91 % 1029,1 hPa 0,0 l/m 4,9 km/h (1 Bft) W-NW 286 0 min 0,000 mm 0,0 UV-I 0 W/m 6,0 C 7,4 C 11,3 km/h (2 Bft) 100,00 %
30.10.2016 05:42 7,4 C 91 % 1029,1 hPa 0,0 l/m 2,5 km/h (1 Bft) W-NW 286 0 min 0,000 mm 0,0 UV-I 0 W/m 6,0 C 7,4 C 4,8 km/h (1 Bft) 100,00 %
30.10.2016 05:44 7,4 C 91 % 1029,0 hPa 0,0 l/m 5,4 km/h (1 Bft) W-SW 254 0 min 0,000 mm 0,0 UV-I 0 W/m 6,0 C 7,4 C 9,7 km/h (2 Bft) 98,00 %
30.10.2016 05:46 7,4 C 91 % 1029,0 hPa 0,0 l/m 6,1 km/h (2 Bft) W-SW 257 0 min 0,000 mm 0,0 UV-I 0 W/m 6,0 C 7,4 C 9,7 km/h (2 Bft) 100,00 %
30.10.2016 05:48 7,4 C 91 % 1029,0 hPa 0,0 l/m 6,3 km/h (2 Bft) W-SW 249 0 min 0,000 mm 0,0 UV-I 0 W/m 6,0 C 7,4 C 11,3 km/h (2 Bft) 98,00 %
30.10.2016 05:50 7,4 C 91 % 1028,9 hPa 0,0 l/m 6,0 km/h (2 Bft) W-SW 255 0 min 0,000 mm 0,0 UV-I 0 W/m 6,0 C 7,4 C 9,7 km/h (2 Bft) 100,00 %
30.10.2016 05:52 7,4 C 91 % 1028,9 hPa 0,0 l/m 6,1 km/h (2 Bft) W 262 0 min 0,000 mm 0,0 UV-I 0 W/m 6,0 C 7,4 C 9,7 km/h (2 Bft) 100,00 %
30.10.2016 05:54 7,4 C 91 % 1028,9 hPa 0,0 l/m 6,4 km/h (2 Bft) W-SW 258 0 min 0,000 mm 0,0 UV-I 0 W/m 6,0 C 7,4 C 11,3 km/h (2 Bft) 100,00 %
30.10.2016 05:56 7,4 C 91 % 1028,9 hPa 0,0 l/m 5,4 km/h (1 Bft) W-SW 250 0 min 0,000 mm 0,0 UV-I 0 W/m 6,0 C 7,4 C 9,7 km/h (2 Bft) 100,00 %
30.10.2016 05:58 7,4 C 91 % 1028,9 hPa 0,0 l/m 6,1 km/h (2 Bft) W 273 0 min 0,000 mm 0,0 UV-I 0 W/m 6,0 C 7,4 C 11,3 km/h (2 Bft) 100,00 %
30.10.2016 06:00 7,4 C 91 % 1028,9 hPa 0,0 l/m 6,2 km/h (2 Bft) W 269 0 min 0,000 mm 0,0 UV-I 0 W/m 6,0 C 7,4 C 9,7 km/h (2 Bft) 100,00 %
30.10.2016 06:02 7,4 C 91 % 1028,8 hPa 0,0 l/m 6,2 km/h (2 Bft) W 259 0 min 0,000 mm 0,0 UV-I 0 W/m 6,0 C 7,4 C 11,3 km/h (2 Bft) 100,00 %
30.10.2016 06:04 7,4 C 91 % 1028,8 hPa 0,0 l/m 8,7 km/h (2 Bft) W 269 0 min 0,000 mm 0,0 UV-I 0 W/m 6,0 C 5,6 C 11,3 km/h (2 Bft) 100,00 %
30.10.2016 06:06 7,4 C 91 % 1028,8 hPa 0,0 l/m 4,9 km/h (1 Bft) W 265 0 min 0,000 mm 0,0 UV-I 0 W/m 6,0 C 7,4 C 8,0 km/h (2 Bft) 97,96 %
30.10.2016 06:08 7,4 C 91 % 1028,8 hPa 0,0 l/m 6,0 km/h (2 Bft) W 260 0 min 0,000 mm 0,0 UV-I 0 W/m 6,0 C 7,4 C 9,7 km/h (2 Bft) 97,44 %
30.10.2016 06:10 7,4 C 91 % 1028,8 hPa 0,0 l/m 6,3 km/h (2 Bft) W 274 0 min 0,000 mm 0,0 UV-I 0 W/m 6,0 C 7,4 C 9,7 km/h (2 Bft) 100,00 %
30.10.2016 06:12 7,4 C 91 % 1028,9 hPa 0,0 l/m 6,2 km/h (2 Bft) W 265 0 min 0,000 mm 0,0 UV-I 0 W/m 6,0 C 7,4 C 9,7 km/h (2 Bft) 97,78 %
30.10.2016 06:14 7,3 C 91 % 1028,9 hPa 0,0 l/m 5,5 km/h (1 Bft) W 266 0 min 0,000 mm 0,0 UV-I 0 W/m 5,9 C 7,3 C 11,3 km/h (2 Bft) 96,43 %
30.10.2016 06:16 7,3 C 91 % 1028,9 hPa 0,0 l/m 3,5 km/h (1 Bft) W 259 0 min 0,000 mm 0,0 UV-I 0 W/m 5,9 C 7,3 C 6,4 km/h (2 Bft) 98,11 %
30.10.2016 06:18 7,3 C 91 % 1029,0 hPa 0,0 l/m 5,1 km/h (1 Bft) W 266 0 min 0,000 mm 0,0 UV-I 0 W/m 5,9 C 7,3 C 9,7 km/h (2 Bft) 95,12 %
30.10.2016 06:20 7,3 C 91 % 1029,0 hPa 0,0 l/m 5,1 km/h (1 Bft) W 265 0 min 0,000 mm 0,0 UV-I 0 W/m 5,9 C 7,3 C 9,7 km/h (2 Bft) 97,87 %
30.10.2016 06:22 7,3 C 91 % 1029,1 hPa 0,0 l/m 5,4 km/h (1 Bft) W-SW 243 0 min 0,000 mm 0,0 UV-I 0 W/m 5,9 C 7,3 C 12,9 km/h (3 Bft) 98,00 %
30.10.2016 06:24 7,3 C 91 % 1029,0 hPa 0,0 l/m 5,2 km/h (1 Bft) W 278 0 min 0,000 mm 0,0 UV-I 0 W/m 5,9 C 7,3 C 9,7 km/h (2 Bft) 97,73 %
30.10.2016 06:26 7,3 C 90 % 1028,8 hPa 0,0 l/m 5,1 km/h (1 Bft) W-SW 246 0 min 0,000 mm 0,0 UV-I 0 W/m 5,8 C 7,3 C 8,0 km/h (2 Bft) 98,00 %
30.10.2016 06:28 7,3 C 91 % 1028,7 hPa 0,0 l/m 5,6 km/h (1 Bft) W-SW 239 0 min 0,000 mm 0,0 UV-I 0 W/m 5,9 C 7,3 C 9,7 km/h (2 Bft) 96,00 %
30.10.2016 06:30 7,3 C 90 % 1028,8 hPa 0,0 l/m 3,3 km/h (1 Bft) SW 229 0 min 0,000 mm 0,0 UV-I 0 W/m 5,8 C 7,3 C 6,4 km/h (2 Bft) 97,37 %
30.10.2016 06:32 7,3 C 91 % 1028,8 hPa 0,0 l/m 4,6 km/h (1 Bft) W 278 0 min 0,000 mm 0,0 UV-I 0 W/m 5,9 C 7,3 C 6,4 km/h (2 Bft) 97,87 %
30.10.2016 06:34 7,3 C 91 % 1028,9 hPa 0,0 l/m 5,4 km/h (1 Bft) W-SW 240 0 min 0,000 mm 0,0 UV-I 0 W/m 5,9 C 7,3 C 9,7 km/h (2 Bft) 98,00 %
30.10.2016 06:36 7,3 C 91 % 1028,9 hPa 0,0 l/m 5,3 km/h (1 Bft) W 277 0 min 0,000 mm 0,0 UV-I 0 W/m 5,9 C 7,3 C 9,7 km/h (2 Bft) 97,87 %
30.10.2016 06:38 7,3 C 91 % 1028,9 hPa 0,0 l/m 5,5 km/h (1 Bft) W-SW 254 0 min 0,000 mm 0,0 UV-I 4 W/m 5,9 C 7,3 C 9,7 km/h (2 Bft) 96,00 %
30.10.2016 06:40 7,3 C 91 % 1028,8 hPa 0,0 l/m 4,9 km/h (1 Bft) W 278 0 min 0,000 mm 0,0 UV-I 5 W/m 5,9 C 7,3 C 8,0 km/h (2 Bft) 97,44 %
30.10.2016 06:42 7,3 C 91 % 1028,8 hPa 0,0 l/m 5,7 km/h (1 Bft) W-SW 250 0 min 0,000 mm 0,0 UV-I 5 W/m 5,9 C 7,3 C 8,0 km/h (2 Bft) 98,00 %
30.10.2016 06:44 7,3 C 90 % 1028,7 hPa 0,0 l/m 4,9 km/h (1 Bft) W-SW 254 0 min 0,000 mm 0,0 UV-I 5 W/m 5,8 C 7,3 C 8,0 km/h (2 Bft) 96,15 %
30.10.2016 06:46 7,3 C 91 % 1028,6 hPa 0,0 l/m 5,5 km/h (1 Bft) W-SW 255 0 min 0,000 mm 0,0 UV-I 5 W/m 5,9 C 7,3 C 6,4 km/h (2 Bft) 100,00 %
30.10.2016 06:48 7,3 C 91 % 1028,7 hPa 0,0 l/m 5,5 km/h (1 Bft) W-SW 237 0 min 0,000 mm 0,0 UV-I 6 W/m 5,9 C 7,3 C 6,4 km/h (2 Bft) 100,00 %
30.10.2016 06:50 7,3 C 90 % 1028,7 hPa 0,0 l/m 5,9 km/h (2 Bft) W-SW 257 0 min 0,000 mm 0,0 UV-I 7 W/m 5,8 C 7,3 C 9,7 km/h (2 Bft) 97,87 %
30.10.2016 06:52 7,3 C 91 % 1028,8 hPa 0,0 l/m 4,6 km/h (1 Bft) W 268 0 min 0,000 mm 0,0 UV-I 7 W/m 5,9 C 7,3 C 6,4 km/h (2 Bft) 100,00 %
30.10.2016 06:54 7,3 C 90 % 1028,8 hPa 0,0 l/m 3,3 km/h (1 Bft) W 270 0 min 0,000 mm 0,0 UV-I 7 W/m 5,8 C 7,3 C 6,4 km/h (2 Bft) 98,11 %
30.10.2016 06:56 7,3 C 91 % 1028,9 hPa 0,0 l/m 2,7 km/h (1 Bft) W-SW 254 0 min 0,000 mm 0,0 UV-I 7 W/m 5,9 C 7,3 C 6,4 km/h (2 Bft) 100,00 %
30.10.2016 06:58 7,3 C 91 % 1028,9 hPa 0,0 l/m 3,4 km/h (1 Bft) W-SW 254 0 min 0,000 mm 0,0 UV-I 7 W/m 5,9 C 7,3 C 4,8 km/h (1 Bft) 100,00 %
30.10.2016 07:00 7,2 C 91 % 1028,9 hPa 0,0 l/m 1,5 km/h (1 Bft) W-SW 254 0 min 0,000 mm 0,0 UV-I 7 W/m 5,8 C 7,2 C 3,2 km/h (1 Bft) 100,00 %
30.10.2016 07:02 7,2 C 92 % 1028,9 hPa 0,0 l/m 6,3 km/h (2 Bft) W-SW 244 0 min 0,000 mm 0,0 UV-I 8 W/m 6,0 C 7,2 C 8,0 km/h (2 Bft) 97,87 %
30.10.2016 07:04 7,2 C 91 % 1028,9 hPa 0,0 l/m 4,0 km/h (1 Bft) W 275 0 min 0,000 mm 0,0 UV-I 9 W/m 5,8 C 7,2 C 6,4 km/h (2 Bft) 100,00 %
30.10.2016 07:06 7,2 C 91 % 1029,0 hPa 0,0 l/m 2,1 km/h (1 Bft) W 279 0 min 0,000 mm 0,0 UV-I 9 W/m 5,8 C 7,2 C 4,8 km/h (1 Bft) 100,00 %
30.10.2016 07:08 7,2 C 91 % 1029,0 hPa 0,0 l/m 2,5 km/h (1 Bft) W-NW 290 0 min 0,000 mm 0,0 UV-I 9 W/m 5,8 C 7,2 C 4,8 km/h (1 Bft) 100,00 %
30.10.2016 07:10 7,2 C 92 % 1029,1 hPa 0,0 l/m 0,8 km/h (0 Bft) W-NW 290 0 min 0,000 mm 0,0 UV-I 10 W/m 6,0 C 7,2 C 3,2 km/h (1 Bft) 100,00 %
30.10.2016 07:12 7,2 C 93 % 1029,2 hPa 0,0 l/m 0,2 km/h (0 Bft) W-NW 290 0 min 0,000 mm 0,0 UV-I 11 W/m 6,1 C 7,2 C 1,6 km/h (1 Bft) 100,00 %
30.10.2016 07:14 7,1 C 93 % 1029,2 hPa 0,0 l/m 0,1 km/h (0 Bft) W-NW 290 0 min 0,000 mm 0,0 UV-I 11 W/m 6,0 C 7,1 C 1,6 km/h (1 Bft) 100,00 %
30.10.2016 07:16 7,1 C 93 % 1029,3 hPa 0,0 l/m 0,2 km/h (0 Bft) W-NW 290 0 min 0,000 mm 0,0 UV-I 12 W/m 6,0 C 7,1 C 1,6 km/h (1 Bft) 100,00 %
30.10.2016 07:18 7,1 C 93 % 1029,3 hPa 0,0 l/m 0,0 km/h (0 Bft) W-NW 290 0 min 0,000 mm 0,0 UV-I 14 W/m 6,0 C 7,1 C 0,0 km/h (0 Bft) 100,00 %
30.10.2016 07:20 7,0 C 93 % 1029,3 hPa 0,0 l/m 0,0 km/h (0 Bft) W-NW 290 0 min 0,000 mm 0,0 UV-I 14 W/m 5,9 C 7,0 C 0,0 km/h (0 Bft) 100,00 %
30.10.2016 07:22 7,0 C 93 % 1029,3 hPa 0,0 l/m 0,0 km/h (0 Bft) W-NW 290 0 min 0,000 mm 0,0 UV-I 14 W/m 5,9 C 7,0 C 1,6 km/h (1 Bft) 100,00 %
30.10.2016 07:24 7,0 C 93 % 1029,3 hPa 0,0 l/m 0,0 km/h (0 Bft) W-NW 290 0 min 0,000 mm 0,0 UV-I 16 W/m 5,9 C 7,0 C 0,0 km/h (0 Bft) 100,00 %
30.10.2016 07:26 7,0 C 93 % 1029,3 hPa 0,0 l/m 0,1 km/h (0 Bft) W-NW 290 0 min 0,000 mm 0,0 UV-I 19 W/m 5,9 C 7,0 C 1,6 km/h (1 Bft) 94,23 %
30.10.2016 07:28 7,0 C 93 % 1029,3 hPa 0,0 l/m 0,3 km/h (0 Bft) W-NW 290 0 min 0,000 mm 0,0 UV-I 19 W/m 5,9 C 7,0 C 1,6 km/h (1 Bft) 91,11 %
30.10.2016 07:30 7,1 C 93 % 1029,4 hPa 0,0 l/m 0,2 km/h (0 Bft) W-NW 290 0 min 0,000 mm 0,0 UV-I 21 W/m 6,0 C 7,1 C 1,6 km/h (1 Bft) 100,00 %
30.10.2016 07:32 7,1 C 93 % 1029,4 hPa 0,0 l/m 0,1 km/h (0 Bft) W-NW 290 0 min 0,000 mm 0,0 UV-I 21 W/m 6,0 C 7,1 C 1,6 km/h (1 Bft) 100,00 %
30.10.2016 07:34 7,1 C 93 % 1029,4 hPa 0,0 l/m 0,2 km/h (0 Bft) W-NW 290 0 min 0,000 mm 0,0 UV-I 24 W/m 6,0 C 7,1 C 1,6 km/h (1 Bft) 97,87 %
30.10.2016 07:36 7,1 C 93 % 1029,4 hPa 0,0 l/m 2,4 km/h (1 Bft) W-NW 290 0 min 0,000 mm 0,0 UV-I 30 W/m 6,0 C 7,1 C 4,8 km/h (1 Bft) 100,00 %
30.10.2016 07:38 7,1 C 93 % 1029,3 hPa 0,0 l/m 3,4 km/h (1 Bft) W 279 0 min 0,000 mm 0,0 UV-I 33 W/m 6,0 C 7,1 C 6,4 km/h (2 Bft) 100,00 %
30.10.2016 07:40 7,1 C 93 % 1029,3 hPa 0,0 l/m 1,8 km/h (1 Bft) W-NW 294 0 min 0,000 mm 0,0 UV-I 34 W/m 6,0 C 7,1 C 4,8 km/h (1 Bft) 97,56 %
30.10.2016 07:42 7,2 C 93 % 1029,3 hPa 0,0 l/m 1,6 km/h (1 Bft) W-NW 294 0 min 0,000 mm 0,0 UV-I 37 W/m 6,1 C 7,2 C 3,2 km/h (1 Bft) 98,00 %
30.10.2016 07:44 7,2 C 92 % 1029,4 hPa 0,0 l/m 1,2 km/h (1 Bft) W-NW 294 0 min 0,000 mm 0,0 UV-I 39 W/m 6,0 C 7,2 C 3,2 km/h (1 Bft) 100,00 %
30.10.2016 07:46 7,2 C 92 % 1029,4 hPa 0,0 l/m 2,4 km/h (1 Bft) W-NW 292 0 min 0,000 mm 0,0 UV-I 40 W/m 6,0 C 7,2 C 4,8 km/h (1 Bft) 100,00 %
30.10.2016 07:48 7,2 C 92 % 1029,4 hPa 0,0 l/m 1,8 km/h (1 Bft) W-NW 292 0 min 0,000 mm 0,0 UV-I 42 W/m 6,0 C 7,2 C 3,2 km/h (1 Bft) 100,00 %
30.10.2016 07:50 7,2 C 92 % 1029,5 hPa 0,0 l/m 2,7 km/h (1 Bft) W-NW 290 0 min 0,000 mm 0,0 UV-I 41 W/m 6,0 C 7,2 C 4,8 km/h (1 Bft) 100,00 %
30.10.2016 07:52 7,2 C 92 % 1029,5 hPa 0,0 l/m 1,2 km/h (1 Bft) W-NW 290 0 min 0,000 mm 0,0 UV-I 40 W/m 6,0 C 7,2 C 3,2 km/h (1 Bft) 98,11 %
30.10.2016 07:54 7,2 C 92 % 1029,5 hPa 0,0 l/m 1,5 km/h (1 Bft) W-NW 297 0 min 0,000 mm 0,0 UV-I 40 W/m 6,0 C 7,2 C 4,8 km/h (1 Bft) 100,00 %
30.10.2016 07:56 7,3 C 92 % 1029,5 hPa 0,0 l/m 2,9 km/h (1 Bft) W-NW 297 0 min 0,000 mm 0,0 UV-I 42 W/m 6,1 C 7,3 C 4,8 km/h (1 Bft) 100,00 %
30.10.2016 07:58 7,3 C 92 % 1029,5 hPa 0,0 l/m 3,0 km/h (1 Bft) W-NW 294 0 min 0,000 mm 0,0 UV-I 46 W/m 6,1 C 7,3 C 6,4 km/h (2 Bft) 100,00 %
30.10.2016 08:00 7,3 C 91 % 1029,5 hPa 0,0 l/m 2,5 km/h (1 Bft) W-NW 292 0 min 0,000 mm 0,0 UV-I 46 W/m 5,9 C 7,3 C 3,2 km/h (1 Bft) 100,00 %
30.10.2016 08:02 7,3 C 91 % 1029,6 hPa 0,0 l/m 1,3 km/h (1 Bft) W-NW 292 0 min 0,000 mm 0,0 UV-I 48 W/m 5,9 C 7,3 C 3,2 km/h (1 Bft) 97,14 %
30.10.2016 08:04 7,3 C 91 % 1029,6 hPa 0,0 l/m 1,3 km/h (1 Bft) W-NW 292 0 min 0,000 mm 0,0 UV-I 53 W/m 5,9 C 7,3 C 3,2 km/h (1 Bft) 96,92 %
30.10.2016 08:06 7,3 C 92 % 1029,6 hPa 0,0 l/m 2,4 km/h (1 Bft) W-SW 251 0 min 0,000 mm 0,0 UV-I 50 W/m 6,1 C 7,3 C 4,8 km/h (1 Bft) 100,00 %
30.10.2016 08:08 7,3 C 91 % 1029,6 hPa 0,0 l/m 2,0 km/h (1 Bft) W 263 0 min 0,000 mm 0,0 UV-I 59 W/m 5,9 C 7,3 C 4,8 km/h (1 Bft) 100,00 %
30.10.2016 08:10 7,3 C 91 % 1029,6 hPa 0,0 l/m 2,1 km/h (1 Bft) W 263 0 min 0,000 mm 0,0 UV-I 54 W/m 5,9 C 7,3 C 4,8 km/h (1 Bft) 94,34 %
30.10.2016 08:12 7,3 C 91 % 1029,6 hPa 0,0 l/m 4,0 km/h (1 Bft) W 275 0 min 0,000 mm 0,0 UV-I 56 W/m 5,9 C 7,3 C 6,4 km/h (2 Bft) 100,00 %
30.10.2016 08:14 7,4 C 91 % 1029,6 hPa 0,0 l/m 2,0 km/h (1 Bft) W 275 0 min 0,000 mm 0,0 UV-I 66 W/m 6,0 C 7,4 C 4,8 km/h (1 Bft) 100,00 %
30.10.2016 08:16 7,4 C 91 % 1029,5 hPa 0,0 l/m 3,0 km/h (1 Bft) W 275 0 min 0,000 mm 0,0 UV-I 80 W/m 6,0 C 7,4 C 4,8 km/h (1 Bft) 98,00 %
30.10.2016 08:18 7,4 C 91 % 1029,5 hPa 0,0 l/m 2,8 km/h (1 Bft) W 275 0 min 0,000 mm 0,0 UV-I 81 W/m 6,0 C 7,4 C 4,8 km/h (1 Bft) 97,37 %
30.10.2016 08:20 7,4 C 91 % 1029,5 hPa 0,0 l/m 4,6 km/h (1 Bft) W-SW 251 0 min 0,000 mm 0,0 UV-I 77 W/m 6,0 C 7,4 C 6,4 km/h (2 Bft) 97,87 %
30.10.2016 08:22 7,4 C 91 % 1029,5 hPa 0,0 l/m 4,5 km/h (1 Bft) W-SW 246 0 min 0,000 mm 0,0 UV-I 80 W/m 6,0 C 7,4 C 6,4 km/h (2 Bft) 97,87 %
30.10.2016 08:24 7,5 C 91 % 1029,5 hPa 0,0 l/m 4,9 km/h (1 Bft) W-SW 250 0 min 0,000 mm 0,0 UV-I 90 W/m 6,1 C 7,5 C 8,0 km/h (2 Bft) 97,73 %
30.10.2016 08:26 7,6 C 91 % 1029,4 hPa 0,0 l/m 5,1 km/h (1 Bft) W-SW 246 0 min 0,000 mm 0,0 UV-I 90 W/m 6,2 C 7,6 C 8,0 km/h (2 Bft) 97,14 %
30.10.2016 08:28 7,6 C 91 % 1029,4 hPa 0,0 l/m 6,5 km/h (2 Bft) W-SW 242 0 min 0,000 mm 0,0 UV-I 85 W/m 6,2 C 7,5 C 8,0 km/h (2 Bft) 98,46 %
30.10.2016 08:30 7,6 C 90 % 1029,4 hPa 0,0 l/m 5,7 km/h (1 Bft) SW 235 0 min 0,000 mm 0,0 UV-I 90 W/m 6,1 C 7,6 C 11,3 km/h (2 Bft) 94,00 %
30.10.2016 08:32 7,6 C 90 % 1029,3 hPa 0,0 l/m 7,6 km/h (2 Bft) SW 226 0 min 0,000 mm 0,0 UV-I 90 W/m 6,1 C 6,6 C 12,9 km/h (3 Bft) 97,87 %
30.10.2016 08:34 7,6 C 90 % 1029,3 hPa 0,0 l/m 5,3 km/h (1 Bft) SW 221 0 min 0,000 mm 0,0 UV-I 81 W/m 6,1 C 7,6 C 9,7 km/h (2 Bft) 97,73 %
30.10.2016 08:36 7,7 C 91 % 1029,3 hPa 0,0 l/m 8,0 km/h (2 Bft) W-SW 247 0 min 0,000 mm 0,0 UV-I 74 W/m 6,3 C 6,4 C 11,3 km/h (2 Bft) 95,45 %
30.10.2016 08:38 7,6 C 90 % 1029,3 hPa 0,0 l/m 7,8 km/h (2 Bft) SW 217 0 min 0,000 mm 0,0 UV-I 69 W/m 6,1 C 6,5 C 11,3 km/h (2 Bft) 98,00 %
30.10.2016 08:40 7,6 C 90 % 1029,2 hPa 0,0 l/m 10,1 km/h (2 Bft) SW 219 0 min 0,000 mm 0,0 UV-I 67 W/m 6,1 C 4,9 C 14,5 km/h (3 Bft) 97,62 %
30.10.2016 08:42 7,6 C 90 % 1029,3 hPa 0,0 l/m 6,7 km/h (2 Bft) W-SW 252 0 min 0,000 mm 0,0 UV-I 76 W/m 6,1 C 7,4 C 12,9 km/h (3 Bft) 95,45 %
30.10.2016 08:44 7,7 C 90 % 1029,3 hPa 0,0 l/m 7,2 km/h (2 Bft) W-SW 237 0 min 0,000 mm 0,0 UV-I 84 W/m 6,2 C 7,1 C 12,9 km/h (3 Bft) 96,23 %
30.10.2016 08:46 7,7 C 90 % 1029,3 hPa 0,0 l/m 8,5 km/h (2 Bft) W-SW 254 0 min 0,000 mm 0,0 UV-I 82 W/m 6,2 C 6,1 C 12,9 km/h (3 Bft) 97,87 %
30.10.2016 08:48 7,7 C 90 % 1029,3 hPa 0,0 l/m 5,6 km/h (1 Bft) SW 214 0 min 0,000 mm 0,0 UV-I 75 W/m 6,2 C 7,7 C 8,0 km/h (2 Bft) 97,56 %
30.10.2016 08:50 7,7 C 90 % 1029,3 hPa 0,0 l/m 5,1 km/h (1 Bft) W-SW 240 0 min 0,000 mm 0,0 UV-I 70 W/m 6,2 C 7,7 C 8,0 km/h (2 Bft) 98,25 %
30.10.2016 08:52 7,7 C 90 % 1029,3 hPa 0,0 l/m 5,7 km/h (1 Bft) W 265 0 min 0,000 mm 0,0 UV-I 69 W/m 6,2 C 7,7 C 11,3 km/h (2 Bft) 100,00 %
30.10.2016 08:54 7,8 C 90 % 1029,3 hPa 0,0 l/m 7,3 km/h (2 Bft) W-SW 242 0 min 0,000 mm 0,0 UV-I 68 W/m 6,3 C 7,1 C 11,3 km/h (2 Bft) 100,00 %
30.10.2016 08:56 7,8 C 90 % 1029,3 hPa 0,0 l/m 7,1 km/h (2 Bft) SW 228 0 min 0,000 mm 0,0 UV-I 71 W/m 6,3 C 7,2 C 11,3 km/h (2 Bft) 100,00 %
30.10.2016 08:58 7,8 C 89 % 1029,3 hPa 0,0 l/m 11,9 km/h (2 Bft) W-SW 244 0 min 0,000 mm 0,0 UV-I 75 W/m 6,1 C 4,0 C 17,7 km/h (3 Bft) 100,00 %
30.10.2016 09:00 7,8 C 88 % 1029,3 hPa 0,0 l/m 12,3 km/h (3 Bft) W 266 0 min 0,025 mm 0,0 UV-I 73 W/m 5,9 C 3,8 C 17,7 km/h (3 Bft) 98,00 %
30.10.2016 09:02 7,8 C 88 % 1029,4 hPa 0,0 l/m 8,3 km/h (2 Bft) W-SW 256 0 min 0,000 mm 0,0 UV-I 73 W/m 5,9 C 6,3 C 12,9 km/h (3 Bft) 97,56 %
30.10.2016 09:04 7,9 C 88 % 1029,4 hPa 0,0 l/m 7,1 km/h (2 Bft) W-SW 250 0 min 0,000 mm 0,0 UV-I 75 W/m 6,0 C 7,3 C 12,9 km/h (3 Bft) 98,00 %
30.10.2016 09:06 7,9 C 88 % 1029,4 hPa 0,0 l/m 8,3 km/h (2 Bft) W 263 0 min 0,000 mm 0,0 UV-I 81 W/m 6,0 C 6,4 C 12,9 km/h (3 Bft) 97,56 %
30.10.2016 09:08 7,9 C 87 % 1029,4 hPa 0,0 l/m 10,9 km/h (2 Bft) W-SW 244 0 min 0,000 mm 0,0 UV-I 84 W/m 5,9 C 4,7 C 14,5 km/h (3 Bft) 100,00 %
30.10.2016 09:10 7,9 C 87 % 1029,3 hPa 0,0 l/m 10,3 km/h (2 Bft) W-SW 246 0 min 0,000 mm 0,0 UV-I 92 W/m 5,9 C 5,1 C 12,9 km/h (3 Bft) 95,12 %
30.10.2016 09:12 7,9 C 87 % 1029,3 hPa 0,0 l/m 5,6 km/h (1 Bft) W-SW 248 0 min 0,000 mm 0,0 UV-I 95 W/m 5,9 C 7,9 C 6,4 km/h (2 Bft) 100,00 %
30.10.2016 09:14 8,0 C 87 % 1029,3 hPa 0,0 l/m 11,2 km/h (2 Bft) W-SW 247 0 min 0,000 mm 0,0 UV-I 90 W/m 6,0 C 4,7 C 16,1 km/h (3 Bft) 96,00 %
30.10.2016 09:16 8,0 C 87 % 1029,3 hPa 0,0 l/m 10,0 km/h (2 Bft) W 264 0 min 0,000 mm 0,0 UV-I 84 W/m 6,0 C 5,4 C 14,5 km/h (3 Bft) 100,00 %
30.10.2016 09:18 8,0 C 87 % 1029,2 hPa 0,0 l/m 5,6 km/h (1 Bft) W-SW 246 0 min 0,000 mm 0,0 UV-I 84 W/m 6,0 C 8,0 C 9,7 km/h (2 Bft) 100,00 %
30.10.2016 09:20 8,0 C 87 % 1029,2 hPa 0,0 l/m 5,0 km/h (1 Bft) W 259 0 min 0,000 mm 0,0 UV-I 83 W/m 6,0 C 8,0 C 9,7 km/h (2 Bft) 100,00 %
30.10.2016 09:22 8,1 C 87 % 1029,2 hPa 0,0 l/m 7,8 km/h (2 Bft) W-SW 243 0 min 0,000 mm 0,0 UV-I 86 W/m 6,1 C 7,0 C 14,5 km/h (3 Bft) 98,11 %
30.10.2016 09:24 8,1 C 88 % 1029,3 hPa 0,0 l/m 6,9 km/h (2 Bft) W 260 0 min 0,000 mm 0,0 UV-I 90 W/m 6,2 C 7,7 C 11,3 km/h (2 Bft) 100,00 %
30.10.2016 09:26 8,1 C 87 % 1029,2 hPa 0,0 l/m 10,6 km/h (2 Bft) W-SW 251 0 min 0,000 mm 0,0 UV-I 90 W/m 6,1 C 5,1 C 17,7 km/h (3 Bft) 100,00 %
30.10.2016 09:28 8,1 C 87 % 1029,3 hPa 0,0 l/m 12,0 km/h (2 Bft) W 273 0 min 0,000 mm 0,0 UV-I 91 W/m 6,1 C 4,3 C 16,1 km/h (3 Bft) 98,21 %
30.10.2016 09:30 8,1 C 87 % 1029,3 hPa 0,0 l/m 8,5 km/h (2 Bft) W 267 0 min 0,000 mm 0,0 UV-I 94 W/m 6,1 C 6,5 C 12,9 km/h (3 Bft) 98,21 %
30.10.2016 09:32 8,1 C 87 % 1029,3 hPa 0,0 l/m 6,6 km/h (2 Bft) W 261 0 min 0,000 mm 0,0 UV-I 93 W/m 6,1 C 8,0 C 12,9 km/h (3 Bft) 100,00 %
30.10.2016 09:34 8,2 C 87 % 1029,3 hPa 0,0 l/m 7,0 km/h (2 Bft) W-SW 255 0 min 0,000 mm 0,0 UV-I 92 W/m 6,2 C 7,7 C 11,3 km/h (2 Bft) 98,00 %
30.10.2016 09:36 8,2 C 86 % 1029,3 hPa 0,0 l/m 7,6 km/h (2 Bft) W-SW 254 0 min 0,000 mm 0,0 UV-I 91 W/m 6,0 C 7,3 C 12,9 km/h (3 Bft) 100,00 %
30.10.2016 09:38 8,2 C 86 % 1029,3 hPa 0,0 l/m 8,0 km/h (2 Bft) W 271 0 min 0,000 mm 0,0 UV-I 91 W/m 6,0 C 7,0 C 12,9 km/h (3 Bft) 98,11 %
30.10.2016 09:40 8,2 C 87 % 1029,4 hPa 0,0 l/m 5,3 km/h (1 Bft) W-SW 240 0 min 0,000 mm 0,0 UV-I 92 W/m 6,2 C 8,2 C 11,3 km/h (2 Bft) 97,73 %
30.10.2016 09:42 8,2 C 87 % 1029,4 hPa 0,0 l/m 4,8 km/h (1 Bft) W-SW 258 0 min 0,000 mm 0,0 UV-I 90 W/m 6,2 C 8,2 C 9,7 km/h (2 Bft) 98,00 %
30.10.2016 09:44 8,2 C 87 % 1029,4 hPa 0,0 l/m 6,5 km/h (2 Bft) W 269 0 min 0,000 mm 0,0 UV-I 91 W/m 6,2 C 8,1 C 12,9 km/h (3 Bft) 100,00 %
30.10.2016 09:46 8,2 C 86 % 1029,4 hPa 0,0 l/m 8,6 km/h (2 Bft) SW 236 0 min 0,000 mm 0,0 UV-I 97 W/m 6,0 C 6,5 C 12,9 km/h (3 Bft) 97,37 %
30.10.2016 09:48 8,2 C 85 % 1029,4 hPa 0,0 l/m 9,7 km/h (2 Bft) SW 236 0 min 0,000 mm 0,0 UV-I 96 W/m 5,8 C 5,8 C 16,1 km/h (3 Bft) 100,00 %
30.10.2016 09:50 8,2 C 86 % 1029,3 hPa 0,0 l/m 6,9 km/h (2 Bft) W-SW 252 0 min 0,000 mm 0,0 UV-I 95 W/m 6,0 C 7,8 C 9,7 km/h (2 Bft) 100,00 %
30.10.2016 09:52 8,2 C 86 % 1029,3 hPa 0,0 l/m 9,1 km/h (2 Bft) W-SW 242 0 min 0,000 mm 0,0 UV-I 98 W/m 6,0 C 6,2 C 12,9 km/h (3 Bft) 100,00 %
30.10.2016 09:54 8,2 C 86 % 1029,3 hPa 0,0 l/m 8,0 km/h (2 Bft) W-SW 247 0 min 0,000 mm 0,0 UV-I 94 W/m 6,0 C 7,0 C 12,9 km/h (3 Bft) 100,00 %
30.10.2016 09:56 8,2 C 86 % 1029,3 hPa 0,0 l/m 9,4 km/h (2 Bft) W-SW 255 0 min 0,000 mm 0,0 UV-I 84 W/m 6,0 C 6,0 C 14,5 km/h (3 Bft) 98,11 %
30.10.2016 09:58 8,3 C 85 % 1029,3 hPa 0,0 l/m 11,3 km/h (2 Bft) W 261 0 min 0,000 mm 0,0 UV-I 84 W/m 5,9 C 4,9 C 14,5 km/h (3 Bft) 95,74 %
30.10.2016 10:00 8,3 C 85 % 1029,3 hPa 0,0 l/m 11,3 km/h (2 Bft) W-SW 252 0 min 0,051 mm 0,2 UV-I 97 W/m 5,9 C 4,9 C 17,7 km/h (3 Bft) 100,00 %
30.10.2016 10:02 8,3 C 85 % 1029,3 hPa 0,0 l/m 13,3 km/h (3 Bft) W 280 0 min 0,000 mm 0,5 UV-I 110 W/m 5,9 C 3,9 C 17,7 km/h (3 Bft) 100,00 %
30.10.2016 10:04 8,3 C 85 % 1029,2 hPa 0,0 l/m 13,4 km/h (3 Bft) W-SW 242 0 min 0,000 mm 0,5 UV-I 122 W/m 5,9 C 3,8 C 17,7 km/h (3 Bft) 100,00 %
30.10.2016 10:06 8,3 C 85 % 1029,1 hPa 0,0 l/m 11,5 km/h (2 Bft) W-SW 244 0 min 0,000 mm 0,6 UV-I 130 W/m 5,9 C 4,8 C 19,3 km/h (3 Bft) 100,00 %
30.10.2016 10:08 8,3 C 84 % 1029,1 hPa 0,0 l/m 10,5 km/h (2 Bft) W-SW 244 0 min 0,000 mm 0,6 UV-I 136 W/m 5,8 C 5,4 C 16,1 km/h (3 Bft) 100,00 %
30.10.2016 10:10 8,4 C 85 % 1029,1 hPa 0,0 l/m 8,0 km/h (2 Bft) W-SW 258 0 min 0,000 mm 0,6 UV-I 140 W/m 6,0 C 7,2 C 12,9 km/h (3 Bft) 98,11 %
30.10.2016 10:12 8,4 C 84 % 1029,1 hPa 0,0 l/m 11,1 km/h (2 Bft) W-SW 257 0 min 0,000 mm 0,6 UV-I 135 W/m 5,9 C 5,2 C 17,7 km/h (3 Bft) 97,56 %
30.10.2016 10:14 8,4 C 84 % 1029,1 hPa 0,0 l/m 11,1 km/h (2 Bft) W-SW 244 0 min 0,000 mm 0,6 UV-I 126 W/m 5,9 C 5,2 C 16,1 km/h (3 Bft) 97,87 %
30.10.2016 10:16 8,5 C 84 % 1029,1 hPa 0,0 l/m 9,2 km/h (2 Bft) W 267 0 min 0,000 mm 0,6 UV-I 123 W/m 6,0 C 6,4 C 16,1 km/h (3 Bft) 97,87 %
30.10.2016 10:18 8,6 C 84 % 1029,1 hPa 0,0 l/m 9,4 km/h (2 Bft) W 270 0 min 0,000 mm 0,6 UV-I 134 W/m 6,1 C 6,4 C 12,9 km/h (3 Bft) 98,00 %
30.10.2016 10:20 8,6 C 83 % 1029,0 hPa 0,0 l/m 11,0 km/h (2 Bft) W-SW 240 0 min 0,000 mm 0,6 UV-I 138 W/m 5,9 C 5,5 C 16,1 km/h (3 Bft) 94,74 %
30.10.2016 10:22 8,6 C 83 % 1029,1 hPa 0,0 l/m 10,4 km/h (2 Bft) W-SW 250 0 min 0,000 mm 0,6 UV-I 149 W/m 5,9 C 5,8 C 12,9 km/h (3 Bft) 94,34 %
30.10.2016 10:24 8,7 C 83 % 1029,0 hPa 0,0 l/m 10,5 km/h (2 Bft) W-SW 257 0 min 0,000 mm 0,6 UV-I 160 W/m 6,0 C 5,9 C 14,5 km/h (3 Bft) 97,56 %
30.10.2016 10:26 8,7 C 83 % 1029,1 hPa 0,0 l/m 6,3 km/h (2 Bft) W-NW 285 0 min 0,000 mm 0,6 UV-I 163 W/m 6,0 C 8,7 C 11,3 km/h (2 Bft) 97,62 %
30.10.2016 10:28 8,8 C 84 % 1029,1 hPa 0,0 l/m 7,9 km/h (2 Bft) W 268 0 min 0,000 mm 0,6 UV-I 153 W/m 6,2 C 7,7 C 14,5 km/h (3 Bft) 98,08 %
30.10.2016 10:30 8,8 C 83 % 1029,0 hPa 0,0 l/m 7,7 km/h (2 Bft) S-SW 210 0 min 0,000 mm 0,6 UV-I 150 W/m 6,1 C 7,8 C 12,9 km/h (3 Bft) 96,00 %
30.10.2016 10:32 8,8 C 83 % 1029,0 hPa 0,0 l/m 12,0 km/h (2 Bft) W 264 0 min 0,000 mm 0,7 UV-I 164 W/m 6,1 C 5,1 C 16,1 km/h (3 Bft) 96,23 %
30.10.2016 10:34 8,8 C 82 % 1029,0 hPa 0,0 l/m 7,9 km/h (2 Bft) W-SW 254 0 min 0,000 mm 0,7 UV-I 180 W/m 5,9 C 7,7 C 12,9 km/h (3 Bft) 97,62 %
30.10.2016 10:36 8,9 C 82 % 1029,0 hPa 0,0 l/m 9,1 km/h (2 Bft) SW 226 0 min 0,000 mm 0,8 UV-I 205 W/m 6,0 C 6,9 C 14,5 km/h (3 Bft) 96,00 %
30.10.2016 10:38 8,9 C 82 % 1029,0 hPa 0,0 l/m 10,3 km/h (2 Bft) W-SW 237 0 min 0,000 mm 0,8 UV-I 198 W/m 6,0 C 6,2 C 16,1 km/h (3 Bft) 97,56 %
30.10.2016 10:40 9,0 C 82 % 1028,9 hPa 0,0 l/m 6,5 km/h (2 Bft) W 268 0 min 0,000 mm 0,8 UV-I 161 W/m 6,1 C 9,0 C 11,3 km/h (2 Bft) 98,11 %
30.10.2016 10:42 9,1 C 82 % 1029,1 hPa 0,0 l/m 7,6 km/h (2 Bft) W-SW 244 0 min 0,000 mm 0,8 UV-I 187 W/m 6,2 C 8,2 C 11,3 km/h (2 Bft) 98,00 %
30.10.2016 10:44 9,1 C 82 % 1029,0 hPa 0,0 l/m 8,6 km/h (2 Bft) W 261 0 min 0,000 mm 0,8 UV-I 208 W/m 6,2 C 7,5 C 12,9 km/h (3 Bft) 97,87 %
30.10.2016 10:46 9,2 C 82 % 1029,1 hPa 0,0 l/m 6,2 km/h (2 Bft) W 280 0 min 0,000 mm 0,8 UV-I 217 W/m 6,3 C 9,2 C 12,9 km/h (3 Bft) 97,37 %
30.10.2016 10:48 9,2 C 82 % 1029,0 hPa 0,0 l/m 7,5 km/h (2 Bft) W-SW 254 2 min 0,000 mm 0,9 UV-I 250 W/m 6,3 C 8,4 C 12,9 km/h (3 Bft) 98,00 %
30.10.2016 10:50 9,3 C 82 % 1029,1 hPa 0,0 l/m 7,2 km/h (2 Bft) W-NW 292 2 min 0,000 mm 0,9 UV-I 267 W/m 6,4 C 8,7 C 12,9 km/h (3 Bft) 100,00 %
30.10.2016 10:52 9,3 C 81 % 1029,1 hPa 0,0 l/m 8,4 km/h (2 Bft) W 261 0 min 0,000 mm 0,9 UV-I 245 W/m 6,2 C 7,8 C 12,9 km/h (3 Bft) 98,11 %
30.10.2016 10:54 9,3 C 79 % 1029,1 hPa 0,0 l/m 6,9 km/h (2 Bft) W-SW 244 0 min 0,000 mm 0,9 UV-I 220 W/m 5,8 C 8,9 C 12,9 km/h (3 Bft) 100,00 %
30.10.2016 10:56 9,3 C 79 % 1029,1 hPa 0,0 l/m 9,4 km/h (2 Bft) W-SW 256 0 min 0,000 mm 0,8 UV-I 190 W/m 5,8 C 7,2 C 14,5 km/h (3 Bft) 97,56 %
30.10.2016 10:58 9,3 C 80 % 1029,1 hPa 0,0 l/m 6,8 km/h (2 Bft) SW 234 0 min 0,000 mm 0,8 UV-I 157 W/m 6,0 C 9,0 C 12,9 km/h (3 Bft) 97,87 %
30.10.2016 11:00 9,3 C 80 % 1029,0 hPa 0,0 l/m 7,2 km/h (2 Bft) W-SW 238 0 min 0,102 mm 0,8 UV-I 137 W/m 6,0 C 8,7 C 11,3 km/h (2 Bft) 100,00 %
30.10.2016 11:02 9,3 C 81 % 1029,0 hPa 0,0 l/m 8,9 km/h (2 Bft) W-SW 244 0 min 0,000 mm 0,8 UV-I 172 W/m 6,2 C 7,5 C 17,7 km/h (3 Bft) 100,00 %
30.10.2016 11:04 9,3 C 79 % 1029,0 hPa 0,0 l/m 9,7 km/h (2 Bft) W-SW 247 0 min 0,000 mm 0,9 UV-I 206 W/m 5,8 C 7,0 C 12,9 km/h (3 Bft) 98,21 %
30.10.2016 11:06 9,3 C 79 % 1029,0 hPa 0,0 l/m 10,2 km/h (2 Bft) SW 223 0 min 0,000 mm 0,8 UV-I 190 W/m 5,8 C 6,7 C 16,1 km/h (3 Bft) 100,00 %
30.10.2016 11:08 9,3 C 78 % 1029,0 hPa 0,0 l/m 9,4 km/h (2 Bft) W-SW 256 0 min 0,000 mm 0,9 UV-I 201 W/m 5,7 C 7,2 C 16,1 km/h (3 Bft) 100,00 %
30.10.2016 11:10 9,3 C 78 % 1029,0 hPa 0,0 l/m 10,9 km/h (2 Bft) W 279 0 min 0,000 mm 0,9 UV-I 204 W/m 5,7 C 6,3 C 17,7 km/h (3 Bft) 100,00 %
30.10.2016 11:12 9,4 C 77 % 1028,9 hPa 0,0 l/m 7,7 km/h (2 Bft) W-SW 249 0 min 0,000 mm 0,9 UV-I 212 W/m 5,6 C 8,4 C 12,9 km/h (3 Bft) 97,37 %
30.10.2016 11:14 9,4 C 78 % 1028,9 hPa 0,0 l/m 7,8 km/h (2 Bft) W-SW 238 0 min 0,000 mm 1,0 UV-I 224 W/m 5,8 C 8,4 C 14,5 km/h (3 Bft) 98,31 %
30.10.2016 11:16 9,4 C 77 % 1028,9 hPa 0,0 l/m 9,3 km/h (2 Bft) W-SW 241 0 min 0,000 mm 1,0 UV-I 248 W/m 5,6 C 7,4 C 16,1 km/h (3 Bft) 97,56 %
30.10.2016 11:18 9,4 C 77 % 1028,9 hPa 0,0 l/m 11,8 km/h (2 Bft) W-SW 238 2 min 0,000 mm 1,0 UV-I 264 W/m 5,6 C 5,9 C 20,9 km/h (4 Bft) 100,00 %
30.10.2016 11:20 9,5 C 77 % 1028,9 hPa 0,0 l/m 9,8 km/h (2 Bft) W 263 0 min 0,000 mm 1,0 UV-I 246 W/m 5,7 C 7,2 C 17,7 km/h (3 Bft) 100,00 %
30.10.2016 11:22 9,6 C 78 % 1028,9 hPa 0,0 l/m 9,0 km/h (2 Bft) W 277 0 min 0,000 mm 1,0 UV-I 237 W/m 6,0 C 7,8 C 12,9 km/h (3 Bft) 100,00 %
30.10.2016 11:24 9,6 C 78 % 1028,9 hPa 0,0 l/m 10,0 km/h (2 Bft) W 281 0 min 0,000 mm 1,0 UV-I 239 W/m 6,0 C 7,2 C 14,5 km/h (3 Bft) 100,00 %
30.10.2016 11:26 9,7 C 77 % 1028,9 hPa 0,0 l/m 7,1 km/h (2 Bft) W-SW 244 0 min 0,000 mm 1,0 UV-I 249 W/m 5,9 C 9,2 C 12,9 km/h (3 Bft) 100,00 %
30.10.2016 11:28 9,7 C 78 % 1028,8 hPa 0,0 l/m 8,2 km/h (2 Bft) W 272 2 min 0,000 mm 1,1 UV-I 268 W/m 6,1 C 8,4 C 12,9 km/h (3 Bft) 98,00 %
30.10.2016 11:30 9,7 C 76 % 1028,7 hPa 0,0 l/m 7,5 km/h (2 Bft) W 274 2 min 0,000 mm 1,1 UV-I 273 W/m 5,7 C 8,9 C 11,3 km/h (2 Bft) 94,74 %
30.10.2016 11:32 9,7 C 77 % 1028,6 hPa 0,0 l/m 7,0 km/h (2 Bft) W-SW 254 0 min 0,000 mm 1,0 UV-I 228 W/m 5,9 C 9,3 C 12,9 km/h (3 Bft) 98,25 %
30.10.2016 11:34 9,7 C 78 % 1028,6 hPa 0,0 l/m 6,3 km/h (2 Bft) W 275 0 min 0,000 mm 0,9 UV-I 166 W/m 6,1 C 9,7 C 14,5 km/h (3 Bft) 100,00 %
30.10.2016 11:36 9,7 C 77 % 1028,6 hPa 0,0 l/m 10,9 km/h (2 Bft) W-SW 238 0 min 0,000 mm 0,9 UV-I 123 W/m 5,9 C 6,8 C 16,1 km/h (3 Bft) 96,00 %
30.10.2016 11:38 9,7 C 77 % 1028,6 hPa 0,0 l/m 8,2 km/h (2 Bft) W-SW 248 0 min 0,000 mm 1,0 UV-I 163 W/m 5,9 C 8,4 C 12,9 km/h (3 Bft) 100,00 %
30.10.2016 11:40 9,7 C 77 % 1028,6 hPa 0,0 l/m 8,0 km/h (2 Bft) W-SW 257 2 min 0,000 mm 1,2 UV-I 304 W/m 5,9 C 8,5 C 14,5 km/h (3 Bft) 100,00 %
30.10.2016 11:42 9,7 C 77 % 1028,5 hPa 0,0 l/m 6,4 km/h (2 Bft) SW 228 2 min 0,000 mm 1,1 UV-I 294 W/m 5,9 C 9,7 C 12,9 km/h (3 Bft) 100,00 %
30.10.2016 11:44 9,8 C 78 % 1028,5 hPa 0,0 l/m 6,0 km/h (2 Bft) W-SW 250 2 min 0,000 mm 1,1 UV-I 267 W/m 6,1 C 9,8 C 9,7 km/h (2 Bft) 100,00 %
30.10.2016 11:46 9,9 C 77 % 1028,5 hPa 0,0 l/m 6,0 km/h (2 Bft) W 275 2 min 0,000 mm 1,2 UV-I 288 W/m 6,1 C 9,9 C 9,7 km/h (2 Bft) 97,44 %
30.10.2016 11:48 9,9 C 76 % 1028,6 hPa 0,0 l/m 9,7 km/h (2 Bft) SW 236 0 min 0,000 mm 1,1 UV-I 252 W/m 5,9 C 7,7 C 17,7 km/h (3 Bft) 100,00 %
30.10.2016 11:50 9,9 C 76 % 1028,5 hPa 0,0 l/m 10,7 km/h (2 Bft) W-SW 246 0 min 0,000 mm 1,1 UV-I 226 W/m 5,9 C 7,1 C 16,1 km/h (3 Bft) 100,00 %
30.10.2016 11:52 9,8 C 75 % 1028,5 hPa 0,0 l/m 10,5 km/h (2 Bft) W-NW 286 2 min 0,000 mm 1,2 UV-I 270 W/m 5,6 C 7,1 C 17,7 km/h (3 Bft) 100,00 %
30.10.2016 11:54 9,9 C 75 % 1028,5 hPa 0,0 l/m 10,5 km/h (2 Bft) W 273 2 min 0,000 mm 1,2 UV-I 274 W/m 5,7 C 7,2 C 17,7 km/h (3 Bft) 100,00 %
30.10.2016 11:56 9,9 C 75 % 1028,5 hPa 0,0 l/m 12,9 km/h (3 Bft) W-SW 252 2 min 0,000 mm 1,2 UV-I 281 W/m 5,7 C 6,0 C 20,9 km/h (4 Bft) 100,00 %
30.10.2016 11:58 9,9 C 75 % 1028,5 hPa 0,0 l/m 10,8 km/h (2 Bft) W 276 2 min 0,000 mm 1,2 UV-I 287 W/m 5,7 C 7,0 C 16,1 km/h (3 Bft) 100,00 %
30.10.2016 12:00 10,0 C 76 % 1028,4 hPa 0,0 l/m 15,3 km/h (3 Bft) W 259 2 min 0,127 mm 1,2 UV-I 291 W/m 6,0 C 5,0 C 25,7 km/h (4 Bft) 100,00 %
30.10.2016 12:02 10,0 C 75 % 1028,5 hPa 0,0 l/m 14,7 km/h (3 Bft) W-SW 257 2 min 0,000 mm 1,2 UV-I 284 W/m 5,8 C 5,3 C 24,1 km/h (4 Bft) 100,00 %
30.10.2016 12:04 9,9 C 75 % 1028,4 hPa 0,0 l/m 15,1 km/h (3 Bft) W-SW 240 2 min 0,000 mm 1,2 UV-I 278 W/m 5,7 C 5,0 C 22,5 km/h (4 Bft) 97,37 %
30.10.2016 12:06 9,9 C 75 % 1028,4 hPa 0,0 l/m 11,6 km/h (2 Bft) W 273 2 min 0,000 mm 1,2 UV-I 263 W/m 5,7 C 6,6 C 17,7 km/h (3 Bft) 98,11 %
30.10.2016 12:08 10,0 C 75 % 1028,4 hPa 0,0 l/m 10,3 km/h (2 Bft) SW 232 0 min 0,000 mm 1,2 UV-I 258 W/m 5,8 C 7,4 C 17,7 km/h (3 Bft) 100,00 %
30.10.2016 12:10 10,0 C 75 % 1028,4 hPa 0,0 l/m 6,5 km/h (2 Bft) W-SW 248 0 min 0,000 mm 1,1 UV-I 243 W/m 5,8 C 10,0 C 14,5 km/h (3 Bft) 97,14 %
30.10.2016 12:12 10,0 C 75 % 1028,4 hPa 0,0 l/m 7,1 km/h (2 Bft) W-SW 242 0 min 0,000 mm 1,1 UV-I 225 W/m 5,8 C 9,5 C 16,1 km/h (3 Bft) 98,53 %
30.10.2016 12:14 10,0 C 76 % 1028,4 hPa 0,0 l/m 13,8 km/h (3 Bft) SW 235 0 min 0,000 mm 1,2 UV-I 246 W/m 6,0 C 5,7 C 24,1 km/h (4 Bft) 95,45 %
30.10.2016 12:16 10,1 C 73 % 1028,4 hPa 0,0 l/m 13,4 km/h (3 Bft) W-SW 251 0 min 0,000 mm 1,2 UV-I 256 W/m 5,5 C 6,0 C 27,4 km/h (4 Bft) 98,00 %
30.10.2016 12:18 10,1 C 74 % 1028,4 hPa 0,0 l/m 11,2 km/h (2 Bft) W-NW 283 0 min 0,000 mm 1,1 UV-I 250 W/m 5,7 C 7,0 C 17,7 km/h (3 Bft) 97,87 %
30.10.2016 12:20 10,1 C 74 % 1028,4 hPa 0,0 l/m 13,0 km/h (3 Bft) W 270 0 min 0,000 mm 1,1 UV-I 232 W/m 5,7 C 6,1 C 17,7 km/h (3 Bft) 97,56 %
30.10.2016 12:22 10,0 C 73 % 1028,4 hPa 0,0 l/m 11,7 km/h (2 Bft) W-SW 254 0 min 0,000 mm 1,1 UV-I 225 W/m 5,4 C 6,7 C 16,1 km/h (3 Bft) 95,74 %
30.10.2016 12:24 9,9 C 75 % 1028,4 hPa 0,0 l/m 12,2 km/h (2 Bft) W 262 0 min 0,000 mm 1,1 UV-I 229 W/m 5,7 C 6,3 C 17,7 km/h (3 Bft) 96,23 %
30.10.2016 12:26 9,9 C 74 % 1028,4 hPa 0,0 l/m 11,4 km/h (2 Bft) W-SW 251 0 min 0,000 mm 1,1 UV-I 232 W/m 5,5 C 6,7 C 19,3 km/h (3 Bft) 97,73 %
30.10.2016 12:28 9,9 C 74 % 1028,3 hPa 0,0 l/m 8,3 km/h (2 Bft) W-SW 243 0 min 0,000 mm 1,1 UV-I 225 W/m 5,5 C 8,5 C 11,3 km/h (2 Bft) 95,24 %
30.10.2016 12:30 9,9 C 74 % 1028,3 hPa 0,0 l/m 10,3 km/h (2 Bft) W-SW 250 0 min 0,000 mm 1,1 UV-I 222 W/m 5,5 C 7,3 C 17,7 km/h (3 Bft) 94,55 %
30.10.2016 12:32 9,9 C 74 % 1028,3 hPa 0,0 l/m 13,8 km/h (3 Bft) W-SW 250 0 min 0,000 mm 1,1 UV-I 230 W/m 5,5 C 5,5 C 19,3 km/h (3 Bft) 100,00 %
30.10.2016 12:34 10,0 C 75 % 1028,2 hPa 0,0 l/m 12,9 km/h (3 Bft) W 264 0 min 0,000 mm 1,1 UV-I 245 W/m 5,8 C 6,1 C 14,5 km/h (3 Bft) 94,12 %
30.10.2016 12:36 10,0 C 74 % 1028,2 hPa 0,0 l/m 15,1 km/h (3 Bft) SW 234 2 min 0,000 mm 1,1 UV-I 257 W/m 5,6 C 5,1 C 20,9 km/h (4 Bft) 97,73 %
30.10.2016 12:38 10,1 C 76 % 1028,2 hPa 0,0 l/m 7,6 km/h (2 Bft) W-SW 242 2 min 0,000 mm 1,1 UV-I 259 W/m 6,1 C 9,2 C 14,5 km/h (3 Bft) 97,87 %
30.10.2016 12:40 10,1 C 75 % 1028,1 hPa 0,0 l/m 7,2 km/h (2 Bft) W-SW 245 2 min 0,000 mm 1,1 UV-I 255 W/m 5,9 C 9,5 C 16,1 km/h (3 Bft) 98,00 %
30.10.2016 12:42 10,1 C 75 % 1028,1 hPa 0,0 l/m 7,7 km/h (2 Bft) W-NW 296 0 min 0,000 mm 1,0 UV-I 235 W/m 5,9 C 9,2 C 14,5 km/h (3 Bft) 100,00 %
30.10.2016 12:44 10,1 C 75 % 1028,1 hPa 0,0 l/m 6,2 km/h (2 Bft) SW 232 0 min 0,000 mm 1,0 UV-I 224 W/m 5,9 C 10,1 C 11,3 km/h (2 Bft) 97,37 %
30.10.2016 12:46 10,2 C 76 % 1028,2 hPa 0,0 l/m 7,2 km/h (2 Bft) W 260 0 min 0,000 mm 1,0 UV-I 222 W/m 6,2 C 9,6 C 12,9 km/h (3 Bft) 100,00 %
30.10.2016 12:48 10,2 C 74 % 1028,2 hPa 0,0 l/m 11,4 km/h (2 Bft) W-SW 246 0 min 0,000 mm 0,9 UV-I 215 W/m 5,8 C 7,1 C 16,1 km/h (3 Bft) 100,00 %
30.10.2016 12:50 10,1 C 75 % 1028,1 hPa 0,0 l/m 12,3 km/h (3 Bft) W-SW 237 0 min 0,000 mm 0,9 UV-I 211 W/m 5,9 C 6,5 C 22,5 km/h (4 Bft) 100,00 %
30.10.2016 12:52 10,1 C 76 % 1028,1 hPa 0,0 l/m 7,1 km/h (2 Bft) W-SW 247 0 min 0,000 mm 0,9 UV-I 211 W/m 6,1 C 9,6 C 14,5 km/h (3 Bft) 97,62 %
30.10.2016 12:54 10,1 C 74 % 1028,0 hPa 0,0 l/m 11,1 km/h (2 Bft) W 263 0 min 0,000 mm 0,9 UV-I 214 W/m 5,7 C 7,1 C 16,1 km/h (3 Bft) 98,11 %
30.10.2016 12:56 10,1 C 75 % 1028,0 hPa 0,0 l/m 9,2 km/h (2 Bft) W-SW 254 0 min 0,000 mm 0,9 UV-I 214 W/m 5,9 C 8,2 C 12,9 km/h (3 Bft) 97,87 %
30.10.2016 12:58 10,1 C 75 % 1028,0 hPa 0,0 l/m 14,9 km/h (3 Bft) SW 223 0 min 0,000 mm 0,9 UV-I 210 W/m 5,9 C 5,3 C 20,9 km/h (4 Bft) 100,00 %
30.10.2016 13:00 10,1 C 75 % 1028,0 hPa 0,0 l/m 14,6 km/h (3 Bft) W-SW 247 0 min 0,127 mm 0,9 UV-I 211 W/m 5,9 C 5,4 C 20,9 km/h (4 Bft) 97,73 %
30.10.2016 13:02 10,0 C 74 % 1028,0 hPa 0,0 l/m 12,9 km/h (3 Bft) W-SW 243 0 min 0,000 mm 0,9 UV-I 223 W/m 5,6 C 6,1 C 19,3 km/h (3 Bft) 100,00 %
30.10.2016 13:04 10,0 C 74 % 1028,0 hPa 0,0 l/m 14,9 km/h (3 Bft) W-SW 255 0 min 0,000 mm 0,9 UV-I 232 W/m 5,6 C 5,2 C 19,3 km/h (3 Bft) 97,87 %
30.10.2016 13:06 9,9 C 75 % 1027,9 hPa 0,0 l/m 11,2 km/h (2 Bft) W-SW 249 2 min 0,000 mm 0,9 UV-I 243 W/m 5,7 C 6,8 C 16,1 km/h (3 Bft) 97,37 %
30.10.2016 13:08 9,9 C 75 % 1028,0 hPa 0,0 l/m 14,3 km/h (3 Bft) W-SW 246 0 min 0,000 mm 0,9 UV-I 223 W/m 5,7 C 5,3 C 22,5 km/h (4 Bft) 100,00 %
30.10.2016 13:10 9,9 C 75 % 1027,9 hPa 0,0 l/m 13,9 km/h (3 Bft) SW 229 0 min 0,000 mm 0,9 UV-I 210 W/m 5,7 C 5,5 C 19,3 km/h (3 Bft) 97,56 %
30.10.2016 13:12 9,9 C 74 % 1027,9 hPa 0,0 l/m 19,7 km/h (3 Bft) W-SW 245 0 min 0,000 mm 0,9 UV-I 202 W/m 5,5 C 3,3 C 30,6 km/h (5 Bft) 100,00 %
30.10.2016 13:14 9,9 C 75 % 1027,9 hPa 0,0 l/m 13,3 km/h (3 Bft) W 268 0 min 0,000 mm 0,9 UV-I 199 W/m 5,7 C 5,8 C 19,3 km/h (3 Bft) 100,00 %
30.10.2016 13:16 9,9 C 74 % 1027,9 hPa 0,0 l/m 13,8 km/h (3 Bft) W-SW 245 0 min 0,000 mm 0,9 UV-I 201 W/m 5,5 C 5,5 C 20,9 km/h (4 Bft) 96,23 %
30.10.2016 13:18 9,9 C 74 % 1027,9 hPa 0,0 l/m 11,8 km/h (2 Bft) W-SW 252 0 min 0,000 mm 0,9 UV-I 200 W/m 5,5 C 6,5 C 17,7 km/h (3 Bft) 100,00 %
30.10.2016 13:20 9,8 C 74 % 1028,0 hPa 0,0 l/m 8,1 km/h (2 Bft) W-SW 247 0 min 0,000 mm 0,9 UV-I 195 W/m 5,4 C 8,6 C 14,5 km/h (3 Bft) 100,00 %
30.10.2016 13:22 9,8 C 75 % 1027,9 hPa 0,0 l/m 12,4 km/h (3 Bft) W-SW 242 0 min 0,000 mm 0,9 UV-I 181 W/m 5,6 C 6,1 C 19,3 km/h (3 Bft) 100,00 %
30.10.2016 13:24 9,8 C 75 % 1027,9 hPa 0,0 l/m 11,7 km/h (2 Bft) SW 230 0 min 0,000 mm 0,8 UV-I 164 W/m 5,6 C 6,4 C 19,3 km/h (3 Bft) 100,00 %
30.10.2016 13:26 9,8 C 74 % 1027,9 hPa 0,0 l/m 12,5 km/h (3 Bft) W-SW 256 0 min 0,000 mm 0,8 UV-I 147 W/m 5,4 C 6,0 C 19,3 km/h (3 Bft) 100,00 %
30.10.2016 13:28 9,8 C 75 % 1027,9 hPa 0,0 l/m 9,3 km/h (2 Bft) W-SW 242 0 min 0,000 mm 0,8 UV-I 141 W/m 5,6 C 7,8 C 14,5 km/h (3 Bft) 100,00 %
30.10.2016 13:30 9,8 C 76 % 1027,9 hPa 0,0 l/m 7,7 km/h (2 Bft) W 264 0 min 0,000 mm 0,8 UV-I 147 W/m 5,8 C 8,9 C 11,3 km/h (2 Bft) 100,00 %
30.10.2016 13:32 9,8 C 76 % 1027,8 hPa 0,0 l/m 4,4 km/h (1 Bft) W-NW 284 0 min 0,000 mm 0,8 UV-I 175 W/m 5,8 C 9,8 C 14,5 km/h (3 Bft) 98,00 %
30.10.2016 13:34 9,8 C 77 % 1027,8 hPa 0,0 l/m 8,3 km/h (2 Bft) W-SW 242 0 min 0,000 mm 0,9 UV-I 191 W/m 6,0 C 8,4 C 12,9 km/h (3 Bft) 100,00 %
30.10.2016 13:36 9,8 C 76 % 1027,7 hPa 0,0 l/m 13,6 km/h (3 Bft) W-SW 240 0 min 0,000 mm 0,9 UV-I 219 W/m 5,8 C 5,5 C 19,3 km/h (3 Bft) 98,21 %
30.10.2016 13:38 9,8 C 76 % 1027,7 hPa 0,0 l/m 12,8 km/h (3 Bft) W-SW 253 2 min 0,000 mm 0,8 UV-I 222 W/m 5,8 C 5,9 C 17,7 km/h (3 Bft) 100,00 %
30.10.2016 13:40 9,8 C 76 % 1027,7 hPa 0,0 l/m 11,7 km/h (2 Bft) W 263 0 min 0,000 mm 0,8 UV-I 194 W/m 5,8 C 6,4 C 17,7 km/h (3 Bft) 100,00 %
30.10.2016 13:42 9,8 C 76 % 1027,7 hPa 0,0 l/m 12,8 km/h (3 Bft) W-SW 258 0 min 0,000 mm 0,8 UV-I 176 W/m 5,8 C 5,9 C 17,7 km/h (3 Bft) 100,00 %
30.10.2016 13:44 9,8 C 76 % 1027,7 hPa 0,0 l/m 11,3 km/h (2 Bft) W-SW 248 0 min 0,000 mm 0,8 UV-I 168 W/m 5,8 C 6,6 C 20,9 km/h (4 Bft) 100,00 %
30.10.2016 13:46 9,8 C 76 % 1027,7 hPa 0,0 l/m 10,8 km/h (2 Bft) SW 225 0 min 0,000 mm 0,8 UV-I 174 W/m 5,8 C 6,9 C 17,7 km/h (3 Bft) 100,00 %
30.10.2016 13:48 9,8 C 76 % 1027,7 hPa 0,0 l/m 9,8 km/h (2 Bft) W 275 0 min 0,000 mm 0,7 UV-I 183 W/m 5,8 C 7,5 C 16,1 km/h (3 Bft) 97,37 %
30.10.2016 13:50 9,8 C 77 % 1027,7 hPa 0,0 l/m 8,1 km/h (2 Bft) W-SW 254 0 min 0,000 mm 0,7 UV-I 187 W/m 6,0 C 8,6 C 16,1 km/h (3 Bft) 98,11 %
30.10.2016 13:52 9,9 C 77 % 1027,6 hPa 0,0 l/m 9,9 km/h (2 Bft) W-SW 244 0 min 0,000 mm 0,7 UV-I 187 W/m 6,1 C 7,5 C 20,9 km/h (4 Bft) 100,00 %
30.10.2016 13:54 9,9 C 77 % 1027,6 hPa 0,0 l/m 11,1 km/h (2 Bft) W 259 0 min 0,000 mm 0,7 UV-I 187 W/m 6,1 C 6,9 C 17,7 km/h (3 Bft) 100,00 %
30.10.2016 13:56 9,9 C 77 % 1027,6 hPa 0,0 l/m 10,6 km/h (2 Bft) W-SW 248 0 min 0,000 mm 0,7 UV-I 178 W/m 6,1 C 7,1 C 16,1 km/h (3 Bft) 100,00 %
30.10.2016 13:58 9,8 C 76 % 1027,6 hPa 0,0 l/m 15,1 km/h (3 Bft) W-SW 254 0 min 0,000 mm 0,7 UV-I 189 W/m 5,8 C 4,8 C 20,9 km/h (4 Bft) 100,00 %
30.10.2016 14:00 9,8 C 77 % 1027,5 hPa 0,0 l/m 13,4 km/h (3 Bft) SW 232 0 min 0,127 mm 0,7 UV-I 195 W/m 6,0 C 5,6 C 19,3 km/h (3 Bft) 100,00 %
30.10.2016 14:02 9,9 C 77 % 1027,5 hPa 0,0 l/m 11,4 km/h (2 Bft) W-SW 248 0 min 0,000 mm 0,7 UV-I 193 W/m 6,1 C 6,7 C 17,7 km/h (3 Bft) 98,00 %
30.10.2016 14:04 10,0 C 77 % 1027,4 hPa 0,0 l/m 9,6 km/h (2 Bft) W-SW 244 2 min 0,000 mm 0,8 UV-I 208 W/m 6,2 C 7,8 C 14,5 km/h (3 Bft) 98,11 %
30.10.2016 14:06 10,1 C 77 % 1027,4 hPa 0,0 l/m 7,9 km/h (2 Bft) W-SW 240 2 min 0,000 mm 0,7 UV-I 208 W/m 6,3 C 9,0 C 16,1 km/h (3 Bft) 95,83 %
30.10.2016 14:08 10,1 C 76 % 1027,4 hPa 0,0 l/m 7,9 km/h (2 Bft) S-SW 196 2 min 0,000 mm 0,7 UV-I 347 W/m 6,1 C 9,0 C 17,7 km/h (3 Bft) 98,51 %
30.10.2016 14:10 10,2 C 76 % 1027,4 hPa 0,0 l/m 10,9 km/h (2 Bft) W-SW 243 2 min 0,000 mm 0,7 UV-I 297 W/m 6,2 C 7,3 C 19,3 km/h (3 Bft) 95,24 %
30.10.2016 14:12 10,2 C 76 % 1027,4 hPa 0,0 l/m 14,8 km/h (3 Bft) W-NW 284 2 min 0,000 mm 0,7 UV-I 261 W/m 6,2 C 5,5 C 22,5 km/h (4 Bft) 98,08 %
30.10.2016 14:14 10,2 C 76 % 1027,3 hPa 0,0 l/m 11,3 km/h (2 Bft) W-SW 252 2 min 0,000 mm 0,7 UV-I 344 W/m 6,2 C 7,1 C 14,5 km/h (3 Bft) 97,62 %
30.10.2016 14:16 10,2 C 75 % 1027,3 hPa 0,0 l/m 16,7 km/h (3 Bft) W-SW 255 2 min 0,000 mm 0,7 UV-I 337 W/m 6,0 C 4,7 C 24,1 km/h (4 Bft) 97,87 %
30.10.2016 14:18 10,2 C 75 % 1027,3 hPa 0,0 l/m 10,9 km/h (2 Bft) W 262 2 min 0,000 mm 0,6 UV-I 207 W/m 6,0 C 7,3 C 19,3 km/h (3 Bft) 96,00 %
30.10.2016 14:20 10,2 C 75 % 1027,4 hPa 0,0 l/m 14,9 km/h (3 Bft) SW 230 2 min 0,000 mm 0,6 UV-I 183 W/m 6,0 C 5,4 C 22,5 km/h (4 Bft) 97,87 %
30.10.2016 14:22 10,1 C 76 % 1027,4 hPa 0,0 l/m 14,5 km/h (3 Bft) W-SW 246 2 min 0,000 mm 0,6 UV-I 199 W/m 6,1 C 5,5 C 22,5 km/h (4 Bft) 94,74 %
30.10.2016 14:24 10,1 C 76 % 1027,4 hPa 0,0 l/m 14,8 km/h (3 Bft) W-SW 243 2 min 0,000 mm 0,6 UV-I 182 W/m 6,1 C 5,3 C 22,5 km/h (4 Bft) 98,21 %
30.10.2016 14:26 10,1 C 77 % 1027,4 hPa 0,0 l/m 12,3 km/h (3 Bft) W-SW 244 2 min 0,000 mm 0,6 UV-I 187 W/m 6,3 C 6,5 C 20,9 km/h (4 Bft) 98,00 %
30.10.2016 14:28 10,0 C 76 % 1027,3 hPa 0,0 l/m 12,6 km/h (3 Bft) W-SW 252 2 min 0,000 mm 0,5 UV-I 182 W/m 6,0 C 6,2 C 22,5 km/h (4 Bft) 91,30 %
30.10.2016 14:30 10,0 C 77 % 1027,4 hPa 0,0 l/m 13,1 km/h (3 Bft) W-SW 240 0 min 0,000 mm 0,5 UV-I 160 W/m 6,2 C 6,0 C 19,3 km/h (3 Bft) 98,46 %
30.10.2016 14:32 10,0 C 77 % 1027,3 hPa 0,0 l/m 13,1 km/h (3 Bft) W 263 0 min 0,000 mm 0,5 UV-I 160 W/m 6,2 C 6,0 C 17,7 km/h (3 Bft) 96,23 %
30.10.2016 14:34 10,1 C 77 % 1027,3 hPa 0,0 l/m 14,0 km/h (3 Bft) W-SW 251 2 min 0,000 mm 0,5 UV-I 179 W/m 6,3 C 5,7 C 22,5 km/h (4 Bft) 97,87 %
30.10.2016 14:36 10,1 C 77 % 1027,4 hPa 0,0 l/m 12,8 km/h (3 Bft) W-SW 244 2 min 0,000 mm 0,5 UV-I 185 W/m 6,3 C 6,2 C 19,3 km/h (3 Bft) 95,12 %
30.10.2016 14:38 10,0 C 77 % 1027,3 hPa 0,0 l/m 14,2 km/h (3 Bft) W 271 2 min 0,000 mm 0,5 UV-I 172 W/m 6,2 C 5,5 C 19,3 km/h (3 Bft) 100,00 %
30.10.2016 14:40 10,1 C 77 % 1027,3 hPa 0,0 l/m 11,2 km/h (2 Bft) W-SW 252 2 min 0,000 mm 0,5 UV-I 183 W/m 6,3 C 7,0 C 17,7 km/h (3 Bft) 95,12 %
30.10.2016 14:42 10,1 C 78 % 1027,5 hPa 0,0 l/m 7,3 km/h (2 Bft) W 265 2 min 0,000 mm 0,5 UV-I 209 W/m 6,4 C 9,4 C 12,9 km/h (3 Bft) 98,11 %
30.10.2016 14:44 10,1 C 78 % 1027,5 hPa 0,0 l/m 6,7 km/h (2 Bft) W-SW 240 2 min 0,000 mm 0,5 UV-I 217 W/m 6,4 C 9,9 C 11,3 km/h (2 Bft) 100,00 %
30.10.2016 14:46 10,1 C 79 % 1027,5 hPa 0,0 l/m 6,8 km/h (2 Bft) W 262 0 min 0,000 mm 0,5 UV-I 132 W/m 6,6 C 9,8 C 11,3 km/h (2 Bft) 100,00 %
30.10.2016 14:48 10,0 C 78 % 1027,6 hPa 0,0 l/m 10,4 km/h (2 Bft) W 259 0 min 0,000 mm 0,3 UV-I 130 W/m 6,3 C 7,4 C 17,7 km/h (3 Bft) 98,39 %
30.10.2016 14:50 9,9 C 77 % 1027,6 hPa 0,0 l/m 9,3 km/h (2 Bft) SW 215 0 min 0,000 mm 0,0 UV-I 108 W/m 6,1 C 7,9 C 17,7 km/h (3 Bft) 100,00 %
30.10.2016 14:52 9,9 C 77 % 1027,6 hPa 0,0 l/m 9,9 km/h (2 Bft) W-SW 245 0 min 0,000 mm 0,0 UV-I 102 W/m 6,1 C 7,5 C 16,1 km/h (3 Bft) 97,44 %
30.10.2016 14:54 9,8 C 78 % 1027,6 hPa 0,0 l/m 9,9 km/h (2 Bft) W-SW 255 0 min 0,000 mm 0,0 UV-I 99 W/m 6,1 C 7,4 C 14,5 km/h (3 Bft) 100,00 %
30.10.2016 14:56 9,8 C 78 % 1027,6 hPa 0,0 l/m 7,4 km/h (2 Bft) W-SW 246 0 min 0,000 mm 0,0 UV-I 85 W/m 6,1 C 9,1 C 12,9 km/h (3 Bft) 98,21 %
30.10.2016 14:58 9,8 C 78 % 1027,5 hPa 0,0 l/m 8,0 km/h (2 Bft) W 270 0 min 0,000 mm 0,0 UV-I 89 W/m 6,1 C 8,6 C 14,5 km/h (3 Bft) 100,00 %
30.10.2016 15:00 9,8 C 79 % 1027,6 hPa 0,0 l/m 14,1 km/h (3 Bft) W-SW 254 0 min 0,000 mm 0,0 UV-I 88 W/m 6,3 C 5,3 C 19,3 km/h (3 Bft) 100,00 %
30.10.2016 15:02 9,7 C 78 % 1027,6 hPa 0,0 l/m 13,5 km/h (3 Bft) W-SW 237 0 min 0,127 mm 0,0 UV-I 74 W/m 6,1 C 5,4 C 17,7 km/h (3 Bft) 98,11 %
30.10.2016 15:04 9,7 C 78 % 1027,5 hPa 0,0 l/m 10,9 km/h (2 Bft) W 273 0 min 0,000 mm 0,0 UV-I 84 W/m 6,1 C 6,8 C 14,5 km/h (3 Bft) 100,00 %
30.10.2016 15:06 9,7 C 79 % 1027,6 hPa 0,0 l/m 8,3 km/h (2 Bft) W-SW 248 0 min 0,000 mm 0,0 UV-I 113 W/m 6,2 C 8,3 C 14,5 km/h (3 Bft) 95,45 %
30.10.2016 15:08 9,7 C 79 % 1027,6 hPa 0,0 l/m 8,0 km/h (2 Bft) W-SW 238 2 min 0,000 mm 0,0 UV-I 151 W/m 6,2 C 8,5 C 12,9 km/h (3 Bft) 100,00 %
30.10.2016 15:10 9,7 C 78 % 1027,5 hPa 0,0 l/m 9,3 km/h (2 Bft) W-SW 244 2 min 0,000 mm 0,0 UV-I 172 W/m 6,1 C 7,7 C 16,1 km/h (3 Bft) 100,00 %
30.10.2016 15:12 9,8 C 79 % 1027,5 hPa 0,0 l/m 11,8 km/h (2 Bft) W-SW 257 2 min 0,000 mm 0,0 UV-I 174 W/m 6,3 C 6,4 C 17,7 km/h (3 Bft) 100,00 %
30.10.2016 15:14 9,8 C 78 % 1027,5 hPa 0,0 l/m 10,8 km/h (2 Bft) W-NW 298 2 min 0,000 mm 0,0 UV-I 154 W/m 6,1 C 6,9 C 17,7 km/h (3 Bft) 100,00 %
30.10.2016 15:16 9,9 C 78 % 1027,5 hPa 0,0 l/m 10,4 km/h (2 Bft) W 260 2 min 0,000 mm 0,0 UV-I 169 W/m 6,2 C 7,3 C 17,7 km/h (3 Bft) 100,00 %
30.10.2016 15:18 9,9 C 77 % 1027,6 hPa 0,0 l/m 11,0 km/h (2 Bft) W 268 2 min 0,000 mm 0,0 UV-I 169 W/m 6,1 C 6,9 C 19,3 km/h (3 Bft) 100,00 %
30.10.2016 15:20 9,9 C 78 % 1027,6 hPa 0,0 l/m 10,6 km/h (2 Bft) SW 232 2 min 0,000 mm 0,0 UV-I 183 W/m 6,2 C 7,1 C 14,5 km/h (3 Bft) 100,00 %
30.10.2016 15:22 9,9 C 78 % 1027,6 hPa 0,0 l/m 10,5 km/h (2 Bft) W 260 2 min 0,000 mm 0,0 UV-I 139 W/m 6,2 C 7,2 C 14,5 km/h (3 Bft) 100,00 %
30.10.2016 15:24 9,9 C 78 % 1027,6 hPa 0,0 l/m 12,7 km/h (3 Bft) W-SW 255 0 min 0,000 mm 0,0 UV-I 98 W/m 6,2 C 6,1 C 19,3 km/h (3 Bft) 100,00 %
30.10.2016 15:26 9,9 C 78 % 1027,6 hPa 0,0 l/m 7,6 km/h (2 Bft) W-SW 254 0 min 0,000 mm 0,0 UV-I 88 W/m 6,2 C 9,0 C 14,5 km/h (3 Bft) 100,00 %
30.10.2016 15:28 9,9 C 78 % 1027,6 hPa 0,0 l/m 11,4 km/h (2 Bft) W-SW 254 0 min 0,000 mm 0,0 UV-I 90 W/m 6,2 C 6,7 C 17,7 km/h (3 Bft) 100,00 %
30.10.2016 15:30 9,8 C 77 % 1027,6 hPa 0,0 l/m 8,2 km/h (2 Bft) W-SW 250 0 min 0,000 mm 0,0 UV-I 97 W/m 6,0 C 8,5 C 14,5 km/h (3 Bft) 100,00 %
30.10.2016 15:32 9,8 C 78 % 1027,6 hPa 0,0 l/m 7,4 km/h (2 Bft) W-SW 246 0 min 0,000 mm 0,0 UV-I 96 W/m 6,1 C 9,1 C 11,3 km/h (2 Bft) 97,96 %
30.10.2016 15:34 9,8 C 78 % 1027,6 hPa 0,0 l/m 11,3 km/h (2 Bft) W 263 0 min 0,000 mm 0,0 UV-I 92 W/m 6,1 C 6,6 C 17,7 km/h (3 Bft) 97,87 %
30.10.2016 15:36 9,8 C 78 % 1027,6 hPa 0,0 l/m 8,1 km/h (2 Bft) W 263 0 min 0,000 mm 0,0 UV-I 83 W/m 6,1 C 8,6 C 12,9 km/h (3 Bft) 100,00 %
30.10.2016 15:38 9,8 C 78 % 1027,6 hPa 0,0 l/m 7,7 km/h (2 Bft) W-SW 252 0 min 0,000 mm 0,0 UV-I 76 W/m 6,1 C 8,9 C 11,3 km/h (2 Bft) 100,00 %
30.10.2016 15:40 9,8 C 78 % 1027,6 hPa 0,0 l/m 10,6 km/h (2 Bft) SW 225 0 min 0,000 mm 0,0 UV-I 71 W/m 6,1 C 7,0 C 17,7 km/h (3 Bft) 100,00 %
30.10.2016 15:42 9,7 C 78 % 1027,6 hPa 0,0 l/m 8,9 km/h (2 Bft) W-SW 246 0 min 0,000 mm 0,0 UV-I 63 W/m 6,1 C 7,9 C 16,1 km/h (3 Bft) 100,00 %
30.10.2016 15:44 9,7 C 79 % 1027,6 hPa 0,0 l/m 8,6 km/h (2 Bft) SW 217 0 min 0,000 mm 0,0 UV-I 58 W/m 6,2 C 8,1 C 12,9 km/h (3 Bft) 100,00 %
30.10.2016 15:46 9,7 C 79 % 1027,6 hPa 0,0 l/m 7,8 km/h (2 Bft) SW 215 0 min 0,000 mm 0,0 UV-I 53 W/m 6,2 C 8,7 C 14,5 km/h (3 Bft) 100,00 %
30.10.2016 15:48 9,7 C 79 % 1027,5 hPa 0,0 l/m 8,3 km/h (2 Bft) SW 222 0 min 0,000 mm 0,0 UV-I 46 W/m 6,2 C 8,3 C 14,5 km/h (3 Bft) 97,87 %
30.10.2016 15:50 9,6 C 80 % 1027,6 hPa 0,0 l/m 6,5 km/h (2 Bft) SW 219 0 min 0,000 mm 0,0 UV-I 44 W/m 6,3 C 9,6 C 11,3 km/h (2 Bft) 100,00 %
30.10.2016 15:52 9,6 C 80 % 1027,5 hPa 0,0 l/m 7,4 km/h (2 Bft) SW 229 0 min 0,000 mm 0,0 UV-I 42 W/m 6,3 C 8,9 C 11,3 km/h (2 Bft) 100,00 %
30.10.2016 15:54 9,6 C 80 % 1027,6 hPa 0,0 l/m 9,5 km/h (2 Bft) W-SW 250 0 min 0,000 mm 0,0 UV-I 42 W/m 6,3 C 7,5 C 16,1 km/h (3 Bft) 100,00 %
30.10.2016 15:56 9,6 C 80 % 1027,6 hPa 0,0 l/m 6,9 km/h (2 Bft) SW 215 0 min 0,000 mm 0,0 UV-I 45 W/m 6,3 C 9,2 C 11,3 km/h (2 Bft) 98,21 %
30.10.2016 15:58 9,6 C 80 % 1027,6 hPa 0,0 l/m 8,8 km/h (2 Bft) SW 236 0 min 0,000 mm 0,0 UV-I 41 W/m 6,3 C 7,9 C 14,5 km/h (3 Bft) 97,87 %
30.10.2016 16:00 9,5 C 80 % 1027,6 hPa 0,0 l/m 7,2 km/h (2 Bft) W 263 0 min 0,076 mm 0,0 UV-I 34 W/m 6,2 C 8,9 C 11,3 km/h (2 Bft) 98,00 %
30.10.2016 16:02 9,5 C 80 % 1027,6 hPa 0,0 l/m 5,9 km/h (2 Bft) SW 224 0 min 0,000 mm 0,0 UV-I 26 W/m 6,2 C 9,5 C 11,3 km/h (2 Bft) 95,74 %
30.10.2016 16:04 9,4 C 80 % 1027,7 hPa 0,0 l/m 6,4 km/h (2 Bft) W-SW 255 0 min 0,000 mm 0,0 UV-I 21 W/m 6,1 C 9,4 C 8,0 km/h (2 Bft) 97,37 %
30.10.2016 16:06 9,4 C 80 % 1027,6 hPa 0,0 l/m 6,2 km/h (2 Bft) SW 234 0 min 0,000 mm 0,0 UV-I 21 W/m 6,1 C 9,4 C 12,9 km/h (3 Bft) 98,21 %
30.10.2016 16:08 9,4 C 81 % 1027,6 hPa 0,0 l/m 5,1 km/h (1 Bft) SW 225 0 min 0,000 mm 0,0 UV-I 21 W/m 6,3 C 9,4 C 8,0 km/h (2 Bft) 97,44 %
30.10.2016 16:10 9,4 C 81 % 1027,6 hPa 0,0 l/m 7,0 km/h (2 Bft) SW 216 0 min 0,000 mm 0,0 UV-I 24 W/m 6,3 C 9,0 C 11,3 km/h (2 Bft) 96,23 %
30.10.2016 16:12 9,4 C 81 % 1027,5 hPa 0,0 l/m 8,1 km/h (2 Bft) W-SW 249 0 min 0,000 mm 0,0 UV-I 26 W/m 6,3 C 8,2 C 12,9 km/h (3 Bft) 97,37 %
30.10.2016 16:14 9,3 C 81 % 1027,6 hPa 0,0 l/m 12,3 km/h (3 Bft) W-SW 255 0 min 0,000 mm 0,0 UV-I 28 W/m 6,2 C 5,6 C 19,3 km/h (3 Bft) 98,00 %
30.10.2016 16:16 9,3 C 81 % 1027,5 hPa 0,0 l/m 13,3 km/h (3 Bft) W-SW 250 0 min 0,000 mm 0,0 UV-I 30 W/m 6,2 C 5,1 C 20,9 km/h (4 Bft) 97,87 %
30.10.2016 16:18 9,3 C 81 % 1027,6 hPa 0,0 l/m 8,9 km/h (2 Bft) W-SW 252 0 min 0,000 mm 0,0 UV-I 31 W/m 6,2 C 7,5 C 14,5 km/h (3 Bft) 97,87 %
30.10.2016 16:20 9,3 C 81 % 1027,5 hPa 0,0 l/m 9,0 km/h (2 Bft) W 262 0 min 0,000 mm 0,0 UV-I 31 W/m 6,2 C 7,4 C 12,9 km/h (3 Bft) 95,12 %
30.10.2016 16:22 9,3 C 81 % 1027,6 hPa 0,0 l/m 8,5 km/h (2 Bft) W 262 0 min 0,000 mm 0,0 UV-I 28 W/m 6,2 C 7,8 C 12,9 km/h (3 Bft) 96,43 %
30.10.2016 16:24 9,3 C 81 % 1027,5 hPa 0,0 l/m 8,6 km/h (2 Bft) W-SW 246 0 min 0,000 mm 0,0 UV-I 26 W/m 6,2 C 7,7 C 14,5 km/h (3 Bft) 97,37 %
30.10.2016 16:26 9,3 C 81 % 1027,6 hPa 0,0 l/m 8,4 km/h (2 Bft) W-SW 244 2 min 0,000 mm 0,0 UV-I 25 W/m 6,2 C 7,8 C 12,9 km/h (3 Bft) 98,21 %
30.10.2016 16:28 9,3 C 81 % 1027,6 hPa 0,0 l/m 8,7 km/h (2 Bft) W-NW 288 2 min 0,000 mm 0,0 UV-I 24 W/m 6,2 C 7,6 C 16,1 km/h (3 Bft) 97,87 %
30.10.2016 16:30 9,2 C 81 % 1027,6 hPa 0,0 l/m 7,0 km/h (2 Bft) W-SW 248 2 min 0,000 mm 0,0 UV-I 22 W/m 6,1 C 8,8 C 11,3 km/h (2 Bft) 97,37 %
30.10.2016 16:32 9,2 C 81 % 1027,6 hPa 0,0 l/m 9,3 km/h (2 Bft) SW 229 2 min 0,000 mm 0,0 UV-I 20 W/m 6,1 C 7,1 C 14,5 km/h (3 Bft) 98,31 %
30.10.2016 16:34 9,2 C 81 % 1027,6 hPa 0,0 l/m 11,0 km/h (2 Bft) W-SW 252 2 min 0,000 mm 0,0 UV-I 18 W/m 6,1 C 6,1 C 16,1 km/h (3 Bft) 97,56 %
30.10.2016 16:36 9,2 C 81 % 1027,6 hPa 0,0 l/m 8,2 km/h (2 Bft) W 267 2 min 0,000 mm 0,0 UV-I 16 W/m 6,1 C 7,9 C 11,3 km/h (2 Bft) 98,00 %
30.10.2016 16:38 9,2 C 82 % 1027,6 hPa 0,0 l/m 9,7 km/h (2 Bft) W-SW 246 0 min 0,000 mm 0,0 UV-I 15 W/m 6,3 C 6,9 C 14,5 km/h (3 Bft) 100,00 %
30.10.2016 16:40 9,2 C 81 % 1027,6 hPa 0,0 l/m 8,1 km/h (2 Bft) W-SW 248 0 min 0,000 mm 0,0 UV-I 13 W/m 6,1 C 7,9 C 12,9 km/h (3 Bft) 100,00 %
30.10.2016 16:42 9,1 C 82 % 1027,6 hPa 0,0 l/m 8,0 km/h (2 Bft) W-SW 243 0 min 0,000 mm 0,0 UV-I 11 W/m 6,2 C 7,9 C 14,5 km/h (3 Bft) 97,37 %
30.10.2016 16:44 9,1 C 82 % 1027,6 hPa 0,0 l/m 9,1 km/h (2 Bft) W 268 0 min 0,000 mm 0,0 UV-I 10 W/m 6,2 C 7,2 C 14,5 km/h (3 Bft) 100,00 %
30.10.2016 16:46 9,1 C 83 % 1027,6 hPa 0,0 l/m 8,3 km/h (2 Bft) W-SW 257 0 min 0,000 mm 0,0 UV-I 9 W/m 6,4 C 7,7 C 14,5 km/h (3 Bft) 97,44 %
30.10.2016 16:48 9,1 C 83 % 1027,7 hPa 0,0 l/m 10,4 km/h (2 Bft) W-SW 251 0 min 0,000 mm 0,0 UV-I 8 W/m 6,4 C 6,4 C 12,9 km/h (3 Bft) 100,00 %
30.10.2016 16:50 9,1 C 83 % 1027,7 hPa 0,0 l/m 9,0 km/h (2 Bft) W-SW 249 0 min 0,000 mm 0,0 UV-I 7 W/m 6,4 C 7,2 C 12,9 km/h (3 Bft) 100,00 %
30.10.2016 16:52 9,1 C 83 % 1027,7 hPa 0,0 l/m 7,6 km/h (2 Bft) W-SW 244 0 min 0,000 mm 0,0 UV-I 7 W/m 6,4 C 8,2 C 12,9 km/h (3 Bft) 96,23 %
30.10.2016 16:54 9,0 C 83 % 1027,7 hPa 0,0 l/m 8,1 km/h (2 Bft) W 279 0 min 0,000 mm 0,0 UV-I 5 W/m 6,3 C 7,7 C 12,9 km/h (3 Bft) 100,00 %
30.10.2016 16:56 9,0 C 83 % 1027,7 hPa 0,0 l/m 9,3 km/h (2 Bft) W-SW 250 0 min 0,000 mm 0,0 UV-I 5 W/m 6,3 C 6,9 C 14,5 km/h (3 Bft) 100,00 %
30.10.2016 16:58 9,0 C 83 % 1027,7 hPa 0,0 l/m 10,0 km/h (2 Bft) SW 233 0 min 0,000 mm 0,0 UV-I 5 W/m 6,3 C 6,5 C 12,9 km/h (3 Bft) 100,00 %
30.10.2016 17:00 9,0 C 83 % 1027,7 hPa 0,0 l/m 11,5 km/h (2 Bft) W-SW 242 0 min 0,025 mm 0,0 UV-I 5 W/m 6,3 C 5,6 C 14,5 km/h (3 Bft) 100,00 %
30.10.2016 17:03 9,0 C 83 % 1027,8 hPa 0,0 l/m 10,8 km/h (2 Bft) W-SW 254 0 min 0,000 mm 0,0 UV-I 2 W/m 6,3 C 6,0 C 14,5 km/h (3 Bft) 98,57 %
30.10.2016 17:04 9,0 C 83 % 1027,8 hPa 0,0 l/m 12,0 km/h (2 Bft) W-SW 250 0 min 0,000 mm 0,0 UV-I 0 W/m 6,3 C 5,4 C 14,5 km/h (3 Bft) 98,54 %
30.10.2016 17:06 9,0 C 83 % 1027,8 hPa 0,0 l/m 11,0 km/h (2 Bft) W-SW 247 0 min 0,000 mm 0,0 UV-I 0 W/m 6,3 C 5,9 C 12,9 km/h (3 Bft) 100,00 %
30.10.2016 17:08 8,9 C 83 % 1027,8 hPa 0,0 l/m 9,0 km/h (2 Bft) W-SW 251 0 min 0,000 mm 0,0 UV-I 0 W/m 6,2 C 7,0 C 12,9 km/h (3 Bft) 97,56 %
30.10.2016 17:10 8,9 C 83 % 1027,8 hPa 0,0 l/m 9,6 km/h (2 Bft) W 265 0 min 0,000 mm 0,0 UV-I 0 W/m 6,2 C 6,6 C 12,9 km/h (3 Bft) 100,00 %
30.10.2016 17:12 8,9 C 83 % 1027,8 hPa 0,0 l/m 9,3 km/h (2 Bft) W-SW 253 0 min 0,000 mm 0,0 UV-I 0 W/m 6,2 C 6,8 C 12,9 km/h (3 Bft) 100,00 %
30.10.2016 17:14 8,9 C 83 % 1027,9 hPa 0,0 l/m 7,7 km/h (2 Bft) W-SW 244 0 min 0,000 mm 0,0 UV-I 0 W/m 6,2 C 7,9 C 12,9 km/h (3 Bft) 100,00 %
30.10.2016 17:16 8,9 C 83 % 1027,9 hPa 0,0 l/m 8,1 km/h (2 Bft) SW 233 0 min 0,000 mm 0,0 UV-I 0 W/m 6,2 C 7,6 C 12,9 km/h (3 Bft) 97,73 %
30.10.2016 17:18 8,9 C 83 % 1027,9 hPa 0,0 l/m 8,6 km/h (2 Bft) W-SW 252 0 min 0,000 mm 0,0 UV-I 0 W/m 6,2 C 7,3 C 12,9 km/h (3 Bft) 100,00 %
30.10.2016 17:20 8,9 C 83 % 1027,9 hPa 0,0 l/m 9,8 km/h (2 Bft) W-SW 251 0 min 0,000 mm 0,0 UV-I 0 W/m 6,2 C 6,5 C 14,5 km/h (3 Bft) 100,00 %
30.10.2016 17:22 8,9 C 83 % 1027,9 hPa 0,0 l/m 6,8 km/h (2 Bft) W-SW 255 0 min 0,000 mm 0,0 UV-I 0 W/m 6,2 C 8,6 C 11,3 km/h (2 Bft) 100,00 %
30.10.2016 17:24 8,9 C 83 % 1027,9 hPa 0,0 l/m 7,7 km/h (2 Bft) W-SW 242 0 min 0,000 mm 0,0 UV-I 0 W/m 6,2 C 7,9 C 11,3 km/h (2 Bft) 100,00 %
30.10.2016 17:26 8,9 C 83 % 1027,8 hPa 0,0 l/m 8,3 km/h (2 Bft) W-SW 243 0 min 0,000 mm 0,0 UV-I 0 W/m 6,2 C 7,5 C 14,5 km/h (3 Bft) 100,00 %
30.10.2016 17:28 8,9 C 83 % 1027,9 hPa 0,0 l/m 9,4 km/h (2 Bft) W 269 0 min 0,000 mm 0,0 UV-I 0 W/m 6,2 C 6,8 C 12,9 km/h (3 Bft) 100,00 %
30.10.2016 17:30 8,9 C 83 % 1027,9 hPa 0,0 l/m 6,4 km/h (2 Bft) SW 234 0 min 0,000 mm 0,0 UV-I 0 W/m 6,2 C 8,9 C 12,9 km/h (3 Bft) 100,00 %
30.10.2016 17:32 8,9 C 83 % 1027,9 hPa 0,0 l/m 7,1 km/h (2 Bft) SW 223 0 min 0,000 mm 0,0 UV-I 0 W/m 6,2 C 8,4 C 11,3 km/h (2 Bft) 100,00 %
30.10.2016 17:34 8,8 C 83 % 1027,9 hPa 0,0 l/m 6,3 km/h (2 Bft) W-SW 255 0 min 0,000 mm 0,0 UV-I 0 W/m 6,1 C 8,8 C 11,3 km/h (2 Bft) 97,73 %
30.10.2016 17:36 8,8 C 83 % 1027,9 hPa 0,0 l/m 6,4 km/h (2 Bft) W-SW 245 0 min 0,000 mm 0,0 UV-I 0 W/m 6,1 C 8,8 C 9,7 km/h (2 Bft) 100,00 %
30.10.2016 17:38 8,8 C 83 % 1027,9 hPa 0,0 l/m 5,9 km/h (2 Bft) S-SW 209 0 min 0,000 mm 0,0 UV-I 0 W/m 6,1 C 8,8 C 8,0 km/h (2 Bft) 100,00 %
30.10.2016 17:40 8,8 C 83 % 1027,9 hPa 0,0 l/m 7,2 km/h (2 Bft) SW 217 0 min 0,000 mm 0,0 UV-I 0 W/m 6,1 C 8,2 C 11,3 km/h (2 Bft) 100,00 %
30.10.2016 17:42 8,8 C 83 % 1027,9 hPa 0,0 l/m 4,9 km/h (1 Bft) W-SW 245 0 min 0,000 mm 0,0 UV-I 0 W/m 6,1 C 8,8 C 8,0 km/h (2 Bft) 100,00 %
30.10.2016 17:44 8,8 C 83 % 1027,9 hPa 0,0 l/m 5,0 km/h (1 Bft) W-SW 250 0 min 0,000 mm 0,0 UV-I 0 W/m 6,1 C 8,8 C 8,0 km/h (2 Bft) 100,00 %
30.10.2016 17:46 8,8 C 83 % 1027,9 hPa 0,0 l/m 5,0 km/h (1 Bft) W-SW 254 0 min 0,000 mm 0,0 UV-I 0 W/m 6,1 C 8,8 C 6,4 km/h (2 Bft) 100,00 %
30.10.2016 17:48 8,7 C 84 % 1027,9 hPa 0,0 l/m 6,4 km/h (2 Bft) SW 235 0 min 0,000 mm 0,0 UV-I 0 W/m 6,2 C 8,7 C 11,3 km/h (2 Bft) 100,00 %
30.10.2016 17:50 8,7 C 84 % 1028,0 hPa 0,0 l/m 6,9 km/h (2 Bft) W-SW 250 0 min 0,000 mm 0,0 UV-I 0 W/m 6,2 C 8,3 C 11,3 km/h (2 Bft) 100,00 %
30.10.2016 17:52 8,7 C 84 % 1028,0 hPa 0,0 l/m 5,3 km/h (1 Bft) W-SW 244 0 min 0,000 mm 0,0 UV-I 0 W/m 6,2 C 8,7 C 9,7 km/h (2 Bft) 100,00 %
30.10.2016 17:54 8,7 C 84 % 1027,9 hPa 0,0 l/m 5,2 km/h (1 Bft) W-SW 253 0 min 0,000 mm 0,0 UV-I 0 W/m 6,2 C 8,7 C 9,7 km/h (2 Bft) 100,00 %
30.10.2016 17:56 8,6 C 84 % 1028,0 hPa 0,0 l/m 5,2 km/h (1 Bft) SW 236 0 min 0,000 mm 0,0 UV-I 0 W/m 6,1 C 8,6 C 9,7 km/h (2 Bft) 100,00 %
30.10.2016 17:58 8,6 C 84 % 1028,0 hPa 0,0 l/m 5,4 km/h (1 Bft) W-SW 256 0 min 0,000 mm 0,0 UV-I 0 W/m 6,1 C 8,6 C 9,7 km/h (2 Bft) 100,00 %
30.10.2016 18:00 8,6 C 84 % 1028,1 hPa 0,0 l/m 4,4 km/h (1 Bft) W-SW 242 0 min 0,026 mm 0,0 UV-I 0 W/m 6,1 C 8,6 C 8,0 km/h (2 Bft) 100,00 %
30.10.2016 18:02 8,6 C 84 % 1028,1 hPa 0,0 l/m 5,2 km/h (1 Bft) W-SW 248 0 min 0,000 mm 0,0 UV-I 0 W/m 6,1 C 8,6 C 8,0 km/h (2 Bft) 100,00 %
30.10.2016 18:04 8,6 C 84 % 1028,1 hPa 0,0 l/m 4,7 km/h (1 Bft) SW 236 0 min 0,000 mm 0,0 UV-I 0 W/m 6,1 C 8,6 C 8,0 km/h (2 Bft) 97,56 %
30.10.2016 18:06 8,6 C 85 % 1028,0 hPa 0,0 l/m 5,3 km/h (1 Bft) W-SW 244 0 min 0,000 mm 0,0 UV-I 0 W/m 6,2 C 8,6 C 6,4 km/h (2 Bft) 97,78 %
30.10.2016 18:08 8,6 C 84 % 1028,1 hPa 0,0 l/m 5,9 km/h (2 Bft) W-SW 241 0 min 0,000 mm 0,0 UV-I 0 W/m 6,1 C 8,6 C 8,0 km/h (2 Bft) 98,00 %
30.10.2016 18:10 8,6 C 84 % 1028,2 hPa 0,0 l/m 6,1 km/h (2 Bft) W-SW 246 0 min 0,000 mm 0,0 UV-I 0 W/m 6,1 C 8,6 C 9,7 km/h (2 Bft) 97,56 %
30.10.2016 18:12 8,6 C 84 % 1028,1 hPa 0,0 l/m 5,5 km/h (1 Bft) W-SW 249 0 min 0,000 mm 0,0 UV-I 0 W/m 6,1 C 8,6 C 6,4 km/h (2 Bft) 98,00 %
30.10.2016 18:14 8,6 C 84 % 1028,1 hPa 0,0 l/m 5,3 km/h (1 Bft) W 261 0 min 0,000 mm 0,0 UV-I 0 W/m 6,1 C 8,6 C 8,0 km/h (2 Bft) 98,00 %
30.10.2016 18:16 8,6 C 84 % 1028,1 hPa 0,0 l/m 5,3 km/h (1 Bft) SW 236 0 min 0,000 mm 0,0 UV-I 0 W/m 6,1 C 8,6 C 6,4 km/h (2 Bft) 97,56 %
30.10.2016 18:18 8,5 C 84 % 1028,2 hPa 0,0 l/m 5,8 km/h (2 Bft) W-SW 250 0 min 0,000 mm 0,0 UV-I 0 W/m 6,0 C 8,5 C 8,0 km/h (2 Bft) 96,23 %
30.10.2016 18:20 8,6 C 85 % 1028,2 hPa 0,0 l/m 5,7 km/h (1 Bft) W-SW 242 0 min 0,000 mm 0,0 UV-I 0 W/m 6,2 C 8,6 C 8,0 km/h (2 Bft) 97,73 %
30.10.2016 18:22 8,5 C 85 % 1028,3 hPa 0,0 l/m 4,4 km/h (1 Bft) W-SW 244 0 min 0,000 mm 0,0 UV-I 0 W/m 6,1 C 8,5 C 6,4 km/h (2 Bft) 98,00 %
30.10.2016 18:24 8,5 C 85 % 1028,2 hPa 0,0 l/m 4,8 km/h (1 Bft) W-SW 248 0 min 0,000 mm 0,0 UV-I 0 W/m 6,1 C 8,5 C 6,4 km/h (2 Bft) 96,00 %
30.10.2016 18:26 8,5 C 85 % 1028,3 hPa 0,0 l/m 5,0 km/h (1 Bft) W-SW 255 0 min 0,000 mm 0,0 UV-I 0 W/m 6,1 C 8,5 C 6,4 km/h (2 Bft) 97,37 %
30.10.2016 18:28 8,4 C 85 % 1028,3 hPa 0,0 l/m 5,3 km/h (1 Bft) W-SW 253 0 min 0,000 mm 0,0 UV-I 0 W/m 6,0 C 8,4 C 6,4 km/h (2 Bft) 97,87 %
30.10.2016 18:30 8,4 C 85 % 1028,3 hPa 0,0 l/m 4,9 km/h (1 Bft) W-SW 243 0 min 0,000 mm 0,0 UV-I 0 W/m 6,0 C 8,4 C 8,0 km/h (2 Bft) 95,74 %
30.10.2016 18:32 8,4 C 85 % 1028,3 hPa 0,0 l/m 4,1 km/h (1 Bft) W-SW 255 0 min 0,000 mm 0,0 UV-I 0 W/m 6,0 C 8,4 C 6,4 km/h (2 Bft) 98,11 %
30.10.2016 18:34 8,4 C 85 % 1028,4 hPa 0,0 l/m 4,5 km/h (1 Bft) W-SW 240 0 min 0,000 mm 0,0 UV-I 0 W/m 6,0 C 8,4 C 6,4 km/h (2 Bft) 97,37 %
30.10.2016 18:36 8,4 C 85 % 1028,3 hPa 0,0 l/m 4,9 km/h (1 Bft) W-SW 244 0 min 0,000 mm 0,0 UV-I 0 W/m 6,0 C 8,4 C 8,0 km/h (2 Bft) 96,23 %
30.10.2016 18:38 8,4 C 85 % 1028,4 hPa 0,0 l/m 5,8 km/h (2 Bft) W-SW 246 0 min 0,000 mm 0,0 UV-I 0 W/m 6,0 C 8,4 C 8,0 km/h (2 Bft) 100,00 %
30.10.2016 18:40 8,4 C 85 % 1028,3 hPa 0,0 l/m 4,0 km/h (1 Bft) SW 225 0 min 0,000 mm 0,0 UV-I 0 W/m 6,0 C 8,4 C 6,4 km/h (2 Bft) 100,00 %
30.10.2016 18:42 8,5 C 85 % 1028,3 hPa 0,0 l/m 4,2 km/h (1 Bft) SW 236 0 min 0,000 mm 0,0 UV-I 0 W/m 6,1 C 8,5 C 6,4 km/h (2 Bft) 97,92 %
30.10.2016 18:44 8,5 C 85 % 1028,3 hPa 0,0 l/m 4,8 km/h (1 Bft) SW 231 0 min 0,000 mm 0,0 UV-I 0 W/m 6,1 C 8,5 C 6,4 km/h (2 Bft) 100,00 %
30.10.2016 18:46 8,5 C 85 % 1028,3 hPa 0,0 l/m 4,8 km/h (1 Bft) W-SW 241 0 min 0,000 mm 0,0 UV-I 0 W/m 6,1 C 8,5 C 6,4 km/h (2 Bft) 98,08 %
30.10.2016 18:48 8,5 C 85 % 1028,3 hPa 0,0 l/m 5,9 km/h (2 Bft) SW 227 0 min 0,000 mm 0,0 UV-I 0 W/m 6,1 C 8,5 C 9,7 km/h (2 Bft) 98,00 %
30.10.2016 18:50 8,5 C 85 % 1028,3 hPa 0,0 l/m 5,0 km/h (1 Bft) W-SW 238 0 min 0,000 mm 0,0 UV-I 0 W/m 6,1 C 8,5 C 8,0 km/h (2 Bft) 100,00 %
30.10.2016 18:52 8,5 C 85 % 1028,3 hPa 0,0 l/m 5,7 km/h (1 Bft) SW 225 0 min 0,000 mm 0,0 UV-I 0 W/m 6,1 C 8,5 C 8,0 km/h (2 Bft) 98,15 %
30.10.2016 18:54 8,5 C 85 % 1028,3 hPa 0,0 l/m 5,4 km/h (1 Bft) W-SW 238 0 min 0,000 mm 0,0 UV-I 0 W/m 6,1 C 8,5 C 8,0 km/h (2 Bft) 100,00 %
30.10.2016 18:56 8,5 C 85 % 1028,4 hPa 0,0 l/m 6,0 km/h (2 Bft) W-SW 257 0 min 0,000 mm 0,0 UV-I 0 W/m 6,1 C 8,5 C 11,3 km/h (2 Bft) 97,87 %
30.10.2016 18:58 8,5 C 85 % 1028,4 hPa 0,0 l/m 4,9 km/h (1 Bft) W-SW 247 0 min 0,000 mm 0,0 UV-I 0 W/m 6,1 C 8,5 C 8,0 km/h (2 Bft) 100,00 %
30.10.2016 19:00 8,5 C 85 % 1028,4 hPa 0,0 l/m 5,0 km/h (1 Bft) SW 234 0 min 0,000 mm 0,0 UV-I 0 W/m 6,1 C 8,5 C 6,4 km/h (2 Bft) 97,87 %
30.10.2016 19:02 8,5 C 85 % 1028,4 hPa 0,0 l/m 6,0 km/h (2 Bft) SW 234 0 min 0,000 mm 0,0 UV-I 0 W/m 6,1 C 8,5 C 8,0 km/h (2 Bft) 100,00 %
30.10.2016 19:04 8,5 C 85 % 1028,4 hPa 0,0 l/m 6,4 km/h (2 Bft) W-SW 253 0 min 0,000 mm 0,0 UV-I 0 W/m 6,1 C 8,5 C 12,9 km/h (3 Bft) 98,11 %
30.10.2016 19:06 8,5 C 85 % 1028,4 hPa 0,0 l/m 5,3 km/h (1 Bft) W-SW 239 0 min 0,000 mm 0,0 UV-I 0 W/m 6,1 C 8,5 C 6,4 km/h (2 Bft) 100,00 %
30.10.2016 19:08 8,5 C 85 % 1028,4 hPa 0,0 l/m 4,9 km/h (1 Bft) W-SW 254 0 min 0,000 mm 0,0 UV-I 0 W/m 6,1 C 8,5 C 6,4 km/h (2 Bft) 100,00 %
30.10.2016 19:10 8,5 C 85 % 1028,4 hPa 0,0 l/m 5,0 km/h (1 Bft) W-SW 247 0 min 0,000 mm 0,0 UV-I 0 W/m 6,1 C 8,5 C 6,4 km/h (2 Bft) 100,00 %
30.10.2016 19:12 8,5 C 85 % 1028,4 hPa 0,0 l/m 4,6 km/h (1 Bft) W-SW 246 0 min 0,000 mm 0,0 UV-I 0 W/m 6,1 C 8,5 C 6,4 km/h (2 Bft) 100,00 %
30.10.2016 19:14 8,5 C 85 % 1028,3 hPa 0,0 l/m 5,8 km/h (2 Bft) SW 228 0 min 0,000 mm 0,0 UV-I 0 W/m 6,1 C 8,5 C 9,7 km/h (2 Bft) 95,74 %
30.10.2016 19:16 8,5 C 85 % 1028,4 hPa 0,0 l/m 6,4 km/h (2 Bft) SW 221 0 min 0,000 mm 0,0 UV-I 0 W/m 6,1 C 8,5 C 11,3 km/h (2 Bft) 100,00 %
30.10.2016 19:18 8,4 C 85 % 1028,4 hPa 0,0 l/m 5,5 km/h (1 Bft) SW 225 0 min 0,000 mm 0,0 UV-I 0 W/m 6,0 C 8,4 C 9,7 km/h (2 Bft) 100,00 %
30.10.2016 19:20 8,4 C 86 % 1028,4 hPa 0,0 l/m 4,9 km/h (1 Bft) W-SW 247 0 min 0,000 mm 0,0 UV-I 0 W/m 6,2 C 8,4 C 6,4 km/h (2 Bft) 97,56 %
30.10.2016 19:22 8,4 C 86 % 1028,5 hPa 0,0 l/m 5,1 km/h (1 Bft) SW 234 0 min 0,000 mm 0,0 UV-I 0 W/m 6,2 C 8,4 C 8,0 km/h (2 Bft) 100,00 %
30.10.2016 19:24 8,4 C 86 % 1028,5 hPa 0,0 l/m 5,5 km/h (1 Bft) W-SW 250 0 min 0,000 mm 0,0 UV-I 0 W/m 6,2 C 8,4 C 8,0 km/h (2 Bft) 100,00 %
30.10.2016 19:26 8,4 C 86 % 1028,4 hPa 0,0 l/m 5,0 km/h (1 Bft) SW 223 0 min 0,000 mm 0,0 UV-I 0 W/m 6,2 C 8,4 C 8,0 km/h (2 Bft) 100,00 %
30.10.2016 19:28 8,4 C 86 % 1028,5 hPa 0,0 l/m 4,2 km/h (1 Bft) W-SW 239 0 min 0,000 mm 0,0 UV-I 0 W/m 6,2 C 8,4 C 6,4 km/h (2 Bft) 100,00 %
30.10.2016 19:30 8,4 C 86 % 1028,5 hPa 0,0 l/m 4,3 km/h (1 Bft) W-SW 241 0 min 0,000 mm 0,0 UV-I 0 W/m 6,2 C 8,4 C 6,4 km/h (2 Bft) 100,00 %
30.10.2016 19:32 8,4 C 86 % 1028,5 hPa 0,0 l/m 4,6 km/h (1 Bft) SW 221 0 min 0,000 mm 0,0 UV-I 0 W/m 6,2 C 8,4 C 8,0 km/h (2 Bft) 100,00 %
30.10.2016 19:34 8,4 C 86 % 1028,5 hPa 0,0 l/m 5,8 km/h (2 Bft) SW 232 0 min 0,000 mm 0,0 UV-I 0 W/m 6,2 C 8,4 C 8,0 km/h (2 Bft) 100,00 %
30.10.2016 19:36 8,4 C 86 % 1028,5 hPa 0,0 l/m 6,5 km/h (2 Bft) SW 221 0 min 0,000 mm 0,0 UV-I 0 W/m 6,2 C 8,3 C 9,7 km/h (2 Bft) 100,00 %
30.10.2016 19:38 8,4 C 86 % 1028,5 hPa 0,0 l/m 4,3 km/h (1 Bft) SW 233 0 min 0,000 mm 0,0 UV-I 0 W/m 6,2 C 8,4 C 6,4 km/h (2 Bft) 98,21 %
30.10.2016 19:40 8,4 C 86 % 1028,5 hPa 0,0 l/m 4,4 km/h (1 Bft) W-SW 246 0 min 0,000 mm 0,0 UV-I 0 W/m 6,2 C 8,4 C 6,4 km/h (2 Bft) 100,00 %
30.10.2016 19:42 8,4 C 86 % 1028,5 hPa 0,0 l/m 5,5 km/h (1 Bft) W-SW 248 0 min 0,000 mm 0,0 UV-I 0 W/m 6,2 C 8,4 C 8,0 km/h (2 Bft) 100,00 %
30.10.2016 19:44 8,4 C 86 % 1028,6 hPa 0,0 l/m 5,8 km/h (2 Bft) W-SW 237 0 min 0,000 mm 0,0 UV-I 0 W/m 6,2 C 8,4 C 8,0 km/h (2 Bft) 95,45 %
30.10.2016 19:46 8,4 C 86 % 1028,7 hPa 0,0 l/m 4,8 km/h (1 Bft) W 262 0 min 0,000 mm 0,0 UV-I 0 W/m 6,2 C 8,4 C 8,0 km/h (2 Bft) 100,00 %
30.10.2016 19:48 8,4 C 86 % 1028,7 hPa 0,0 l/m 5,2 km/h (1 Bft) W-SW 250 0 min 0,000 mm 0,0 UV-I 0 W/m 6,2 C 8,4 C 8,0 km/h (2 Bft) 100,00 %
30.10.2016 19:50 8,4 C 86 % 1028,8 hPa 0,0 l/m 5,2 km/h (1 Bft) W-SW 250 0 min 0,000 mm 0,0 UV-I 0 W/m 6,2 C 8,4 C 6,4 km/h (2 Bft) 100,00 %
30.10.2016 19:52 8,4 C 86 % 1028,8 hPa 0,0 l/m 5,8 km/h (2 Bft) SW 236 0 min 0,000 mm 0,0 UV-I 0 W/m 6,2 C 8,4 C 8,0 km/h (2 Bft) 100,00 %
30.10.2016 19:54 8,4 C 86 % 1028,8 hPa 0,0 l/m 5,5 km/h (1 Bft) W-SW 253 0 min 0,000 mm 0,0 UV-I 0 W/m 6,2 C 8,4 C 8,0 km/h (2 Bft) 100,00 %
30.10.2016 19:56 8,4 C 86 % 1028,9 hPa 0,0 l/m 6,6 km/h (2 Bft) W 259 0 min 0,000 mm 0,0 UV-I 0 W/m 6,2 C 8,3 C 9,7 km/h (2 Bft) 100,00 %
30.10.2016 19:58 8,4 C 86 % 1028,8 hPa 0,0 l/m 6,6 km/h (2 Bft) W-SW 253 0 min 0,000 mm 0,0 UV-I 0 W/m 6,2 C 8,3 C 9,7 km/h (2 Bft) 100,00 %
30.10.2016 20:00 8,4 C 86 % 1028,8 hPa 0,0 l/m 5,8 km/h (2 Bft) W-SW 250 0 min 0,000 mm 0,0 UV-I 0 W/m 6,2 C 8,4 C 9,7 km/h (2 Bft) 100,00 %
30.10.2016 20:02 8,4 C 86 % 1028,8 hPa 0,0 l/m 6,7 km/h (2 Bft) W-SW 244 0 min 0,000 mm 0,0 UV-I 0 W/m 6,2 C 8,2 C 12,9 km/h (3 Bft) 98,28 %
30.10.2016 20:04 8,4 C 86 % 1028,8 hPa 0,0 l/m 7,6 km/h (2 Bft) W-SW 256 0 min 0,000 mm 0,0 UV-I 0 W/m 6,2 C 7,5 C 12,9 km/h (3 Bft) 100,00 %
30.10.2016 20:06 8,4 C 86 % 1028,9 hPa 0,0 l/m 4,8 km/h (1 Bft) W-SW 247 0 min 0,000 mm 0,0 UV-I 0 W/m 6,2 C 8,4 C 6,4 km/h (2 Bft) 100,00 %
30.10.2016 20:10 8,4 C 86 % 1028,8 hPa 0,0 l/m 6,7 km/h (2 Bft) W-SW 250 0 min 0,000 mm 0,0 UV-I 0 W/m 6,2 C 8,2 C 9,7 km/h (2 Bft) 98,81 %
30.10.2016 20:12 8,5 C 86 % 1028,8 hPa 0,0 l/m 7,0 km/h (2 Bft) W-SW 237 0 min 0,000 mm 0,0 UV-I 0 W/m 6,3 C 8,0 C 12,9 km/h (3 Bft) 98,11 %
30.10.2016 20:14 8,5 C 86 % 1028,8 hPa 0,0 l/m 5,6 km/h (1 Bft) W-SW 254 0 min 0,000 mm 0,0 UV-I 0 W/m 6,3 C 8,5 C 8,0 km/h (2 Bft) 98,00 %
30.10.2016 20:16 8,5 C 86 % 1028,9 hPa 0,0 l/m 5,9 km/h (2 Bft) W 259 0 min 0,000 mm 0,0 UV-I 0 W/m 6,3 C 8,5 C 8,0 km/h (2 Bft) 95,45 %
30.10.2016 20:18 8,4 C 86 % 1028,9 hPa 0,0 l/m 7,4 km/h (2 Bft) W-SW 252 0 min 0,000 mm 0,0 UV-I 0 W/m 6,2 C 7,6 C 9,7 km/h (2 Bft) 98,00 %
30.10.2016 20:20 8,4 C 86 % 1028,9 hPa 0,0 l/m 6,0 km/h (2 Bft) W 272 0 min 0,000 mm 0,0 UV-I 0 W/m 6,2 C 8,4 C 9,7 km/h (2 Bft) 93,62 %
30.10.2016 20:22 8,4 C 86 % 1028,9 hPa 0,0 l/m 7,4 km/h (2 Bft) W-SW 237 0 min 0,000 mm 0,0 UV-I 0 W/m 6,2 C 7,6 C 12,9 km/h (3 Bft) 98,00 %
30.10.2016 20:24 8,4 C 86 % 1029,0 hPa 0,0 l/m 8,0 km/h (2 Bft) W-SW 254 0 min 0,000 mm 0,0 UV-I 0 W/m 6,2 C 7,2 C 14,5 km/h (3 Bft) 97,87 %
30.10.2016 20:26 8,4 C 86 % 1029,0 hPa 0,0 l/m 9,9 km/h (2 Bft) W 259 0 min 0,000 mm 0,0 UV-I 0 W/m 6,2 C 5,9 C 16,1 km/h (3 Bft) 97,56 %
30.10.2016 20:28 8,4 C 86 % 1029,0 hPa 0,0 l/m 6,0 km/h (2 Bft) W 261 0 min 0,000 mm 0,0 UV-I 0 W/m 6,2 C 8,4 C 11,3 km/h (2 Bft) 98,00 %
30.10.2016 20:30 8,4 C 86 % 1029,0 hPa 0,0 l/m 8,7 km/h (2 Bft) W 280 0 min 0,000 mm 0,0 UV-I 0 W/m 6,2 C 6,7 C 11,3 km/h (2 Bft) 97,37 %
30.10.2016 20:32 8,4 C 86 % 1029,0 hPa 0,0 l/m 7,0 km/h (2 Bft) SW 236 0 min 0,000 mm 0,0 UV-I 0 W/m 6,2 C 7,9 C 11,3 km/h (2 Bft) 96,00 %
30.10.2016 20:34 8,4 C 86 % 1029,0 hPa 0,0 l/m 6,7 km/h (2 Bft) W-SW 253 0 min 0,000 mm 0,0 UV-I 0 W/m 6,2 C 8,2 C 9,7 km/h (2 Bft) 95,83 %
30.10.2016 20:36 8,4 C 86 % 1029,0 hPa 0,0 l/m 7,3 km/h (2 Bft) W 265 0 min 0,000 mm 0,0 UV-I 0 W/m 6,2 C 7,7 C 11,3 km/h (2 Bft) 97,87 %
30.10.2016 20:38 8,4 C 86 % 1029,1 hPa 0,0 l/m 5,6 km/h (1 Bft) W-SW 238 0 min 0,000 mm 0,0 UV-I 0 W/m 6,2 C 8,4 C 11,3 km/h (2 Bft) 95,74 %
30.10.2016 20:40 8,4 C 86 % 1029,1 hPa 0,0 l/m 5,9 km/h (2 Bft) W 266 0 min 0,000 mm 0,0 UV-I 0 W/m 6,2 C 8,4 C 11,3 km/h (2 Bft) 100,00 %
30.10.2016 20:42 8,4 C 86 % 1029,1 hPa 0,0 l/m 8,6 km/h (2 Bft) W-SW 255 0 min 0,000 mm 0,0 UV-I 0 W/m 6,2 C 6,7 C 12,9 km/h (3 Bft) 96,23 %
30.10.2016 20:44 8,4 C 86 % 1029,1 hPa 0,0 l/m 6,8 km/h (2 Bft) W-SW 250 0 min 0,000 mm 0,0 UV-I 0 W/m 6,2 C 8,1 C 9,7 km/h (2 Bft) 97,56 %
30.10.2016 20:46 8,4 C 86 % 1029,1 hPa 0,0 l/m 4,9 km/h (1 Bft) W-SW 250 0 min 0,000 mm 0,0 UV-I 0 W/m 6,2 C 8,4 C 6,4 km/h (2 Bft) 98,11 %
30.10.2016 20:48 8,4 C 86 % 1029,1 hPa 0,0 l/m 4,9 km/h (1 Bft) W-SW 255 0 min 0,000 mm 0,0 UV-I 0 W/m 6,2 C 8,4 C 9,7 km/h (2 Bft) 98,00 %
30.10.2016 20:50 8,4 C 86 % 1029,1 hPa 0,0 l/m 7,2 km/h (2 Bft) W 266 0 min 0,000 mm 0,0 UV-I 0 W/m 6,2 C 7,8 C 11,3 km/h (2 Bft) 100,00 %
30.10.2016 20:52 8,4 C 87 % 1029,1 hPa 0,0 l/m 6,5 km/h (2 Bft) W-SW 255 0 min 0,000 mm 0,0 UV-I 0 W/m 6,4 C 8,3 C 11,3 km/h (2 Bft) 100,00 %
30.10.2016 20:54 8,3 C 87 % 1029,1 hPa 0,0 l/m 7,1 km/h (2 Bft) W-SW 254 0 min 0,000 mm 0,0 UV-I 0 W/m 6,3 C 7,8 C 11,3 km/h (2 Bft) 100,00 %
30.10.2016 20:56 8,3 C 87 % 1029,1 hPa 0,0 l/m 6,0 km/h (2 Bft) W-SW 257 0 min 0,000 mm 0,0 UV-I 0 W/m 6,3 C 8,3 C 11,3 km/h (2 Bft) 98,00 %
30.10.2016 20:58 8,3 C 87 % 1029,2 hPa 0,0 l/m 5,2 km/h (1 Bft) W 267 0 min 0,000 mm 0,0 UV-I 0 W/m 6,3 C 8,3 C 8,0 km/h (2 Bft) 100,00 %
30.10.2016 21:00 8,3 C 87 % 1029,2 hPa 0,0 l/m 5,3 km/h (1 Bft) W-SW 255 0 min 0,000 mm 0,0 UV-I 0 W/m 6,3 C 8,3 C 9,7 km/h (2 Bft) 98,00 %
30.10.2016 21:02 8,3 C 87 % 1029,2 hPa 0,0 l/m 4,6 km/h (1 Bft) W-SW 252 0 min 0,000 mm 0,0 UV-I 0 W/m 6,3 C 8,3 C 6,4 km/h (2 Bft) 100,00 %
30.10.2016 21:04 8,3 C 87 % 1029,2 hPa 0,0 l/m 4,9 km/h (1 Bft) W 261 0 min 0,000 mm 0,0 UV-I 0 W/m 6,3 C 8,3 C 6,4 km/h (2 Bft) 100,00 %
30.10.2016 21:06 8,3 C 87 % 1029,2 hPa 0,0 l/m 5,5 km/h (1 Bft) W 265 0 min 0,000 mm 0,0 UV-I 0 W/m 6,3 C 8,3 C 9,7 km/h (2 Bft) 95,45 %
30.10.2016 21:08 8,3 C 87 % 1029,2 hPa 0,0 l/m 4,8 km/h (1 Bft) W 265 0 min 0,000 mm 0,0 UV-I 0 W/m 6,3 C 8,3 C 6,4 km/h (2 Bft) 98,11 %
30.10.2016 21:10 8,3 C 87 % 1029,3 hPa 0,0 l/m 4,6 km/h (1 Bft) W-SW 252 0 min 0,000 mm 0,0 UV-I 0 W/m 6,3 C 8,3 C 6,4 km/h (2 Bft) 100,00 %
30.10.2016 21:12 8,3 C 87 % 1029,3 hPa 0,0 l/m 4,4 km/h (1 Bft) W 272 0 min 0,000 mm 0,0 UV-I 0 W/m 6,3 C 8,3 C 6,4 km/h (2 Bft) 100,00 %
30.10.2016 21:14 8,3 C 87 % 1029,3 hPa 0,0 l/m 5,0 km/h (1 Bft) W-SW 247 0 min 0,000 mm 0,0 UV-I 0 W/m 6,3 C 8,3 C 8,0 km/h (2 Bft) 100,00 %
30.10.2016 21:16 8,2 C 87 % 1029,4 hPa 0,0 l/m 5,5 km/h (1 Bft) W-SW 241 0 min 0,000 mm 0,0 UV-I 0 W/m 6,2 C 8,2 C 11,3 km/h (2 Bft) 100,00 %
30.10.2016 21:18 8,2 C 87 % 1029,3 hPa 0,0 l/m 4,9 km/h (1 Bft) W 263 0 min 0,000 mm 0,0 UV-I 0 W/m 6,2 C 8,2 C 6,4 km/h (2 Bft) 100,00 %
30.10.2016 21:20 8,2 C 87 % 1029,3 hPa 0,0 l/m 5,0 km/h (1 Bft) W-SW 255 0 min 0,000 mm 0,0 UV-I 0 W/m 6,2 C 8,2 C 6,4 km/h (2 Bft) 100,00 %
30.10.2016 21:22 8,2 C 87 % 1029,3 hPa 0,0 l/m 4,3 km/h (1 Bft) W-SW 255 0 min 0,000 mm 0,0 UV-I 0 W/m 6,2 C 8,2 C 6,4 km/h (2 Bft) 100,00 %
30.10.2016 21:24 8,2 C 87 % 1029,3 hPa 0,0 l/m 4,4 km/h (1 Bft) W 259 0 min 0,000 mm 0,0 UV-I 0 W/m 6,2 C 8,2 C 8,0 km/h (2 Bft) 97,37 %
30.10.2016 21:26 8,2 C 87 % 1029,4 hPa 0,0 l/m 4,6 km/h (1 Bft) W-SW 254 0 min 0,000 mm 0,0 UV-I 0 W/m 6,2 C 8,2 C 6,4 km/h (2 Bft) 100,00 %
30.10.2016 21:28 8,2 C 87 % 1029,3 hPa 0,0 l/m 4,8 km/h (1 Bft) W-SW 248 0 min 0,000 mm 0,0 UV-I 0 W/m 6,2 C 8,2 C 8,0 km/h (2 Bft) 100,00 %
30.10.2016 21:30 8,2 C 87 % 1029,4 hPa 0,0 l/m 4,8 km/h (1 Bft) W-SW 248 0 min 0,000 mm 0,0 UV-I 0 W/m 6,2 C 8,2 C 6,4 km/h (2 Bft) 100,00 %
30.10.2016 21:32 8,1 C 87 % 1029,4 hPa 0,0 l/m 5,1 km/h (1 Bft) W 263 0 min 0,000 mm 0,0 UV-I 0 W/m 6,1 C 8,1 C 8,0 km/h (2 Bft) 100,00 %
30.10.2016 21:34 8,2 C 88 % 1029,4 hPa 0,0 l/m 4,3 km/h (1 Bft) W 267 0 min 0,000 mm 0,0 UV-I 0 W/m 6,3 C 8,2 C 6,4 km/h (2 Bft) 98,46 %
30.10.2016 21:36 8,1 C 87 % 1029,4 hPa 0,0 l/m 3,6 km/h (1 Bft) W 272 0 min 0,000 mm 0,0 UV-I 0 W/m 6,1 C 8,1 C 4,8 km/h (1 Bft) 100,00 %
30.10.2016 21:38 8,1 C 88 % 1029,4 hPa 0,0 l/m 5,4 km/h (1 Bft) W-SW 257 0 min 0,000 mm 0,0 UV-I 0 W/m 6,2 C 8,1 C 8,0 km/h (2 Bft) 100,00 %
30.10.2016 21:40 8,1 C 88 % 1029,4 hPa 0,0 l/m 3,6 km/h (1 Bft) W 265 0 min 0,000 mm 0,0 UV-I 0 W/m 6,2 C 8,1 C 6,4 km/h (2 Bft) 100,00 %
30.10.2016 21:42 8,0 C 88 % 1029,4 hPa 0,0 l/m 4,7 km/h (1 Bft) W 260 0 min 0,000 mm 0,0 UV-I 0 W/m 6,1 C 8,0 C 6,4 km/h (2 Bft) 100,00 %
30.10.2016 21:44 8,0 C 88 % 1029,4 hPa 0,0 l/m 4,8 km/h (1 Bft) W-SW 257 0 min 0,000 mm 0,0 UV-I 0 W/m 6,1 C 8,0 C 6,4 km/h (2 Bft) 96,72 %
30.10.2016 21:46 8,0 C 88 % 1029,4 hPa 0,0 l/m 5,4 km/h (1 Bft) W-SW 255 0 min 0,000 mm 0,0 UV-I 0 W/m 6,1 C 8,0 C 8,0 km/h (2 Bft) 100,00 %
30.10.2016 21:48 8,0 C 88 % 1029,4 hPa 0,0 l/m 4,9 km/h (1 Bft) W-SW 255 0 min 0,000 mm 0,0 UV-I 0 W/m 6,1 C 8,0 C 8,0 km/h (2 Bft) 97,87 %
30.10.2016 21:50 7,9 C 88 % 1029,4 hPa 0,0 l/m 5,5 km/h (1 Bft) W-SW 244 0 min 0,000 mm 0,0 UV-I 0 W/m 6,0 C 7,9 C 8,0 km/h (2 Bft) 100,00 %
30.10.2016 21:52 7,9 C 88 % 1029,4 hPa 0,0 l/m 5,4 km/h (1 Bft) W-SW 240 0 min 0,000 mm 0,0 UV-I 0 W/m 6,0 C 7,9 C 8,0 km/h (2 Bft) 100,00 %
30.10.2016 21:54 7,9 C 89 % 1029,4 hPa 0,0 l/m 5,0 km/h (1 Bft) W-SW 246 0 min 0,000 mm 0,0 UV-I 0 W/m 6,2 C 7,9 C 6,4 km/h (2 Bft) 100,00 %
30.10.2016 21:56 7,9 C 89 % 1029,4 hPa 0,0 l/m 4,9 km/h (1 Bft) W-SW 250 0 min 0,000 mm 0,0 UV-I 0 W/m 6,2 C 7,9 C 6,4 km/h (2 Bft) 100,00 %
30.10.2016 21:58 7,9 C 89 % 1029,4 hPa 0,0 l/m 3,4 km/h (1 Bft) W-SW 254 0 min 0,000 mm 0,0 UV-I 0 W/m 6,2 C 7,9 C 4,8 km/h (1 Bft) 98,11 %
30.10.2016 22:00 7,8 C 89 % 1029,4 hPa 0,0 l/m 5,7 km/h (1 Bft) W-SW 258 0 min 0,000 mm 0,0 UV-I 0 W/m 6,1 C 7,8 C 8,0 km/h (2 Bft) 100,00 %
30.10.2016 22:02 7,8 C 89 % 1029,4 hPa 0,0 l/m 6,0 km/h (2 Bft) W-SW 245 0 min 0,000 mm 0,0 UV-I 0 W/m 6,1 C 7,8 C 11,3 km/h (2 Bft) 100,00 %
30.10.2016 22:04 7,8 C 89 % 1029,5 hPa 0,0 l/m 5,9 km/h (2 Bft) W-SW 248 0 min 0,000 mm 0,0 UV-I 0 W/m 6,1 C 7,8 C 11,3 km/h (2 Bft) 100,00 %
30.10.2016 22:06 7,8 C 89 % 1029,4 hPa 0,0 l/m 5,4 km/h (1 Bft) SW 229 0 min 0,000 mm 0,0 UV-I 0 W/m 6,1 C 7,8 C 8,0 km/h (2 Bft) 100,00 %
30.10.2016 22:08 7,8 C 89 % 1029,4 hPa 0,0 l/m 5,3 km/h (1 Bft) W-SW 254 0 min 0,000 mm 0,0 UV-I 0 W/m 6,1 C 7,8 C 8,0 km/h (2 Bft) 100,00 %
30.10.2016 22:10 7,8 C 89 % 1029,4 hPa 0,0 l/m 5,8 km/h (2 Bft) W-SW 253 0 min 0,000 mm 0,0 UV-I 0 W/m 6,1 C 7,8 C 9,7 km/h (2 Bft) 100,00 %
30.10.2016 22:12 7,8 C 89 % 1029,4 hPa 0,0 l/m 5,7 km/h (1 Bft) W-SW 253 0 min 0,000 mm 0,0 UV-I 0 W/m 6,1 C 7,8 C 8,0 km/h (2 Bft) 97,87 %
30.10.2016 22:14 7,8 C 89 % 1029,4 hPa 0,0 l/m 4,4 km/h (1 Bft) W-SW 244 0 min 0,000 mm 0,0 UV-I 0 W/m 6,1 C 7,8 C 8,0 km/h (2 Bft) 97,37 %
30.10.2016 22:16 7,8 C 89 % 1029,4 hPa 0,0 l/m 4,0 km/h (1 Bft) W 268 0 min 0,000 mm 0,0 UV-I 0 W/m 6,1 C 7,8 C 6,4 km/h (2 Bft) 97,87 %
30.10.2016 22:18 7,8 C 89 % 1029,4 hPa 0,0 l/m 4,2 km/h (1 Bft) W-SW 242 0 min 0,000 mm 0,0 UV-I 0 W/m 6,1 C 7,8 C 6,4 km/h (2 Bft) 98,00 %
30.10.2016 22:20 7,7 C 89 % 1029,3 hPa 0,0 l/m 3,9 km/h (1 Bft) W 274 0 min 0,000 mm 0,0 UV-I 0 W/m 6,0 C 7,7 C 6,4 km/h (2 Bft) 95,74 %
30.10.2016 22:22 7,7 C 89 % 1029,3 hPa 0,0 l/m 4,4 km/h (1 Bft) W-SW 248 0 min 0,000 mm 0,0 UV-I 0 W/m 6,0 C 7,7 C 6,4 km/h (2 Bft) 96,23 %
30.10.2016 22:24 7,7 C 89 % 1029,3 hPa 0,0 l/m 4,5 km/h (1 Bft) SW 235 0 min 0,000 mm 0,0 UV-I 0 W/m 6,0 C 7,7 C 6,4 km/h (2 Bft) 97,56 %
30.10.2016 22:26 7,6 C 89 % 1029,2 hPa 0,0 l/m 3,1 km/h (1 Bft) SW 235 0 min 0,000 mm 0,0 UV-I 0 W/m 5,9 C 7,6 C 4,8 km/h (1 Bft) 97,87 %
30.10.2016 22:28 7,6 C 90 % 1029,2 hPa 0,0 l/m 3,2 km/h (1 Bft) SW 224 0 min 0,000 mm 0,0 UV-I 0 W/m 6,1 C 7,6 C 4,8 km/h (1 Bft) 96,23 %
30.10.2016 22:30 7,5 C 90 % 1029,3 hPa 0,0 l/m 2,9 km/h (1 Bft) SW 224 0 min 0,000 mm 0,0 UV-I 0 W/m 6,0 C 7,5 C 4,8 km/h (1 Bft) 97,22 %
30.10.2016 22:32 7,4 C 90 % 1029,3 hPa 0,0 l/m 3,3 km/h (1 Bft) SW 224 0 min 0,000 mm 0,0 UV-I 0 W/m 5,9 C 7,4 C 6,4 km/h (2 Bft) 98,00 %
30.10.2016 22:34 7,4 C 90 % 1029,3 hPa 0,0 l/m 3,4 km/h (1 Bft) SW 224 0 min 0,000 mm 0,0 UV-I 0 W/m 5,9 C 7,4 C 6,4 km/h (2 Bft) 95,74 %
30.10.2016 22:36 7,3 C 90 % 1029,3 hPa 0,0 l/m 2,5 km/h (1 Bft) SW 224 0 min 0,000 mm 0,0 UV-I 0 W/m 5,8 C 7,3 C 4,8 km/h (1 Bft) 97,87 %
30.10.2016 22:38 7,3 C 91 % 1029,3 hPa 0,0 l/m 1,9 km/h (1 Bft) SW 224 0 min 0,000 mm 0,0 UV-I 0 W/m 5,9 C 7,3 C 3,2 km/h (1 Bft) 97,87 %
30.10.2016 22:40 7,3 C 90 % 1029,2 hPa 0,0 l/m 2,1 km/h (1 Bft) SW 225 0 min 0,000 mm 0,0 UV-I 0 W/m 5,8 C 7,3 C 4,8 km/h (1 Bft) 95,45 %
30.10.2016 22:42 7,2 C 91 % 1029,3 hPa 0,0 l/m 3,0 km/h (1 Bft) SW 224 0 min 0,000 mm 0,0 UV-I 0 W/m 5,8 C 7,2 C 4,8 km/h (1 Bft) 95,45 %
30.10.2016 22:44 7,2 C 91 % 1029,2 hPa 0,0 l/m 3,4 km/h (1 Bft) SW 225 0 min 0,000 mm 0,0 UV-I 0 W/m 5,8 C 7,2 C 4,8 km/h (1 Bft) 98,11 %
30.10.2016 22:46 7,2 C 91 % 1029,3 hPa 0,0 l/m 3,1 km/h (1 Bft) SW 225 0 min 0,000 mm 0,0 UV-I 0 W/m 5,8 C 7,2 C 4,8 km/h (1 Bft) 95,74 %
30.10.2016 22:48 7,2 C 91 % 1029,2 hPa 0,0 l/m 2,6 km/h (1 Bft) SW 225 0 min 0,000 mm 0,0 UV-I 0 W/m 5,8 C 7,2 C 3,2 km/h (1 Bft) 98,11 %
30.10.2016 22:50 7,1 C 91 % 1029,2 hPa 0,0 l/m 2,5 km/h (1 Bft) SW 224 0 min 0,000 mm 0,0 UV-I 0 W/m 5,7 C 7,1 C 3,2 km/h (1 Bft) 97,56 %
30.10.2016 22:52 7,1 C 91 % 1029,2 hPa 0,0 l/m 1,9 km/h (1 Bft) SW 225 0 min 0,000 mm 0,0 UV-I 0 W/m 5,7 C 7,1 C 3,2 km/h (1 Bft) 100,00 %
30.10.2016 22:54 6,9 C 91 % 1029,3 hPa 0,0 l/m 1,5 km/h (1 Bft) SW 224 0 min 0,000 mm 0,0 UV-I 0 W/m 5,5 C 6,9 C 3,2 km/h (1 Bft) 97,56 %
30.10.2016 22:56 6,9 C 91 % 1029,3 hPa 0,0 l/m 2,3 km/h (1 Bft) SW 225 0 min 0,000 mm 0,0 UV-I 0 W/m 5,5 C 6,9 C 4,8 km/h (1 Bft) 100,00 %
30.10.2016 22:58 6,8 C 92 % 1029,3 hPa 0,0 l/m 2,1 km/h (1 Bft) SW 225 0 min 0,000 mm 0,0 UV-I 0 W/m 5,6 C 6,8 C 3,2 km/h (1 Bft) 98,00 %
30.10.2016 23:00 6,8 C 91 % 1029,3 hPa 0,0 l/m 1,2 km/h (1 Bft) SW 225 0 min 0,000 mm 0,0 UV-I 0 W/m 5,4 C 6,8 C 3,2 km/h (1 Bft) 100,00 %
30.10.2016 23:02 6,7 C 91 % 1029,3 hPa 0,0 l/m 1,2 km/h (1 Bft) SW 225 0 min 0,000 mm 0,0 UV-I 0 W/m 5,3 C 6,7 C 3,2 km/h (1 Bft) 98,00 %
30.10.2016 23:04 6,6 C 92 % 1029,3 hPa 0,0 l/m 1,1 km/h (1 Bft) SW 225 0 min 0,000 mm 0,0 UV-I 0 W/m 5,4 C 6,6 C 3,2 km/h (1 Bft) 100,00 %
30.10.2016 23:06 6,6 C 92 % 1029,3 hPa 0,0 l/m 1,2 km/h (1 Bft) SW 225 0 min 0,000 mm 0,0 UV-I 0 W/m 5,4 C 6,6 C 3,2 km/h (1 Bft) 100,00 %
30.10.2016 23:08 6,6 C 92 % 1029,3 hPa 0,0 l/m 0,5 km/h (0 Bft) SW 225 0 min 0,000 mm 0,0 UV-I 0 W/m 5,4 C 6,6 C 1,6 km/h (1 Bft) 98,00 %
30.10.2016 23:10 6,5 C 92 % 1029,3 hPa 0,0 l/m 0,0 km/h (0 Bft) SW 225 0 min 0,000 mm 0,0 UV-I 0 W/m 5,3 C 6,5 C 1,6 km/h (1 Bft) 100,00 %
30.10.2016 23:12 6,5 C 92 % 1029,3 hPa 0,0 l/m 0,0 km/h (0 Bft) SW 225 0 min 0,000 mm 0,0 UV-I 0 W/m 5,3 C 6,5 C 0,0 km/h (0 Bft) 100,00 %
30.10.2016 23:14 6,5 C 92 % 1029,3 hPa 0,0 l/m 0,0 km/h (0 Bft) SW 225 0 min 0,000 mm 0,0 UV-I 0 W/m 5,3 C 6,5 C 0,0 km/h (0 Bft) 98,00 %
30.10.2016 23:16 6,5 C 92 % 1029,3 hPa 0,0 l/m 0,0 km/h (0 Bft) SW 225 0 min 0,000 mm 0,0 UV-I 0 W/m 5,3 C 6,5 C 0,0 km/h (0 Bft) 97,87 %
30.10.2016 23:18 6,4 C 92 % 1029,3 hPa 0,0 l/m 0,0 km/h (0 Bft) SW 225 0 min 0,000 mm 0,0 UV-I 0 W/m 5,2 C 6,4 C 0,0 km/h (0 Bft) 100,00 %
30.10.2016 23:20 6,4 C 92 % 1029,3 hPa 0,0 l/m 0,1 km/h (0 Bft) SW 225 0 min 0,000 mm 0,0 UV-I 0 W/m 5,2 C 6,4 C 1,6 km/h (1 Bft) 100,00 %
30.10.2016 23:22 6,5 C 93 % 1029,3 hPa 0,0 l/m 0,3 km/h (0 Bft) SW 225 0 min 0,000 mm 0,0 UV-I 0 W/m 5,5 C 6,5 C 1,6 km/h (1 Bft) 96,23 %
30.10.2016 23:24 6,4 C 92 % 1029,3 hPa 0,0 l/m 0,7 km/h (0 Bft) SW 225 0 min 0,000 mm 0,0 UV-I 0 W/m 5,2 C 6,4 C 3,2 km/h (1 Bft) 97,37 %
30.10.2016 23:26 6,4 C 93 % 1029,2 hPa 0,0 l/m 0,5 km/h (0 Bft) SW 225 0 min 0,000 mm 0,0 UV-I 0 W/m 5,4 C 6,4 C 1,6 km/h (1 Bft) 100,00 %
30.10.2016 23:28 6,4 C 92 % 1029,3 hPa 0,0 l/m 0,8 km/h (0 Bft) SW 225 0 min 0,000 mm 0,0 UV-I 0 W/m 5,2 C 6,4 C 1,6 km/h (1 Bft) 100,00 %
30.10.2016 23:30 6,4 C 93 % 1029,2 hPa 0,0 l/m 0,3 km/h (0 Bft) SW 225 0 min 0,000 mm 0,0 UV-I 0 W/m 5,4 C 6,4 C 1,6 km/h (1 Bft) 98,00 %
30.10.2016 23:32 6,4 C 93 % 1029,2 hPa 0,0 l/m 1,3 km/h (1 Bft) SW 225 0 min 0,000 mm 0,0 UV-I 0 W/m 5,4 C 6,4 C 3,2 km/h (1 Bft) 100,00 %
30.10.2016 23:34 6,4 C 93 % 1029,2 hPa 0,0 l/m 1,8 km/h (1 Bft) SW 225 0 min 0,000 mm 0,0 UV-I 0 W/m 5,4 C 6,4 C 3,2 km/h (1 Bft) 100,00 %
30.10.2016 23:36 6,3 C 92 % 1029,2 hPa 0,0 l/m 1,0 km/h (0 Bft) SW 225 0 min 0,000 mm 0,0 UV-I 0 W/m 5,1 C 6,3 C 3,2 km/h (1 Bft) 98,00 %
30.10.2016 23:38 6,3 C 93 % 1029,2 hPa 0,0 l/m 0,5 km/h (0 Bft) SW 225 0 min 0,000 mm 0,0 UV-I 0 W/m 5,3 C 6,3 C 1,6 km/h (1 Bft) 100,00 %
30.10.2016 23:40 6,3 C 93 % 1029,3 hPa 0,0 l/m 0,9 km/h (0 Bft) SW 225 0 min 0,000 mm 0,0 UV-I 0 W/m 5,3 C 6,3 C 3,2 km/h (1 Bft) 100,00 %
30.10.2016 23:42 6,3 C 92 % 1029,3 hPa 0,0 l/m 0,2 km/h (0 Bft) SW 225 0 min 0,000 mm 0,0 UV-I 0 W/m 5,1 C 6,3 C 1,6 km/h (1 Bft) 97,87 %
30.10.2016 23:44 6,2 C 92 % 1029,3 hPa 0,0 l/m 0,0 km/h (0 Bft) SW 225 0 min 0,000 mm 0,0 UV-I 0 W/m 5,0 C 6,2 C 1,6 km/h (1 Bft) 100,00 %
30.10.2016 23:46 6,3 C 93 % 1029,3 hPa 0,0 l/m 0,2 km/h (0 Bft) SW 225 0 min 0,000 mm 0,0 UV-I 0 W/m 5,3 C 6,3 C 1,6 km/h (1 Bft) 97,37 %
30.10.2016 23:48 6,3 C 93 % 1029,3 hPa 0,0 l/m 1,2 km/h (1 Bft) SW 225 0 min 0,000 mm 0,0 UV-I 0 W/m 5,3 C 6,3 C 3,2 km/h (1 Bft) 100,00 %
30.10.2016 23:50 6,3 C 92 % 1029,3 hPa 0,0 l/m 2,1 km/h (1 Bft) SW 225 0 min 0,000 mm 0,0 UV-I 0 W/m 5,1 C 6,3 C 3,2 km/h (1 Bft) 100,00 %
30.10.2016 23:52 6,2 C 92 % 1029,3 hPa 0,0 l/m 2,4 km/h (1 Bft) SW 225 0 min 0,000 mm 0,0 UV-I 0 W/m 5,0 C 6,2 C 3,2 km/h (1 Bft) 100,00 %
30.10.2016 23:54 6,3 C 93 % 1029,2 hPa 0,0 l/m 3,0 km/h (1 Bft) SW 225 0 min 0,000 mm 0,0 UV-I 0 W/m 5,3 C 6,3 C 4,8 km/h (1 Bft) 100,00 %
30.10.2016 23:56 6,3 C 93 % 1029,3 hPa 0,0 l/m 3,7 km/h (1 Bft) SW 225 0 min 0,000 mm 0,0 UV-I 0 W/m 5,3 C 6,3 C 4,8 km/h (1 Bft) 100,00 %
30.10.2016 23:58 6,3 C 93 % 1029,2 hPa 0,0 l/m 3,5 km/h (1 Bft) SW 225 0 min 0,000 mm 0,0 UV-I 0 W/m 5,3 C 6,3 C 4,8 km/h (1 Bft) 100,00 %
_ Min-Zeit 23:44 12:16 14:14 - 07:18 - - - - - - 23:44 13:12 07:18 07:28
Minimum _ 6,2 C 73 % 1027,3 hPa - 0,0 km/h (0 Bft) - - - - - - 5,0 C 3,3 C 0,0 km/h (0 Bft) 91,11 %
_ Max-Zeit 12:46 02:46 00:26 00:00 13:12 - - 10:48 12:00 11:40 14:08 00:26 12:44 13:12 00:00
Maximum _ 10,2 C 94 % 1030,0 hPa 0,0 l/m 19,7 km/h
W-SW (3 Bft)
- - 2 min 0,127 mm 1,2 UV-I 347 W/m 7,6 C 10,1 C 30,6 km/h
SW (5 Bft)
100,00 %
Durchschnitt _ 8,4 C 86 % 1028,8 hPa #0,0 l/m 6,8 km/h (2 Bft) W-SW - #1:50 h #0,813 mm 0,8 UV-I 127 W/m 6,2 C 7,5 C 10,8 km/h (2 Bft) 98,68 %